<?xml version="1.0" encoding="UTF-8" standalone="no" ?>
<gpx xmlns="http://www.topografix.com/GPX/1/1" xmlns:xsi="http://www.w3.org/2001/XMLSchema-instance" xsi:schemaLocation="http://www.topografix.com/GPX/1/1 http://www.topografix.com/GPX/1/1/gpx.xsd" version="1.1" creator="VisuGPX - https://www.visugpx.com">
  <metadata>
    <name>Week-End Vezelay rando Bessy-sur-Cure - Mailly-La-Ville</name>
    <desc><![CDATA[rando Bessy-sur-Cure -> Mailly-La-Ville]]></desc>
  </metadata>
  <trk>
    <name><![CDATA[1 avr. 2012 09:30:04]]></name>
    <cmt><![CDATA[1 avr. 2012 09:30:04]]></cmt>
    <trkseg>
      <trkpt lat="47.61831" lon="3.74127">
        <ele>65</ele>
        <time>2012-04-01T07:30:06Z</time>
      </trkpt>
      <trkpt lat="47.61809" lon="3.74129">
        <ele>68</ele>
        <time>2012-04-01T07:30:25Z</time>
      </trkpt>
      <trkpt lat="47.61804" lon="3.74132">
        <ele>69</ele>
        <time>2012-04-01T07:30:33Z</time>
      </trkpt>
      <trkpt lat="47.618" lon="3.74131">
        <ele>70</ele>
        <time>2012-04-01T07:30:39Z</time>
      </trkpt>
      <trkpt lat="47.61795" lon="3.74133">
        <ele>70</ele>
        <time>2012-04-01T07:30:46Z</time>
      </trkpt>
      <trkpt lat="47.6179" lon="3.74131">
        <ele>70</ele>
        <time>2012-04-01T07:30:50Z</time>
      </trkpt>
      <trkpt lat="47.61785" lon="3.74133">
        <ele>70</ele>
        <time>2012-04-01T07:30:55Z</time>
      </trkpt>
      <trkpt lat="47.6178" lon="3.74136">
        <ele>71</ele>
        <time>2012-04-01T07:30:59Z</time>
      </trkpt>
      <trkpt lat="47.61776" lon="3.74141">
        <ele>71</ele>
        <time>2012-04-01T07:31:02Z</time>
      </trkpt>
      <trkpt lat="47.61771" lon="3.74143">
        <ele>71</ele>
        <time>2012-04-01T07:31:06Z</time>
      </trkpt>
      <trkpt lat="47.61766" lon="3.74146">
        <ele>72</ele>
        <time>2012-04-01T07:31:13Z</time>
      </trkpt>
      <trkpt lat="47.61758" lon="3.74157">
        <ele>72</ele>
        <time>2012-04-01T07:31:20Z</time>
      </trkpt>
      <trkpt lat="47.61755" lon="3.74163">
        <ele>71</ele>
        <time>2012-04-01T07:31:23Z</time>
      </trkpt>
      <trkpt lat="47.61752" lon="3.74168">
        <ele>72</ele>
        <time>2012-04-01T07:31:26Z</time>
      </trkpt>
      <trkpt lat="47.61748" lon="3.74174">
        <ele>71</ele>
        <time>2012-04-01T07:31:30Z</time>
      </trkpt>
      <trkpt lat="47.61744" lon="3.74177">
        <ele>71</ele>
        <time>2012-04-01T07:31:35Z</time>
      </trkpt>
      <trkpt lat="47.61739" lon="3.74176">
        <ele>70</ele>
        <time>2012-04-01T07:31:40Z</time>
      </trkpt>
      <trkpt lat="47.61735" lon="3.74171">
        <ele>69</ele>
        <time>2012-04-01T07:31:44Z</time>
      </trkpt>
      <trkpt lat="47.61731" lon="3.74173">
        <ele>69</ele>
        <time>2012-04-01T07:31:47Z</time>
      </trkpt>
      <trkpt lat="47.61726" lon="3.74178">
        <ele>69</ele>
        <time>2012-04-01T07:31:50Z</time>
      </trkpt>
      <trkpt lat="47.61722" lon="3.74183">
        <ele>70</ele>
        <time>2012-04-01T07:31:54Z</time>
      </trkpt>
      <trkpt lat="47.61718" lon="3.74186">
        <ele>69</ele>
        <time>2012-04-01T07:31:57Z</time>
      </trkpt>
      <trkpt lat="47.61714" lon="3.74183">
        <ele>69</ele>
        <time>2012-04-01T07:32:01Z</time>
      </trkpt>
      <trkpt lat="47.61709" lon="3.74184">
        <ele>70</ele>
        <time>2012-04-01T07:32:05Z</time>
      </trkpt>
      <trkpt lat="47.61704" lon="3.74183">
        <ele>70</ele>
        <time>2012-04-01T07:32:10Z</time>
      </trkpt>
      <trkpt lat="47.61699" lon="3.74185">
        <ele>71</ele>
        <time>2012-04-01T07:32:14Z</time>
      </trkpt>
      <trkpt lat="47.61695" lon="3.74189">
        <ele>69</ele>
        <time>2012-04-01T07:32:17Z</time>
      </trkpt>
      <trkpt lat="47.6169" lon="3.74186">
        <ele>69</ele>
        <time>2012-04-01T07:32:23Z</time>
      </trkpt>
      <trkpt lat="47.61686" lon="3.74189">
        <ele>69</ele>
        <time>2012-04-01T07:32:27Z</time>
      </trkpt>
      <trkpt lat="47.61679" lon="3.74199">
        <ele>67</ele>
        <time>2012-04-01T07:32:36Z</time>
      </trkpt>
      <trkpt lat="47.61675" lon="3.74204">
        <ele>67</ele>
        <time>2012-04-01T07:32:39Z</time>
      </trkpt>
      <trkpt lat="47.61671" lon="3.74219">
        <ele>70</ele>
        <time>2012-04-01T07:32:45Z</time>
      </trkpt>
      <trkpt lat="47.61669" lon="3.74225">
        <ele>70</ele>
        <time>2012-04-01T07:32:49Z</time>
      </trkpt>
      <trkpt lat="47.61664" lon="3.7423">
        <ele>71</ele>
        <time>2012-04-01T07:32:54Z</time>
      </trkpt>
      <trkpt lat="47.61659" lon="3.74228">
        <ele>70</ele>
        <time>2012-04-01T07:32:57Z</time>
      </trkpt>
      <trkpt lat="47.61649" lon="3.74224">
        <ele>70</ele>
        <time>2012-04-01T07:33:04Z</time>
      </trkpt>
      <trkpt lat="47.61644" lon="3.74222">
        <ele>72</ele>
        <time>2012-04-01T07:33:08Z</time>
      </trkpt>
      <trkpt lat="47.61639" lon="3.7422">
        <ele>72</ele>
        <time>2012-04-01T07:33:13Z</time>
      </trkpt>
      <trkpt lat="47.61634" lon="3.74219">
        <ele>74</ele>
        <time>2012-04-01T07:33:16Z</time>
      </trkpt>
      <trkpt lat="47.61628" lon="3.74221">
        <ele>73</ele>
        <time>2012-04-01T07:33:22Z</time>
      </trkpt>
      <trkpt lat="47.61614" lon="3.74221">
        <ele>78</ele>
        <time>2012-04-01T07:33:38Z</time>
      </trkpt>
      <trkpt lat="47.61609" lon="3.74219">
        <ele>78</ele>
        <time>2012-04-01T07:33:46Z</time>
      </trkpt>
      <trkpt lat="47.61604" lon="3.74217">
        <ele>76</ele>
        <time>2012-04-01T07:33:52Z</time>
      </trkpt>
      <trkpt lat="47.616" lon="3.74215">
        <ele>78</ele>
        <time>2012-04-01T07:33:56Z</time>
      </trkpt>
      <trkpt lat="47.61595" lon="3.74213">
        <ele>78</ele>
        <time>2012-04-01T07:34:01Z</time>
      </trkpt>
      <trkpt lat="47.61592" lon="3.74211">
        <ele>75</ele>
        <time>2012-04-01T07:34:08Z</time>
      </trkpt>
      <trkpt lat="47.61588" lon="3.74209">
        <ele>75</ele>
        <time>2012-04-01T07:34:16Z</time>
      </trkpt>
      <trkpt lat="47.61583" lon="3.74209">
        <ele>76</ele>
        <time>2012-04-01T07:34:24Z</time>
      </trkpt>
      <trkpt lat="47.61579" lon="3.74204">
        <ele>76</ele>
        <time>2012-04-01T07:34:32Z</time>
      </trkpt>
      <trkpt lat="47.61575" lon="3.74201">
        <ele>77</ele>
        <time>2012-04-01T07:34:39Z</time>
      </trkpt>
      <trkpt lat="47.6157" lon="3.74197">
        <ele>77</ele>
        <time>2012-04-01T07:34:45Z</time>
      </trkpt>
      <trkpt lat="47.61567" lon="3.74192">
        <ele>80</ele>
        <time>2012-04-01T07:34:52Z</time>
      </trkpt>
      <trkpt lat="47.61564" lon="3.74187">
        <ele>79</ele>
        <time>2012-04-01T07:34:57Z</time>
      </trkpt>
      <trkpt lat="47.6156" lon="3.74183">
        <ele>80</ele>
        <time>2012-04-01T07:35:04Z</time>
      </trkpt>
      <trkpt lat="47.61556" lon="3.7418">
        <ele>79</ele>
        <time>2012-04-01T07:35:10Z</time>
      </trkpt>
      <trkpt lat="47.6155" lon="3.7418">
        <ele>79</ele>
        <time>2012-04-01T07:35:16Z</time>
      </trkpt>
      <trkpt lat="47.61546" lon="3.74179">
        <ele>81</ele>
        <time>2012-04-01T07:35:19Z</time>
      </trkpt>
      <trkpt lat="47.61536" lon="3.74179">
        <ele>84</ele>
        <time>2012-04-01T07:35:29Z</time>
      </trkpt>
      <trkpt lat="47.61532" lon="3.74175">
        <ele>85</ele>
        <time>2012-04-01T07:35:35Z</time>
      </trkpt>
      <trkpt lat="47.61528" lon="3.74178">
        <ele>85</ele>
        <time>2012-04-01T07:35:40Z</time>
      </trkpt>
      <trkpt lat="47.61522" lon="3.74181">
        <ele>86</ele>
        <time>2012-04-01T07:35:54Z</time>
      </trkpt>
      <trkpt lat="47.6152" lon="3.74181">
        <ele>86</ele>
        <time>2012-04-01T07:36:00Z</time>
      </trkpt>
      <trkpt lat="47.61485" lon="3.74171">
        <ele>100</ele>
        <time>2012-04-01T07:36:32Z</time>
      </trkpt>
      <trkpt lat="47.61481" lon="3.7417">
        <ele>101</ele>
        <time>2012-04-01T07:36:39Z</time>
      </trkpt>
      <trkpt lat="47.61473" lon="3.74163">
        <ele>96</ele>
        <time>2012-04-01T07:36:52Z</time>
      </trkpt>
      <trkpt lat="47.61469" lon="3.74168">
        <ele>96</ele>
        <time>2012-04-01T07:36:57Z</time>
      </trkpt>
      <trkpt lat="47.61444" lon="3.74193">
        <ele>109</ele>
        <time>2012-04-01T07:37:28Z</time>
      </trkpt>
      <trkpt lat="47.61439" lon="3.74196">
        <ele>108</ele>
        <time>2012-04-01T07:37:33Z</time>
      </trkpt>
      <trkpt lat="47.61424" lon="3.742">
        <ele>113</ele>
        <time>2012-04-01T07:37:48Z</time>
      </trkpt>
      <trkpt lat="47.61419" lon="3.74207">
        <ele>113</ele>
        <time>2012-04-01T07:37:51Z</time>
      </trkpt>
      <trkpt lat="47.61415" lon="3.7421">
        <ele>118</ele>
        <time>2012-04-01T07:37:59Z</time>
      </trkpt>
      <trkpt lat="47.61406" lon="3.74215">
        <ele>115</ele>
        <time>2012-04-01T07:38:13Z</time>
      </trkpt>
      <trkpt lat="47.614" lon="3.74216">
        <ele>115</ele>
        <time>2012-04-01T07:38:18Z</time>
      </trkpt>
      <trkpt lat="47.61396" lon="3.7422">
        <ele>106</ele>
        <time>2012-04-01T07:38:22Z</time>
      </trkpt>
      <trkpt lat="47.61386" lon="3.74227">
        <ele>109</ele>
        <time>2012-04-01T07:38:36Z</time>
      </trkpt>
      <trkpt lat="47.61381" lon="3.74228">
        <ele>109</ele>
        <time>2012-04-01T07:38:38Z</time>
      </trkpt>
      <trkpt lat="47.61368" lon="3.74235">
        <ele>117</ele>
        <time>2012-04-01T07:38:50Z</time>
      </trkpt>
      <trkpt lat="47.61364" lon="3.7424">
        <ele>117</ele>
        <time>2012-04-01T07:38:53Z</time>
      </trkpt>
      <trkpt lat="47.6135" lon="3.74247">
        <ele>120</ele>
        <time>2012-04-01T07:39:07Z</time>
      </trkpt>
      <trkpt lat="47.61346" lon="3.74249">
        <ele>120</ele>
        <time>2012-04-01T07:39:12Z</time>
      </trkpt>
      <trkpt lat="47.6134" lon="3.74251">
        <ele>121</ele>
        <time>2012-04-01T07:39:15Z</time>
      </trkpt>
      <trkpt lat="47.61335" lon="3.74252">
        <ele>119</ele>
        <time>2012-04-01T07:39:19Z</time>
      </trkpt>
      <trkpt lat="47.6133" lon="3.74253">
        <ele>119</ele>
        <time>2012-04-01T07:39:23Z</time>
      </trkpt>
      <trkpt lat="47.61324" lon="3.74255">
        <ele>118</ele>
        <time>2012-04-01T07:39:27Z</time>
      </trkpt>
      <trkpt lat="47.6132" lon="3.74255">
        <ele>120</ele>
        <time>2012-04-01T07:39:32Z</time>
      </trkpt>
      <trkpt lat="47.61314" lon="3.74255">
        <ele>120</ele>
        <time>2012-04-01T07:39:38Z</time>
      </trkpt>
      <trkpt lat="47.61309" lon="3.74254">
        <ele>123</ele>
        <time>2012-04-01T07:39:41Z</time>
      </trkpt>
      <trkpt lat="47.61304" lon="3.74251">
        <ele>123</ele>
        <time>2012-04-01T07:39:46Z</time>
      </trkpt>
      <trkpt lat="47.61299" lon="3.74252">
        <ele>125</ele>
        <time>2012-04-01T07:39:50Z</time>
      </trkpt>
      <trkpt lat="47.61294" lon="3.74257">
        <ele>124</ele>
        <time>2012-04-01T07:39:53Z</time>
      </trkpt>
      <trkpt lat="47.61279" lon="3.74264">
        <ele>124</ele>
        <time>2012-04-01T07:40:03Z</time>
      </trkpt>
      <trkpt lat="47.6127" lon="3.74268">
        <ele>128</ele>
        <time>2012-04-01T07:40:12Z</time>
      </trkpt>
      <trkpt lat="47.61265" lon="3.74269">
        <ele>128</ele>
        <time>2012-04-01T07:40:18Z</time>
      </trkpt>
      <trkpt lat="47.6126" lon="3.74271">
        <ele>127</ele>
        <time>2012-04-01T07:40:22Z</time>
      </trkpt>
      <trkpt lat="47.61256" lon="3.74274">
        <ele>127</ele>
        <time>2012-04-01T07:40:26Z</time>
      </trkpt>
      <trkpt lat="47.61246" lon="3.74277">
        <ele>124</ele>
        <time>2012-04-01T07:40:37Z</time>
      </trkpt>
      <trkpt lat="47.61241" lon="3.74277">
        <ele>125</ele>
        <time>2012-04-01T07:40:42Z</time>
      </trkpt>
      <trkpt lat="47.61236" lon="3.74278">
        <ele>125</ele>
        <time>2012-04-01T07:40:44Z</time>
      </trkpt>
      <trkpt lat="47.61231" lon="3.74279">
        <ele>126</ele>
        <time>2012-04-01T07:40:47Z</time>
      </trkpt>
      <trkpt lat="47.61226" lon="3.74281">
        <ele>125</ele>
        <time>2012-04-01T07:40:50Z</time>
      </trkpt>
      <trkpt lat="47.61221" lon="3.74283">
        <ele>126</ele>
        <time>2012-04-01T07:40:54Z</time>
      </trkpt>
      <trkpt lat="47.61217" lon="3.74281">
        <ele>129</ele>
        <time>2012-04-01T07:41:01Z</time>
      </trkpt>
      <trkpt lat="47.61211" lon="3.7428">
        <ele>129</ele>
        <time>2012-04-01T07:41:06Z</time>
      </trkpt>
      <trkpt lat="47.61207" lon="3.74281">
        <ele>131</ele>
        <time>2012-04-01T07:41:15Z</time>
      </trkpt>
      <trkpt lat="47.61204" lon="3.74287">
        <ele>131</ele>
        <time>2012-04-01T07:41:19Z</time>
      </trkpt>
      <trkpt lat="47.61207" lon="3.74289">
        <ele>129</ele>
        <time>2012-04-01T07:41:35Z</time>
      </trkpt>
      <trkpt lat="47.61204" lon="3.74297">
        <ele>132</ele>
        <time>2012-04-01T07:41:39Z</time>
      </trkpt>
      <trkpt lat="47.61202" lon="3.74303">
        <ele>132</ele>
        <time>2012-04-01T07:41:42Z</time>
      </trkpt>
      <trkpt lat="47.61201" lon="3.7431">
        <ele>130</ele>
        <time>2012-04-01T07:41:49Z</time>
      </trkpt>
      <trkpt lat="47.61195" lon="3.74322">
        <ele>138</ele>
        <time>2012-04-01T07:41:59Z</time>
      </trkpt>
      <trkpt lat="47.61191" lon="3.74326">
        <ele>136</ele>
        <time>2012-04-01T07:42:05Z</time>
      </trkpt>
      <trkpt lat="47.61189" lon="3.74333">
        <ele>137</ele>
        <time>2012-04-01T07:42:08Z</time>
      </trkpt>
      <trkpt lat="47.61184" lon="3.74345">
        <ele>135</ele>
        <time>2012-04-01T07:42:18Z</time>
      </trkpt>
      <trkpt lat="47.6118" lon="3.74353">
        <ele>136</ele>
        <time>2012-04-01T07:42:21Z</time>
      </trkpt>
      <trkpt lat="47.61177" lon="3.74358">
        <ele>133</ele>
        <time>2012-04-01T07:42:24Z</time>
      </trkpt>
      <trkpt lat="47.61175" lon="3.74365">
        <ele>132</ele>
        <time>2012-04-01T07:42:31Z</time>
      </trkpt>
      <trkpt lat="47.61173" lon="3.74372">
        <ele>136</ele>
        <time>2012-04-01T07:42:34Z</time>
      </trkpt>
      <trkpt lat="47.6117" lon="3.74379">
        <ele>136</ele>
        <time>2012-04-01T07:42:37Z</time>
      </trkpt>
      <trkpt lat="47.61165" lon="3.7439">
        <ele>139</ele>
        <time>2012-04-01T07:42:45Z</time>
      </trkpt>
      <trkpt lat="47.61159" lon="3.74402">
        <ele>136</ele>
        <time>2012-04-01T07:42:58Z</time>
      </trkpt>
      <trkpt lat="47.61153" lon="3.74413">
        <ele>139</ele>
        <time>2012-04-01T07:43:06Z</time>
      </trkpt>
      <trkpt lat="47.61149" lon="3.74418">
        <ele>139</ele>
        <time>2012-04-01T07:43:11Z</time>
      </trkpt>
      <trkpt lat="47.61145" lon="3.74424">
        <ele>140</ele>
        <time>2012-04-01T07:43:14Z</time>
      </trkpt>
      <trkpt lat="47.61139" lon="3.74435">
        <ele>138</ele>
        <time>2012-04-01T07:43:23Z</time>
      </trkpt>
      <trkpt lat="47.61137" lon="3.74443">
        <ele>139</ele>
        <time>2012-04-01T07:43:26Z</time>
      </trkpt>
      <trkpt lat="47.61134" lon="3.74449">
        <ele>139</ele>
        <time>2012-04-01T07:43:30Z</time>
      </trkpt>
      <trkpt lat="47.61131" lon="3.74456">
        <ele>141</ele>
        <time>2012-04-01T07:43:35Z</time>
      </trkpt>
      <trkpt lat="47.61128" lon="3.74461">
        <ele>141</ele>
        <time>2012-04-01T07:43:38Z</time>
      </trkpt>
      <trkpt lat="47.61125" lon="3.74466">
        <ele>143</ele>
        <time>2012-04-01T07:43:43Z</time>
      </trkpt>
      <trkpt lat="47.61122" lon="3.74471">
        <ele>143</ele>
        <time>2012-04-01T07:43:47Z</time>
      </trkpt>
      <trkpt lat="47.61118" lon="3.74484">
        <ele>147</ele>
        <time>2012-04-01T07:43:56Z</time>
      </trkpt>
      <trkpt lat="47.61115" lon="3.7449">
        <ele>147</ele>
        <time>2012-04-01T07:44:02Z</time>
      </trkpt>
      <trkpt lat="47.61097" lon="3.7453">
        <ele>141</ele>
        <time>2012-04-01T07:44:34Z</time>
      </trkpt>
      <trkpt lat="47.61091" lon="3.74542">
        <ele>138</ele>
        <time>2012-04-01T07:44:45Z</time>
      </trkpt>
      <trkpt lat="47.61087" lon="3.74548">
        <ele>141</ele>
        <time>2012-04-01T07:44:50Z</time>
      </trkpt>
      <trkpt lat="47.61084" lon="3.74555">
        <ele>141</ele>
        <time>2012-04-01T07:44:54Z</time>
      </trkpt>
      <trkpt lat="47.61078" lon="3.74571">
        <ele>143</ele>
        <time>2012-04-01T07:45:00Z</time>
      </trkpt>
      <trkpt lat="47.6107" lon="3.74579">
        <ele>143</ele>
        <time>2012-04-01T07:45:08Z</time>
      </trkpt>
      <trkpt lat="47.61069" lon="3.74586">
        <ele>144</ele>
        <time>2012-04-01T07:45:14Z</time>
      </trkpt>
      <trkpt lat="47.61064" lon="3.74598">
        <ele>144</ele>
        <time>2012-04-01T07:45:22Z</time>
      </trkpt>
      <trkpt lat="47.6106" lon="3.74604">
        <ele>143</ele>
        <time>2012-04-01T07:45:25Z</time>
      </trkpt>
      <trkpt lat="47.61058" lon="3.7461">
        <ele>143</ele>
        <time>2012-04-01T07:45:29Z</time>
      </trkpt>
      <trkpt lat="47.61053" lon="3.74632">
        <ele>137</ele>
        <time>2012-04-01T07:45:45Z</time>
      </trkpt>
      <trkpt lat="47.6105" lon="3.7464">
        <ele>138</ele>
        <time>2012-04-01T07:45:48Z</time>
      </trkpt>
      <trkpt lat="47.61044" lon="3.74651">
        <ele>136</ele>
        <time>2012-04-01T07:45:55Z</time>
      </trkpt>
      <trkpt lat="47.61041" lon="3.74656">
        <ele>136</ele>
        <time>2012-04-01T07:45:58Z</time>
      </trkpt>
      <trkpt lat="47.6104" lon="3.74664">
        <ele>139</ele>
        <time>2012-04-01T07:46:02Z</time>
      </trkpt>
      <trkpt lat="47.61037" lon="3.74669">
        <ele>138</ele>
        <time>2012-04-01T07:46:04Z</time>
      </trkpt>
      <trkpt lat="47.61034" lon="3.74675">
        <ele>139</ele>
        <time>2012-04-01T07:46:09Z</time>
      </trkpt>
      <trkpt lat="47.61032" lon="3.74682">
        <ele>132</ele>
        <time>2012-04-01T07:46:20Z</time>
      </trkpt>
      <trkpt lat="47.61028" lon="3.74687">
        <ele>131</ele>
        <time>2012-04-01T07:46:24Z</time>
      </trkpt>
      <trkpt lat="47.61026" lon="3.74694">
        <ele>126</ele>
        <time>2012-04-01T07:46:33Z</time>
      </trkpt>
      <trkpt lat="47.61022" lon="3.74698">
        <ele>127</ele>
        <time>2012-04-01T07:46:40Z</time>
      </trkpt>
      <trkpt lat="47.61018" lon="3.747">
        <ele>129</ele>
        <time>2012-04-01T07:46:51Z</time>
      </trkpt>
      <trkpt lat="47.61017" lon="3.74707">
        <ele>127</ele>
        <time>2012-04-01T07:46:58Z</time>
      </trkpt>
      <trkpt lat="47.61018" lon="3.74709">
        <ele>118</ele>
        <time>2012-04-01T07:47:16Z</time>
      </trkpt>
      <trkpt lat="47.61017" lon="3.74716">
        <ele>110</ele>
        <time>2012-04-01T07:47:26Z</time>
      </trkpt>
      <trkpt lat="47.61013" lon="3.74721">
        <ele>106</ele>
        <time>2012-04-01T07:47:35Z</time>
      </trkpt>
      <trkpt lat="47.61009" lon="3.74725">
        <ele>106</ele>
        <time>2012-04-01T07:47:43Z</time>
      </trkpt>
      <trkpt lat="47.61007" lon="3.74733">
        <ele>102</ele>
        <time>2012-04-01T07:47:47Z</time>
      </trkpt>
      <trkpt lat="47.61005" lon="3.7474">
        <ele>102</ele>
        <time>2012-04-01T07:47:51Z</time>
      </trkpt>
      <trkpt lat="47.61002" lon="3.74745">
        <ele>101</ele>
        <time>2012-04-01T07:47:56Z</time>
      </trkpt>
      <trkpt lat="47.60998" lon="3.74751">
        <ele>101</ele>
        <time>2012-04-01T07:48:01Z</time>
      </trkpt>
      <trkpt lat="47.60996" lon="3.74764">
        <ele>103</ele>
        <time>2012-04-01T07:48:20Z</time>
      </trkpt>
      <trkpt lat="47.60998" lon="3.74759">
        <ele>95</ele>
        <time>2012-04-01T07:48:37Z</time>
      </trkpt>
      <trkpt lat="47.60996" lon="3.7476">
        <ele>126</ele>
        <time>2012-04-01T07:49:30Z</time>
      </trkpt>
      <trkpt lat="47.60994" lon="3.74754">
        <ele>124</ele>
        <time>2012-04-01T07:50:04Z</time>
      </trkpt>
      <trkpt lat="47.60997" lon="3.74754">
        <ele>124</ele>
        <time>2012-04-01T07:50:11Z</time>
      </trkpt>
      <trkpt lat="47.60994" lon="3.74762">
        <ele>125</ele>
        <time>2012-04-01T07:50:14Z</time>
      </trkpt>
      <trkpt lat="47.60981" lon="3.74777">
        <ele>122</ele>
        <time>2012-04-01T07:50:22Z</time>
      </trkpt>
      <trkpt lat="47.60979" lon="3.74785">
        <ele>115</ele>
        <time>2012-04-01T07:50:25Z</time>
      </trkpt>
      <trkpt lat="47.60981" lon="3.74787">
        <ele>114</ele>
        <time>2012-04-01T07:50:53Z</time>
      </trkpt>
      <trkpt lat="47.60977" lon="3.74797">
        <ele>110</ele>
        <time>2012-04-01T07:51:12Z</time>
      </trkpt>
      <trkpt lat="47.60975" lon="3.74803">
        <ele>110</ele>
        <time>2012-04-01T07:51:17Z</time>
      </trkpt>
      <trkpt lat="47.60969" lon="3.74815">
        <ele>107</ele>
        <time>2012-04-01T07:51:40Z</time>
      </trkpt>
      <trkpt lat="47.60962" lon="3.74826">
        <ele>110</ele>
        <time>2012-04-01T07:51:48Z</time>
      </trkpt>
      <trkpt lat="47.6096" lon="3.74832">
        <ele>110</ele>
        <time>2012-04-01T07:51:53Z</time>
      </trkpt>
      <trkpt lat="47.60956" lon="3.74835">
        <ele>116</ele>
        <time>2012-04-01T07:52:03Z</time>
      </trkpt>
      <trkpt lat="47.60953" lon="3.74844">
        <ele>117</ele>
        <time>2012-04-01T07:52:12Z</time>
      </trkpt>
      <trkpt lat="47.60949" lon="3.74847">
        <ele>116</ele>
        <time>2012-04-01T07:52:19Z</time>
      </trkpt>
      <trkpt lat="47.60947" lon="3.74853">
        <ele>116</ele>
        <time>2012-04-01T07:52:26Z</time>
      </trkpt>
      <trkpt lat="47.60948" lon="3.74859">
        <ele>116</ele>
        <time>2012-04-01T07:52:34Z</time>
      </trkpt>
      <trkpt lat="47.60946" lon="3.74864">
        <ele>117</ele>
        <time>2012-04-01T07:52:42Z</time>
      </trkpt>
      <trkpt lat="47.60946" lon="3.74871">
        <ele>118</ele>
        <time>2012-04-01T07:52:49Z</time>
      </trkpt>
      <trkpt lat="47.60943" lon="3.74876">
        <ele>120</ele>
        <time>2012-04-01T07:52:56Z</time>
      </trkpt>
      <trkpt lat="47.60936" lon="3.74881">
        <ele>123</ele>
        <time>2012-04-01T07:53:07Z</time>
      </trkpt>
      <trkpt lat="47.60934" lon="3.74889">
        <ele>127</ele>
        <time>2012-04-01T07:53:21Z</time>
      </trkpt>
      <trkpt lat="47.60932" lon="3.74895">
        <ele>126</ele>
        <time>2012-04-01T07:53:27Z</time>
      </trkpt>
      <trkpt lat="47.60928" lon="3.74901">
        <ele>128</ele>
        <time>2012-04-01T07:53:31Z</time>
      </trkpt>
      <trkpt lat="47.60928" lon="3.74908">
        <ele>128</ele>
        <time>2012-04-01T07:53:36Z</time>
      </trkpt>
      <trkpt lat="47.60925" lon="3.74914">
        <ele>128</ele>
        <time>2012-04-01T07:53:42Z</time>
      </trkpt>
      <trkpt lat="47.6092" lon="3.74917">
        <ele>130</ele>
        <time>2012-04-01T07:53:46Z</time>
      </trkpt>
      <trkpt lat="47.60916" lon="3.74918">
        <ele>134</ele>
        <time>2012-04-01T07:53:52Z</time>
      </trkpt>
      <trkpt lat="47.60914" lon="3.74927">
        <ele>134</ele>
        <time>2012-04-01T07:54:00Z</time>
      </trkpt>
      <trkpt lat="47.60909" lon="3.74939">
        <ele>138</ele>
        <time>2012-04-01T07:54:06Z</time>
      </trkpt>
      <trkpt lat="47.60905" lon="3.74944">
        <ele>137</ele>
        <time>2012-04-01T07:54:09Z</time>
      </trkpt>
      <trkpt lat="47.60901" lon="3.74946">
        <ele>140</ele>
        <time>2012-04-01T07:54:17Z</time>
      </trkpt>
      <trkpt lat="47.60883" lon="3.74979">
        <ele>129</ele>
        <time>2012-04-01T07:54:47Z</time>
      </trkpt>
      <trkpt lat="47.6088" lon="3.74984">
        <ele>129</ele>
        <time>2012-04-01T07:54:50Z</time>
      </trkpt>
      <trkpt lat="47.60877" lon="3.7499">
        <ele>130</ele>
        <time>2012-04-01T07:54:54Z</time>
      </trkpt>
      <trkpt lat="47.60873" lon="3.74999">
        <ele>130</ele>
        <time>2012-04-01T07:54:56Z</time>
      </trkpt>
      <trkpt lat="47.60861" lon="3.75016">
        <ele>133</ele>
        <time>2012-04-01T07:55:16Z</time>
      </trkpt>
      <trkpt lat="47.60859" lon="3.75023">
        <ele>127</ele>
        <time>2012-04-01T07:55:20Z</time>
      </trkpt>
      <trkpt lat="47.60857" lon="3.7503">
        <ele>132</ele>
        <time>2012-04-01T07:55:25Z</time>
      </trkpt>
      <trkpt lat="47.60843" lon="3.75051">
        <ele>126</ele>
        <time>2012-04-01T07:55:48Z</time>
      </trkpt>
      <trkpt lat="47.60838" lon="3.75051">
        <ele>120</ele>
        <time>2012-04-01T07:55:54Z</time>
      </trkpt>
      <trkpt lat="47.60832" lon="3.7505">
        <ele>123</ele>
        <time>2012-04-01T07:56:00Z</time>
      </trkpt>
      <trkpt lat="47.60818" lon="3.7505">
        <ele>116</ele>
        <time>2012-04-01T07:56:18Z</time>
      </trkpt>
      <trkpt lat="47.60814" lon="3.75054">
        <ele>114</ele>
        <time>2012-04-01T07:56:24Z</time>
      </trkpt>
      <trkpt lat="47.6081" lon="3.75059">
        <ele>116</ele>
        <time>2012-04-01T07:56:30Z</time>
      </trkpt>
      <trkpt lat="47.60802" lon="3.75067">
        <ele>114</ele>
        <time>2012-04-01T07:56:41Z</time>
      </trkpt>
      <trkpt lat="47.60798" lon="3.75072">
        <ele>114</ele>
        <time>2012-04-01T07:56:46Z</time>
      </trkpt>
      <trkpt lat="47.60786" lon="3.7509">
        <ele>103</ele>
        <time>2012-04-01T07:57:06Z</time>
      </trkpt>
      <trkpt lat="47.6078" lon="3.75104">
        <ele>107</ele>
        <time>2012-04-01T07:57:15Z</time>
      </trkpt>
      <trkpt lat="47.6078" lon="3.75111">
        <ele>102</ele>
        <time>2012-04-01T07:57:19Z</time>
      </trkpt>
      <trkpt lat="47.60773" lon="3.75122">
        <ele>98</ele>
        <time>2012-04-01T07:57:32Z</time>
      </trkpt>
      <trkpt lat="47.60776" lon="3.75128">
        <ele>96</ele>
        <time>2012-04-01T07:57:38Z</time>
      </trkpt>
      <trkpt lat="47.60776" lon="3.75135">
        <ele>96</ele>
        <time>2012-04-01T07:57:44Z</time>
      </trkpt>
      <trkpt lat="47.60769" lon="3.75147">
        <ele>96</ele>
        <time>2012-04-01T07:57:53Z</time>
      </trkpt>
      <trkpt lat="47.60766" lon="3.75152">
        <ele>95</ele>
        <time>2012-04-01T07:57:58Z</time>
      </trkpt>
      <trkpt lat="47.60764" lon="3.75159">
        <ele>97</ele>
        <time>2012-04-01T07:58:03Z</time>
      </trkpt>
      <trkpt lat="47.60763" lon="3.75166">
        <ele>96</ele>
        <time>2012-04-01T07:58:06Z</time>
      </trkpt>
      <trkpt lat="47.60762" lon="3.75173">
        <ele>97</ele>
        <time>2012-04-01T07:58:10Z</time>
      </trkpt>
      <trkpt lat="47.60763" lon="3.7518">
        <ele>96</ele>
        <time>2012-04-01T07:58:15Z</time>
      </trkpt>
      <trkpt lat="47.60766" lon="3.75186">
        <ele>96</ele>
        <time>2012-04-01T07:58:18Z</time>
      </trkpt>
      <trkpt lat="47.60766" lon="3.75194">
        <ele>95</ele>
        <time>2012-04-01T07:58:21Z</time>
      </trkpt>
      <trkpt lat="47.60764" lon="3.752">
        <ele>92</ele>
        <time>2012-04-01T07:58:26Z</time>
      </trkpt>
      <trkpt lat="47.60763" lon="3.75208">
        <ele>94</ele>
        <time>2012-04-01T07:58:32Z</time>
      </trkpt>
      <trkpt lat="47.60761" lon="3.75214">
        <ele>94</ele>
        <time>2012-04-01T07:58:36Z</time>
      </trkpt>
      <trkpt lat="47.6076" lon="3.75221">
        <ele>92</ele>
        <time>2012-04-01T07:58:41Z</time>
      </trkpt>
      <trkpt lat="47.60757" lon="3.75227">
        <ele>92</ele>
        <time>2012-04-01T07:58:43Z</time>
      </trkpt>
      <trkpt lat="47.60749" lon="3.7524">
        <ele>87</ele>
        <time>2012-04-01T07:58:50Z</time>
      </trkpt>
      <trkpt lat="47.60744" lon="3.75236">
        <ele>86</ele>
        <time>2012-04-01T07:58:55Z</time>
      </trkpt>
      <trkpt lat="47.6074" lon="3.75232">
        <ele>87</ele>
        <time>2012-04-01T07:58:59Z</time>
      </trkpt>
      <trkpt lat="47.60731" lon="3.7523">
        <ele>80</ele>
        <time>2012-04-01T07:59:10Z</time>
      </trkpt>
      <trkpt lat="47.60726" lon="3.75231">
        <ele>79</ele>
        <time>2012-04-01T07:59:13Z</time>
      </trkpt>
      <trkpt lat="47.60716" lon="3.75233">
        <ele>82</ele>
        <time>2012-04-01T07:59:20Z</time>
      </trkpt>
      <trkpt lat="47.60712" lon="3.75236">
        <ele>82</ele>
        <time>2012-04-01T07:59:23Z</time>
      </trkpt>
      <trkpt lat="47.60707" lon="3.75239">
        <ele>80</ele>
        <time>2012-04-01T07:59:27Z</time>
      </trkpt>
      <trkpt lat="47.60705" lon="3.75244">
        <ele>78</ele>
        <time>2012-04-01T07:59:34Z</time>
      </trkpt>
      <trkpt lat="47.60706" lon="3.75251">
        <ele>76</ele>
        <time>2012-04-01T07:59:39Z</time>
      </trkpt>
      <trkpt lat="47.60706" lon="3.75259">
        <ele>76</ele>
        <time>2012-04-01T07:59:44Z</time>
      </trkpt>
      <trkpt lat="47.60706" lon="3.75262">
        <ele>79</ele>
        <time>2012-04-01T08:00:01Z</time>
      </trkpt>
      <trkpt lat="47.60707" lon="3.75269">
        <ele>80</ele>
        <time>2012-04-01T08:00:18Z</time>
      </trkpt>
      <trkpt lat="47.6071" lon="3.75276">
        <ele>76</ele>
        <time>2012-04-01T08:00:22Z</time>
      </trkpt>
      <trkpt lat="47.60713" lon="3.75281">
        <ele>77</ele>
        <time>2012-04-01T08:00:27Z</time>
      </trkpt>
      <trkpt lat="47.60715" lon="3.75288">
        <ele>77</ele>
        <time>2012-04-01T08:00:31Z</time>
      </trkpt>
      <trkpt lat="47.60714" lon="3.75295">
        <ele>76</ele>
        <time>2012-04-01T08:00:34Z</time>
      </trkpt>
      <trkpt lat="47.60715" lon="3.75303">
        <ele>77</ele>
        <time>2012-04-01T08:00:39Z</time>
      </trkpt>
      <trkpt lat="47.60718" lon="3.7531">
        <ele>77</ele>
        <time>2012-04-01T08:00:42Z</time>
      </trkpt>
      <trkpt lat="47.60724" lon="3.75322">
        <ele>75</ele>
        <time>2012-04-01T08:00:48Z</time>
      </trkpt>
      <trkpt lat="47.60728" lon="3.75325">
        <ele>76</ele>
        <time>2012-04-01T08:00:51Z</time>
      </trkpt>
      <trkpt lat="47.60729" lon="3.75333">
        <ele>73</ele>
        <time>2012-04-01T08:00:56Z</time>
      </trkpt>
      <trkpt lat="47.60728" lon="3.75339">
        <ele>72</ele>
        <time>2012-04-01T08:01:02Z</time>
      </trkpt>
      <trkpt lat="47.60723" lon="3.75333">
        <ele>64</ele>
        <time>2012-04-01T08:01:14Z</time>
      </trkpt>
      <trkpt lat="47.60719" lon="3.75338">
        <ele>64</ele>
        <time>2012-04-01T08:01:19Z</time>
      </trkpt>
      <trkpt lat="47.60719" lon="3.75332">
        <ele>74</ele>
        <time>2012-04-01T08:01:30Z</time>
      </trkpt>
      <trkpt lat="47.60724" lon="3.75331">
        <ele>73</ele>
        <time>2012-04-01T08:01:38Z</time>
      </trkpt>
      <trkpt lat="47.60724" lon="3.75324">
        <ele>75</ele>
        <time>2012-04-01T08:01:46Z</time>
      </trkpt>
      <trkpt lat="47.60725" lon="3.75325">
        <ele>81</ele>
        <time>2012-04-01T08:02:08Z</time>
      </trkpt>
      <trkpt lat="47.60723" lon="3.75331">
        <ele>82</ele>
        <time>2012-04-01T08:02:14Z</time>
      </trkpt>
      <trkpt lat="47.60719" lon="3.75337">
        <ele>80</ele>
        <time>2012-04-01T08:04:07Z</time>
      </trkpt>
      <trkpt lat="47.60719" lon="3.75342">
        <ele>79</ele>
        <time>2012-04-01T08:04:47Z</time>
      </trkpt>
      <trkpt lat="47.60715" lon="3.75347">
        <ele>80</ele>
        <time>2012-04-01T08:04:50Z</time>
      </trkpt>
      <trkpt lat="47.6071" lon="3.75352">
        <ele>79</ele>
        <time>2012-04-01T08:04:53Z</time>
      </trkpt>
      <trkpt lat="47.60701" lon="3.75361">
        <ele>84</ele>
        <time>2012-04-01T08:04:59Z</time>
      </trkpt>
      <trkpt lat="47.60694" lon="3.75368">
        <ele>81</ele>
        <time>2012-04-01T08:05:11Z</time>
      </trkpt>
      <trkpt lat="47.60685" lon="3.75376">
        <ele>84</ele>
        <time>2012-04-01T08:05:18Z</time>
      </trkpt>
      <trkpt lat="47.60675" lon="3.75383">
        <ele>81</ele>
        <time>2012-04-01T08:05:26Z</time>
      </trkpt>
      <trkpt lat="47.60671" lon="3.75386">
        <ele>83</ele>
        <time>2012-04-01T08:05:30Z</time>
      </trkpt>
      <trkpt lat="47.60667" lon="3.75391">
        <ele>80</ele>
        <time>2012-04-01T08:05:33Z</time>
      </trkpt>
      <trkpt lat="47.60662" lon="3.75394">
        <ele>80</ele>
        <time>2012-04-01T08:05:38Z</time>
      </trkpt>
      <trkpt lat="47.60657" lon="3.75397">
        <ele>79</ele>
        <time>2012-04-01T08:05:43Z</time>
      </trkpt>
      <trkpt lat="47.60653" lon="3.75401">
        <ele>82</ele>
        <time>2012-04-01T08:05:48Z</time>
      </trkpt>
      <trkpt lat="47.60648" lon="3.75403">
        <ele>81</ele>
        <time>2012-04-01T08:05:51Z</time>
      </trkpt>
      <trkpt lat="47.60644" lon="3.75407">
        <ele>81</ele>
        <time>2012-04-01T08:05:55Z</time>
      </trkpt>
      <trkpt lat="47.60636" lon="3.75415">
        <ele>83</ele>
        <time>2012-04-01T08:06:00Z</time>
      </trkpt>
      <trkpt lat="47.60627" lon="3.75422">
        <ele>77</ele>
        <time>2012-04-01T08:06:08Z</time>
      </trkpt>
      <trkpt lat="47.60614" lon="3.75431">
        <ele>83</ele>
        <time>2012-04-01T08:06:18Z</time>
      </trkpt>
      <trkpt lat="47.60609" lon="3.75436">
        <ele>83</ele>
        <time>2012-04-01T08:06:23Z</time>
      </trkpt>
      <trkpt lat="47.60604" lon="3.75436">
        <ele>81</ele>
        <time>2012-04-01T08:06:28Z</time>
      </trkpt>
      <trkpt lat="47.60599" lon="3.75437">
        <ele>82</ele>
        <time>2012-04-01T08:06:32Z</time>
      </trkpt>
      <trkpt lat="47.60595" lon="3.75441">
        <ele>82</ele>
        <time>2012-04-01T08:06:35Z</time>
      </trkpt>
      <trkpt lat="47.60591" lon="3.75446">
        <ele>80</ele>
        <time>2012-04-01T08:06:40Z</time>
      </trkpt>
      <trkpt lat="47.60587" lon="3.75449">
        <ele>82</ele>
        <time>2012-04-01T08:06:43Z</time>
      </trkpt>
      <trkpt lat="47.60583" lon="3.75453">
        <ele>82</ele>
        <time>2012-04-01T08:06:46Z</time>
      </trkpt>
      <trkpt lat="47.60579" lon="3.75456">
        <ele>83</ele>
        <time>2012-04-01T08:06:50Z</time>
      </trkpt>
      <trkpt lat="47.60574" lon="3.7546">
        <ele>83</ele>
        <time>2012-04-01T08:06:54Z</time>
      </trkpt>
      <trkpt lat="47.6057" lon="3.75464">
        <ele>82</ele>
        <time>2012-04-01T08:06:58Z</time>
      </trkpt>
      <trkpt lat="47.60566" lon="3.75467">
        <ele>82</ele>
        <time>2012-04-01T08:07:01Z</time>
      </trkpt>
      <trkpt lat="47.60552" lon="3.75476">
        <ele>78</ele>
        <time>2012-04-01T08:07:15Z</time>
      </trkpt>
      <trkpt lat="47.60548" lon="3.75479">
        <ele>79</ele>
        <time>2012-04-01T08:07:20Z</time>
      </trkpt>
      <trkpt lat="47.60544" lon="3.7548">
        <ele>78</ele>
        <time>2012-04-01T08:07:23Z</time>
      </trkpt>
      <trkpt lat="47.60534" lon="3.75484">
        <ele>80</ele>
        <time>2012-04-01T08:07:30Z</time>
      </trkpt>
      <trkpt lat="47.60524" lon="3.75488">
        <ele>80</ele>
        <time>2012-04-01T08:07:36Z</time>
      </trkpt>
      <trkpt lat="47.60519" lon="3.75489">
        <ele>79</ele>
        <time>2012-04-01T08:07:39Z</time>
      </trkpt>
      <trkpt lat="47.60504" lon="3.75489">
        <ele>82</ele>
        <time>2012-04-01T08:07:52Z</time>
      </trkpt>
      <trkpt lat="47.60499" lon="3.75486">
        <ele>81</ele>
        <time>2012-04-01T08:07:56Z</time>
      </trkpt>
      <trkpt lat="47.60494" lon="3.75482">
        <ele>83</ele>
        <time>2012-04-01T08:08:00Z</time>
      </trkpt>
      <trkpt lat="47.6049" lon="3.75478">
        <ele>83</ele>
        <time>2012-04-01T08:08:04Z</time>
      </trkpt>
      <trkpt lat="47.60484" lon="3.75476">
        <ele>84</ele>
        <time>2012-04-01T08:08:11Z</time>
      </trkpt>
      <trkpt lat="47.60479" lon="3.75476">
        <ele>84</ele>
        <time>2012-04-01T08:08:15Z</time>
      </trkpt>
      <trkpt lat="47.60469" lon="3.75476">
        <ele>86</ele>
        <time>2012-04-01T08:08:24Z</time>
      </trkpt>
      <trkpt lat="47.60459" lon="3.75475">
        <ele>86</ele>
        <time>2012-04-01T08:08:32Z</time>
      </trkpt>
      <trkpt lat="47.60456" lon="3.75471">
        <ele>85</ele>
        <time>2012-04-01T08:08:36Z</time>
      </trkpt>
      <trkpt lat="47.60453" lon="3.75466">
        <ele>84</ele>
        <time>2012-04-01T08:08:39Z</time>
      </trkpt>
      <trkpt lat="47.60445" lon="3.75447">
        <ele>92</ele>
        <time>2012-04-01T08:08:52Z</time>
      </trkpt>
      <trkpt lat="47.60441" lon="3.75441">
        <ele>92</ele>
        <time>2012-04-01T08:08:55Z</time>
      </trkpt>
      <trkpt lat="47.6044" lon="3.75434">
        <ele>91</ele>
        <time>2012-04-01T08:08:58Z</time>
      </trkpt>
      <trkpt lat="47.60441" lon="3.75421">
        <ele>89</ele>
        <time>2012-04-01T08:09:12Z</time>
      </trkpt>
      <trkpt lat="47.60443" lon="3.7542">
        <ele>84</ele>
        <time>2012-04-01T08:10:45Z</time>
      </trkpt>
      <trkpt lat="47.60445" lon="3.75416">
        <ele>86</ele>
        <time>2012-04-01T08:10:59Z</time>
      </trkpt>
      <trkpt lat="47.60442" lon="3.754">
        <ele>83</ele>
        <time>2012-04-01T08:11:11Z</time>
      </trkpt>
      <trkpt lat="47.60441" lon="3.75392">
        <ele>84</ele>
        <time>2012-04-01T08:11:15Z</time>
      </trkpt>
      <trkpt lat="47.60442" lon="3.75388">
        <ele>82</ele>
        <time>2012-04-01T08:11:26Z</time>
      </trkpt>
      <trkpt lat="47.60441" lon="3.75379">
        <ele>82</ele>
        <time>2012-04-01T08:11:36Z</time>
      </trkpt>
      <trkpt lat="47.60439" lon="3.75372">
        <ele>85</ele>
        <time>2012-04-01T08:11:39Z</time>
      </trkpt>
      <trkpt lat="47.60438" lon="3.75365">
        <ele>84</ele>
        <time>2012-04-01T08:11:44Z</time>
      </trkpt>
      <trkpt lat="47.60437" lon="3.75358">
        <ele>84</ele>
        <time>2012-04-01T08:11:48Z</time>
      </trkpt>
      <trkpt lat="47.60438" lon="3.75349">
        <ele>79</ele>
        <time>2012-04-01T08:12:00Z</time>
      </trkpt>
      <trkpt lat="47.60437" lon="3.75342">
        <ele>81</ele>
        <time>2012-04-01T08:12:04Z</time>
      </trkpt>
      <trkpt lat="47.60436" lon="3.75333">
        <ele>81</ele>
        <time>2012-04-01T08:12:08Z</time>
      </trkpt>
      <trkpt lat="47.60434" lon="3.75326">
        <ele>80</ele>
        <time>2012-04-01T08:12:13Z</time>
      </trkpt>
      <trkpt lat="47.60431" lon="3.75312">
        <ele>83</ele>
        <time>2012-04-01T08:12:23Z</time>
      </trkpt>
      <trkpt lat="47.60425" lon="3.75299">
        <ele>81</ele>
        <time>2012-04-01T08:12:31Z</time>
      </trkpt>
      <trkpt lat="47.60424" lon="3.75292">
        <ele>84</ele>
        <time>2012-04-01T08:12:36Z</time>
      </trkpt>
      <trkpt lat="47.60424" lon="3.75276">
        <ele>88</ele>
        <time>2012-04-01T08:12:44Z</time>
      </trkpt>
      <trkpt lat="47.60421" lon="3.7527">
        <ele>89</ele>
        <time>2012-04-01T08:12:51Z</time>
      </trkpt>
      <trkpt lat="47.60419" lon="3.75263">
        <ele>89</ele>
        <time>2012-04-01T08:12:56Z</time>
      </trkpt>
      <trkpt lat="47.60416" lon="3.75258">
        <ele>90</ele>
        <time>2012-04-01T08:13:00Z</time>
      </trkpt>
      <trkpt lat="47.60411" lon="3.75252">
        <ele>89</ele>
        <time>2012-04-01T08:13:04Z</time>
      </trkpt>
      <trkpt lat="47.60408" lon="3.75246">
        <ele>90</ele>
        <time>2012-04-01T08:13:08Z</time>
      </trkpt>
      <trkpt lat="47.60404" lon="3.75234">
        <ele>86</ele>
        <time>2012-04-01T08:13:18Z</time>
      </trkpt>
      <trkpt lat="47.60402" lon="3.75228">
        <ele>88</ele>
        <time>2012-04-01T08:13:24Z</time>
      </trkpt>
      <trkpt lat="47.60395" lon="3.75209">
        <ele>88</ele>
        <time>2012-04-01T08:13:38Z</time>
      </trkpt>
      <trkpt lat="47.60392" lon="3.75203">
        <ele>89</ele>
        <time>2012-04-01T08:13:43Z</time>
      </trkpt>
      <trkpt lat="47.60388" lon="3.75195">
        <ele>89</ele>
        <time>2012-04-01T08:13:47Z</time>
      </trkpt>
      <trkpt lat="47.60384" lon="3.75191">
        <ele>88</ele>
        <time>2012-04-01T08:13:48Z</time>
      </trkpt>
      <trkpt lat="47.60379" lon="3.75187">
        <ele>88</ele>
        <time>2012-04-01T08:13:50Z</time>
      </trkpt>
      <trkpt lat="47.60375" lon="3.75181">
        <ele>87</ele>
        <time>2012-04-01T08:13:54Z</time>
      </trkpt>
      <trkpt lat="47.60376" lon="3.75174">
        <ele>87</ele>
        <time>2012-04-01T08:14:00Z</time>
      </trkpt>
      <trkpt lat="47.60375" lon="3.75167">
        <ele>88</ele>
        <time>2012-04-01T08:14:04Z</time>
      </trkpt>
      <trkpt lat="47.60373" lon="3.7516">
        <ele>93</ele>
        <time>2012-04-01T08:14:10Z</time>
      </trkpt>
      <trkpt lat="47.60374" lon="3.75154">
        <ele>91</ele>
        <time>2012-04-01T08:14:16Z</time>
      </trkpt>
      <trkpt lat="47.60371" lon="3.75148">
        <ele>92</ele>
        <time>2012-04-01T08:14:20Z</time>
      </trkpt>
      <trkpt lat="47.60367" lon="3.75143">
        <ele>90</ele>
        <time>2012-04-01T08:14:26Z</time>
      </trkpt>
      <trkpt lat="47.60356" lon="3.75125">
        <ele>93</ele>
        <time>2012-04-01T08:14:35Z</time>
      </trkpt>
      <trkpt lat="47.60352" lon="3.75118">
        <ele>93</ele>
        <time>2012-04-01T08:14:38Z</time>
      </trkpt>
      <trkpt lat="47.60348" lon="3.75103">
        <ele>90</ele>
        <time>2012-04-01T08:14:48Z</time>
      </trkpt>
      <trkpt lat="47.60336" lon="3.75079">
        <ele>94</ele>
        <time>2012-04-01T08:15:03Z</time>
      </trkpt>
      <trkpt lat="47.60331" lon="3.75077">
        <ele>101</ele>
        <time>2012-04-01T08:15:08Z</time>
      </trkpt>
      <trkpt lat="47.60328" lon="3.75071">
        <ele>99</ele>
        <time>2012-04-01T08:15:15Z</time>
      </trkpt>
      <trkpt lat="47.60326" lon="3.75063">
        <ele>97</ele>
        <time>2012-04-01T08:15:20Z</time>
      </trkpt>
      <trkpt lat="47.60322" lon="3.75049">
        <ele>100</ele>
        <time>2012-04-01T08:15:26Z</time>
      </trkpt>
      <trkpt lat="47.60318" lon="3.75044">
        <ele>94</ele>
        <time>2012-04-01T08:15:28Z</time>
      </trkpt>
      <trkpt lat="47.60313" lon="3.75039">
        <ele>94</ele>
        <time>2012-04-01T08:15:32Z</time>
      </trkpt>
      <trkpt lat="47.60309" lon="3.75032">
        <ele>93</ele>
        <time>2012-04-01T08:15:35Z</time>
      </trkpt>
      <trkpt lat="47.60302" lon="3.75021">
        <ele>95</ele>
        <time>2012-04-01T08:15:40Z</time>
      </trkpt>
      <trkpt lat="47.60299" lon="3.75016">
        <ele>94</ele>
        <time>2012-04-01T08:15:44Z</time>
      </trkpt>
      <trkpt lat="47.60295" lon="3.74996">
        <ele>94</ele>
        <time>2012-04-01T08:16:00Z</time>
      </trkpt>
      <trkpt lat="47.60293" lon="3.74989">
        <ele>97</ele>
        <time>2012-04-01T08:16:04Z</time>
      </trkpt>
      <trkpt lat="47.6029" lon="3.74983">
        <ele>97</ele>
        <time>2012-04-01T08:16:07Z</time>
      </trkpt>
      <trkpt lat="47.60282" lon="3.74972">
        <ele>100</ele>
        <time>2012-04-01T08:16:19Z</time>
      </trkpt>
      <trkpt lat="47.60279" lon="3.74967">
        <ele>98</ele>
        <time>2012-04-01T08:16:22Z</time>
      </trkpt>
      <trkpt lat="47.60277" lon="3.7496">
        <ele>98</ele>
        <time>2012-04-01T08:16:24Z</time>
      </trkpt>
      <trkpt lat="47.60272" lon="3.74956">
        <ele>100</ele>
        <time>2012-04-01T08:16:28Z</time>
      </trkpt>
      <trkpt lat="47.60265" lon="3.74936">
        <ele>105</ele>
        <time>2012-04-01T08:16:43Z</time>
      </trkpt>
      <trkpt lat="47.60262" lon="3.7493">
        <ele>105</ele>
        <time>2012-04-01T08:16:46Z</time>
      </trkpt>
      <trkpt lat="47.6026" lon="3.74923">
        <ele>106</ele>
        <time>2012-04-01T08:16:49Z</time>
      </trkpt>
      <trkpt lat="47.6026" lon="3.74909">
        <ele>104</ele>
        <time>2012-04-01T08:16:58Z</time>
      </trkpt>
      <trkpt lat="47.60259" lon="3.74902">
        <ele>107</ele>
        <time>2012-04-01T08:17:02Z</time>
      </trkpt>
      <trkpt lat="47.60255" lon="3.74897">
        <ele>107</ele>
        <time>2012-04-01T08:17:04Z</time>
      </trkpt>
      <trkpt lat="47.60251" lon="3.74893">
        <ele>109</ele>
        <time>2012-04-01T08:17:09Z</time>
      </trkpt>
      <trkpt lat="47.60238" lon="3.74867">
        <ele>122</ele>
        <time>2012-04-01T08:17:28Z</time>
      </trkpt>
      <trkpt lat="47.60237" lon="3.7486">
        <ele>118</ele>
        <time>2012-04-01T08:17:33Z</time>
      </trkpt>
      <trkpt lat="47.60237" lon="3.74854">
        <ele>119</ele>
        <time>2012-04-01T08:17:39Z</time>
      </trkpt>
      <trkpt lat="47.60242" lon="3.74856">
        <ele>116</ele>
        <time>2012-04-01T08:17:42Z</time>
      </trkpt>
      <trkpt lat="47.60244" lon="3.7486">
        <ele>111</ele>
        <time>2012-04-01T08:17:50Z</time>
      </trkpt>
      <trkpt lat="47.6024" lon="3.74862">
        <ele>112</ele>
        <time>2012-04-01T08:18:04Z</time>
      </trkpt>
      <trkpt lat="47.60237" lon="3.74857">
        <ele>112</ele>
        <time>2012-04-01T08:19:56Z</time>
      </trkpt>
      <trkpt lat="47.60238" lon="3.74853">
        <ele>108</ele>
        <time>2012-04-01T08:20:09Z</time>
      </trkpt>
      <trkpt lat="47.60235" lon="3.74851">
        <ele>109</ele>
        <time>2012-04-01T08:20:20Z</time>
      </trkpt>
      <trkpt lat="47.60237" lon="3.74845">
        <ele>110</ele>
        <time>2012-04-01T08:20:35Z</time>
      </trkpt>
      <trkpt lat="47.60233" lon="3.74843">
        <ele>113</ele>
        <time>2012-04-01T08:21:10Z</time>
      </trkpt>
      <trkpt lat="47.60228" lon="3.74841">
        <ele>115</ele>
        <time>2012-04-01T08:21:24Z</time>
      </trkpt>
      <trkpt lat="47.60223" lon="3.74846">
        <ele>112</ele>
        <time>2012-04-01T08:21:31Z</time>
      </trkpt>
      <trkpt lat="47.60214" lon="3.74861">
        <ele>112</ele>
        <time>2012-04-01T08:21:36Z</time>
      </trkpt>
      <trkpt lat="47.60212" lon="3.74867">
        <ele>110</ele>
        <time>2012-04-01T08:21:41Z</time>
      </trkpt>
      <trkpt lat="47.60202" lon="3.74871">
        <ele>105</ele>
        <time>2012-04-01T08:21:55Z</time>
      </trkpt>
      <trkpt lat="47.60198" lon="3.74876">
        <ele>104</ele>
        <time>2012-04-01T08:21:58Z</time>
      </trkpt>
      <trkpt lat="47.60194" lon="3.7488">
        <ele>105</ele>
        <time>2012-04-01T08:22:04Z</time>
      </trkpt>
      <trkpt lat="47.60189" lon="3.74886">
        <ele>105</ele>
        <time>2012-04-01T08:22:08Z</time>
      </trkpt>
      <trkpt lat="47.60185" lon="3.7489">
        <ele>107</ele>
        <time>2012-04-01T08:22:11Z</time>
      </trkpt>
      <trkpt lat="47.6018" lon="3.74894">
        <ele>107</ele>
        <time>2012-04-01T08:22:16Z</time>
      </trkpt>
      <trkpt lat="47.60175" lon="3.74898">
        <ele>110</ele>
        <time>2012-04-01T08:22:20Z</time>
      </trkpt>
      <trkpt lat="47.60171" lon="3.74902">
        <ele>110</ele>
        <time>2012-04-01T08:22:23Z</time>
      </trkpt>
      <trkpt lat="47.60166" lon="3.74907">
        <ele>109</ele>
        <time>2012-04-01T08:22:28Z</time>
      </trkpt>
      <trkpt lat="47.60161" lon="3.7491">
        <ele>111</ele>
        <time>2012-04-01T08:22:32Z</time>
      </trkpt>
      <trkpt lat="47.60156" lon="3.7491">
        <ele>111</ele>
        <time>2012-04-01T08:22:36Z</time>
      </trkpt>
      <trkpt lat="47.60152" lon="3.74906">
        <ele>112</ele>
        <time>2012-04-01T08:22:40Z</time>
      </trkpt>
      <trkpt lat="47.60147" lon="3.74906">
        <ele>112</ele>
        <time>2012-04-01T08:22:44Z</time>
      </trkpt>
      <trkpt lat="47.60145" lon="3.74913">
        <ele>112</ele>
        <time>2012-04-01T08:22:48Z</time>
      </trkpt>
      <trkpt lat="47.60142" lon="3.74919">
        <ele>112</ele>
        <time>2012-04-01T08:22:52Z</time>
      </trkpt>
      <trkpt lat="47.60133" lon="3.74928">
        <ele>116</ele>
        <time>2012-04-01T08:22:58Z</time>
      </trkpt>
      <trkpt lat="47.60129" lon="3.7493">
        <ele>114</ele>
        <time>2012-04-01T08:23:02Z</time>
      </trkpt>
      <trkpt lat="47.60123" lon="3.7493">
        <ele>116</ele>
        <time>2012-04-01T08:23:06Z</time>
      </trkpt>
      <trkpt lat="47.60119" lon="3.74931">
        <ele>114</ele>
        <time>2012-04-01T08:23:09Z</time>
      </trkpt>
      <trkpt lat="47.60109" lon="3.74938">
        <ele>114</ele>
        <time>2012-04-01T08:23:16Z</time>
      </trkpt>
      <trkpt lat="47.60104" lon="3.74941">
        <ele>115</ele>
        <time>2012-04-01T08:23:20Z</time>
      </trkpt>
      <trkpt lat="47.60099" lon="3.74946">
        <ele>114</ele>
        <time>2012-04-01T08:23:24Z</time>
      </trkpt>
      <trkpt lat="47.60094" lon="3.7495">
        <ele>114</ele>
        <time>2012-04-01T08:23:29Z</time>
      </trkpt>
      <trkpt lat="47.6009" lon="3.74953">
        <ele>115</ele>
        <time>2012-04-01T08:23:34Z</time>
      </trkpt>
      <trkpt lat="47.60085" lon="3.74955">
        <ele>115</ele>
        <time>2012-04-01T08:23:37Z</time>
      </trkpt>
      <trkpt lat="47.6008" lon="3.74956">
        <ele>112</ele>
        <time>2012-04-01T08:23:42Z</time>
      </trkpt>
      <trkpt lat="47.60075" lon="3.74957">
        <ele>112</ele>
        <time>2012-04-01T08:23:47Z</time>
      </trkpt>
      <trkpt lat="47.6007" lon="3.74961">
        <ele>111</ele>
        <time>2012-04-01T08:23:51Z</time>
      </trkpt>
      <trkpt lat="47.60064" lon="3.74959">
        <ele>110</ele>
        <time>2012-04-01T08:23:56Z</time>
      </trkpt>
      <trkpt lat="47.6006" lon="3.74961">
        <ele>109</ele>
        <time>2012-04-01T08:24:01Z</time>
      </trkpt>
      <trkpt lat="47.60055" lon="3.74965">
        <ele>110</ele>
        <time>2012-04-01T08:24:07Z</time>
      </trkpt>
      <trkpt lat="47.60052" lon="3.74972">
        <ele>110</ele>
        <time>2012-04-01T08:24:08Z</time>
      </trkpt>
      <trkpt lat="47.60048" lon="3.74979">
        <ele>113</ele>
        <time>2012-04-01T08:24:12Z</time>
      </trkpt>
      <trkpt lat="47.60044" lon="3.74984">
        <ele>112</ele>
        <time>2012-04-01T08:24:15Z</time>
      </trkpt>
      <trkpt lat="47.60039" lon="3.74984">
        <ele>107</ele>
        <time>2012-04-01T08:24:20Z</time>
      </trkpt>
      <trkpt lat="47.60035" lon="3.74989">
        <ele>107</ele>
        <time>2012-04-01T08:24:23Z</time>
      </trkpt>
      <trkpt lat="47.6003" lon="3.74991">
        <ele>103</ele>
        <time>2012-04-01T08:24:26Z</time>
      </trkpt>
      <trkpt lat="47.60025" lon="3.74993">
        <ele>105</ele>
        <time>2012-04-01T08:24:32Z</time>
      </trkpt>
      <trkpt lat="47.60022" lon="3.74998">
        <ele>106</ele>
        <time>2012-04-01T08:24:36Z</time>
      </trkpt>
      <trkpt lat="47.60018" lon="3.75004">
        <ele>106</ele>
        <time>2012-04-01T08:24:40Z</time>
      </trkpt>
      <trkpt lat="47.60013" lon="3.75015">
        <ele>108</ele>
        <time>2012-04-01T08:24:47Z</time>
      </trkpt>
      <trkpt lat="47.60009" lon="3.75012">
        <ele>110</ele>
        <time>2012-04-01T08:24:56Z</time>
      </trkpt>
      <trkpt lat="47.60003" lon="3.75008">
        <ele>105</ele>
        <time>2012-04-01T08:25:03Z</time>
      </trkpt>
      <trkpt lat="47.59998" lon="3.75006">
        <ele>105</ele>
        <time>2012-04-01T08:25:06Z</time>
      </trkpt>
      <trkpt lat="47.59991" lon="3.7501">
        <ele>106</ele>
        <time>2012-04-01T08:25:09Z</time>
      </trkpt>
      <trkpt lat="47.59986" lon="3.75015">
        <ele>106</ele>
        <time>2012-04-01T08:25:12Z</time>
      </trkpt>
      <trkpt lat="47.59982" lon="3.75021">
        <ele>103</ele>
        <time>2012-04-01T08:25:16Z</time>
      </trkpt>
      <trkpt lat="47.59978" lon="3.75021">
        <ele>99</ele>
        <time>2012-04-01T08:25:24Z</time>
      </trkpt>
      <trkpt lat="47.59968" lon="3.7502">
        <ele>103</ele>
        <time>2012-04-01T08:25:32Z</time>
      </trkpt>
      <trkpt lat="47.59964" lon="3.75017">
        <ele>101</ele>
        <time>2012-04-01T08:25:36Z</time>
      </trkpt>
      <trkpt lat="47.59948" lon="3.75014">
        <ele>107</ele>
        <time>2012-04-01T08:25:43Z</time>
      </trkpt>
      <trkpt lat="47.59937" lon="3.75014">
        <ele>107</ele>
        <time>2012-04-01T08:25:50Z</time>
      </trkpt>
      <trkpt lat="47.59922" lon="3.75005">
        <ele>103</ele>
        <time>2012-04-01T08:26:03Z</time>
      </trkpt>
      <trkpt lat="47.59921" lon="3.74992">
        <ele>107</ele>
        <time>2012-04-01T08:26:10Z</time>
      </trkpt>
      <trkpt lat="47.59916" lon="3.74988">
        <ele>107</ele>
        <time>2012-04-01T08:26:15Z</time>
      </trkpt>
      <trkpt lat="47.59912" lon="3.74985">
        <ele>108</ele>
        <time>2012-04-01T08:26:18Z</time>
      </trkpt>
      <trkpt lat="47.59904" lon="3.74975">
        <ele>105</ele>
        <time>2012-04-01T08:26:27Z</time>
      </trkpt>
      <trkpt lat="47.59899" lon="3.74976">
        <ele>105</ele>
        <time>2012-04-01T08:26:33Z</time>
      </trkpt>
      <trkpt lat="47.59894" lon="3.74975">
        <ele>106</ele>
        <time>2012-04-01T08:26:39Z</time>
      </trkpt>
      <trkpt lat="47.5989" lon="3.74971">
        <ele>106</ele>
        <time>2012-04-01T08:26:43Z</time>
      </trkpt>
      <trkpt lat="47.59888" lon="3.74965">
        <ele>106</ele>
        <time>2012-04-01T08:26:46Z</time>
      </trkpt>
      <trkpt lat="47.59885" lon="3.74959">
        <ele>104</ele>
        <time>2012-04-01T08:26:52Z</time>
      </trkpt>
      <trkpt lat="47.5988" lon="3.74956">
        <ele>107</ele>
        <time>2012-04-01T08:26:56Z</time>
      </trkpt>
      <trkpt lat="47.59875" lon="3.74956">
        <ele>108</ele>
        <time>2012-04-01T08:26:59Z</time>
      </trkpt>
      <trkpt lat="47.59868" lon="3.74949">
        <ele>108</ele>
        <time>2012-04-01T08:27:07Z</time>
      </trkpt>
      <trkpt lat="47.59863" lon="3.74945">
        <ele>110</ele>
        <time>2012-04-01T08:27:11Z</time>
      </trkpt>
      <trkpt lat="47.59859" lon="3.74941">
        <ele>110</ele>
        <time>2012-04-01T08:27:15Z</time>
      </trkpt>
      <trkpt lat="47.59856" lon="3.74936">
        <ele>112</ele>
        <time>2012-04-01T08:27:19Z</time>
      </trkpt>
      <trkpt lat="47.59853" lon="3.74931">
        <ele>112</ele>
        <time>2012-04-01T08:27:24Z</time>
      </trkpt>
      <trkpt lat="47.59848" lon="3.74928">
        <ele>116</ele>
        <time>2012-04-01T08:27:31Z</time>
      </trkpt>
      <trkpt lat="47.59842" lon="3.74927">
        <ele>113</ele>
        <time>2012-04-01T08:27:45Z</time>
      </trkpt>
      <trkpt lat="47.59839" lon="3.74922">
        <ele>115</ele>
        <time>2012-04-01T08:27:50Z</time>
      </trkpt>
      <trkpt lat="47.59835" lon="3.74918">
        <ele>113</ele>
        <time>2012-04-01T08:27:52Z</time>
      </trkpt>
      <trkpt lat="47.5983" lon="3.74915">
        <ele>113</ele>
        <time>2012-04-01T08:27:56Z</time>
      </trkpt>
      <trkpt lat="47.59825" lon="3.74913">
        <ele>115</ele>
        <time>2012-04-01T08:28:04Z</time>
      </trkpt>
      <trkpt lat="47.59821" lon="3.74909">
        <ele>112</ele>
        <time>2012-04-01T08:28:10Z</time>
      </trkpt>
      <trkpt lat="47.59809" lon="3.74908">
        <ele>112</ele>
        <time>2012-04-01T08:28:17Z</time>
      </trkpt>
      <trkpt lat="47.59807" lon="3.74902">
        <ele>110</ele>
        <time>2012-04-01T08:28:22Z</time>
      </trkpt>
      <trkpt lat="47.59805" lon="3.74889">
        <ele>117</ele>
        <time>2012-04-01T08:28:35Z</time>
      </trkpt>
      <trkpt lat="47.59801" lon="3.74884">
        <ele>119</ele>
        <time>2012-04-01T08:28:40Z</time>
      </trkpt>
      <trkpt lat="47.59797" lon="3.74881">
        <ele>121</ele>
        <time>2012-04-01T08:28:44Z</time>
      </trkpt>
      <trkpt lat="47.59794" lon="3.74875">
        <ele>121</ele>
        <time>2012-04-01T08:28:55Z</time>
      </trkpt>
      <trkpt lat="47.5979" lon="3.74871">
        <ele>120</ele>
        <time>2012-04-01T08:28:59Z</time>
      </trkpt>
      <trkpt lat="47.59786" lon="3.74868">
        <ele>120</ele>
        <time>2012-04-01T08:29:03Z</time>
      </trkpt>
      <trkpt lat="47.59781" lon="3.74866">
        <ele>121</ele>
        <time>2012-04-01T08:29:06Z</time>
      </trkpt>
      <trkpt lat="47.59777" lon="3.74864">
        <ele>119</ele>
        <time>2012-04-01T08:29:11Z</time>
      </trkpt>
      <trkpt lat="47.59772" lon="3.74862">
        <ele>121</ele>
        <time>2012-04-01T08:29:16Z</time>
      </trkpt>
      <trkpt lat="47.59768" lon="3.74858">
        <ele>120</ele>
        <time>2012-04-01T08:29:20Z</time>
      </trkpt>
      <trkpt lat="47.59751" lon="3.74852">
        <ele>125</ele>
        <time>2012-04-01T08:29:44Z</time>
      </trkpt>
      <trkpt lat="47.59746" lon="3.74852">
        <ele>124</ele>
        <time>2012-04-01T08:29:47Z</time>
      </trkpt>
      <trkpt lat="47.59742" lon="3.7485">
        <ele>125</ele>
        <time>2012-04-01T08:29:50Z</time>
      </trkpt>
      <trkpt lat="47.59741" lon="3.74843">
        <ele>125</ele>
        <time>2012-04-01T08:29:55Z</time>
      </trkpt>
      <trkpt lat="47.59741" lon="3.74836">
        <ele>125</ele>
        <time>2012-04-01T08:29:57Z</time>
      </trkpt>
      <trkpt lat="47.59737" lon="3.74832">
        <ele>127</ele>
        <time>2012-04-01T08:30:03Z</time>
      </trkpt>
      <trkpt lat="47.59732" lon="3.74828">
        <ele>129</ele>
        <time>2012-04-01T08:30:08Z</time>
      </trkpt>
      <trkpt lat="47.59727" lon="3.74826">
        <ele>129</ele>
        <time>2012-04-01T08:30:13Z</time>
      </trkpt>
      <trkpt lat="47.59724" lon="3.74821">
        <ele>128</ele>
        <time>2012-04-01T08:30:19Z</time>
      </trkpt>
      <trkpt lat="47.59721" lon="3.74815">
        <ele>129</ele>
        <time>2012-04-01T08:30:23Z</time>
      </trkpt>
      <trkpt lat="47.59718" lon="3.74811">
        <ele>128</ele>
        <time>2012-04-01T08:30:27Z</time>
      </trkpt>
      <trkpt lat="47.59713" lon="3.74811">
        <ele>127</ele>
        <time>2012-04-01T08:30:30Z</time>
      </trkpt>
      <trkpt lat="47.59707" lon="3.74811">
        <ele>127</ele>
        <time>2012-04-01T08:30:34Z</time>
      </trkpt>
      <trkpt lat="47.59705" lon="3.74805">
        <ele>128</ele>
        <time>2012-04-01T08:30:39Z</time>
      </trkpt>
      <trkpt lat="47.59704" lon="3.74799">
        <ele>129</ele>
        <time>2012-04-01T08:30:41Z</time>
      </trkpt>
      <trkpt lat="47.59704" lon="3.74791">
        <ele>129</ele>
        <time>2012-04-01T08:30:47Z</time>
      </trkpt>
      <trkpt lat="47.597" lon="3.74788">
        <ele>132</ele>
        <time>2012-04-01T08:30:54Z</time>
      </trkpt>
      <trkpt lat="47.59693" lon="3.74789">
        <ele>131</ele>
        <time>2012-04-01T08:30:58Z</time>
      </trkpt>
      <trkpt lat="47.59689" lon="3.74787">
        <ele>133</ele>
        <time>2012-04-01T08:31:03Z</time>
      </trkpt>
      <trkpt lat="47.59685" lon="3.74782">
        <ele>135</ele>
        <time>2012-04-01T08:31:08Z</time>
      </trkpt>
      <trkpt lat="47.59681" lon="3.74785">
        <ele>120</ele>
        <time>2012-04-01T08:31:14Z</time>
      </trkpt>
      <trkpt lat="47.59677" lon="3.7478">
        <ele>122</ele>
        <time>2012-04-01T08:31:25Z</time>
      </trkpt>
      <trkpt lat="47.59678" lon="3.74773">
        <ele>125</ele>
        <time>2012-04-01T08:31:28Z</time>
      </trkpt>
      <trkpt lat="47.59679" lon="3.74765">
        <ele>127</ele>
        <time>2012-04-01T08:31:34Z</time>
      </trkpt>
      <trkpt lat="47.59675" lon="3.74758">
        <ele>129</ele>
        <time>2012-04-01T08:31:36Z</time>
      </trkpt>
      <trkpt lat="47.59671" lon="3.74754">
        <ele>124</ele>
        <time>2012-04-01T08:31:40Z</time>
      </trkpt>
      <trkpt lat="47.59667" lon="3.74749">
        <ele>125</ele>
        <time>2012-04-01T08:31:45Z</time>
      </trkpt>
      <trkpt lat="47.5966" lon="3.74729">
        <ele>130</ele>
        <time>2012-04-01T08:31:58Z</time>
      </trkpt>
      <trkpt lat="47.59648" lon="3.74718">
        <ele>136</ele>
        <time>2012-04-01T08:32:10Z</time>
      </trkpt>
      <trkpt lat="47.59647" lon="3.74708">
        <ele>139</ele>
        <time>2012-04-01T08:32:14Z</time>
      </trkpt>
      <trkpt lat="47.59647" lon="3.74701">
        <ele>141</ele>
        <time>2012-04-01T08:32:17Z</time>
      </trkpt>
      <trkpt lat="47.59643" lon="3.74697">
        <ele>142</ele>
        <time>2012-04-01T08:32:25Z</time>
      </trkpt>
      <trkpt lat="47.5964" lon="3.7469">
        <ele>142</ele>
        <time>2012-04-01T08:32:29Z</time>
      </trkpt>
      <trkpt lat="47.59642" lon="3.74684">
        <ele>143</ele>
        <time>2012-04-01T08:32:35Z</time>
      </trkpt>
      <trkpt lat="47.59641" lon="3.74674">
        <ele>145</ele>
        <time>2012-04-01T08:32:48Z</time>
      </trkpt>
      <trkpt lat="47.59641" lon="3.74671">
        <ele>145</ele>
        <time>2012-04-01T08:32:54Z</time>
      </trkpt>
      <trkpt lat="47.59643" lon="3.7465">
        <ele>150</ele>
        <time>2012-04-01T08:33:08Z</time>
      </trkpt>
      <trkpt lat="47.59642" lon="3.74643">
        <ele>149</ele>
        <time>2012-04-01T08:33:14Z</time>
      </trkpt>
      <trkpt lat="47.59638" lon="3.74638">
        <ele>154</ele>
        <time>2012-04-01T08:33:19Z</time>
      </trkpt>
      <trkpt lat="47.59633" lon="3.74636">
        <ele>152</ele>
        <time>2012-04-01T08:33:23Z</time>
      </trkpt>
      <trkpt lat="47.59634" lon="3.74629">
        <ele>155</ele>
        <time>2012-04-01T08:33:30Z</time>
      </trkpt>
      <trkpt lat="47.5964" lon="3.74618">
        <ele>155</ele>
        <time>2012-04-01T08:33:39Z</time>
      </trkpt>
      <trkpt lat="47.59642" lon="3.74611">
        <ele>157</ele>
        <time>2012-04-01T08:33:42Z</time>
      </trkpt>
      <trkpt lat="47.5964" lon="3.74597">
        <ele>157</ele>
        <time>2012-04-01T08:33:57Z</time>
      </trkpt>
      <trkpt lat="47.59639" lon="3.74589">
        <ele>154</ele>
        <time>2012-04-01T08:34:02Z</time>
      </trkpt>
      <trkpt lat="47.59643" lon="3.74575">
        <ele>156</ele>
        <time>2012-04-01T08:34:10Z</time>
      </trkpt>
      <trkpt lat="47.59641" lon="3.74569">
        <ele>156</ele>
        <time>2012-04-01T08:34:16Z</time>
      </trkpt>
      <trkpt lat="47.59634" lon="3.7455">
        <ele>164</ele>
        <time>2012-04-01T08:34:34Z</time>
      </trkpt>
      <trkpt lat="47.59634" lon="3.74543">
        <ele>163</ele>
        <time>2012-04-01T08:34:40Z</time>
      </trkpt>
      <trkpt lat="47.59632" lon="3.74537">
        <ele>163</ele>
        <time>2012-04-01T08:34:48Z</time>
      </trkpt>
      <trkpt lat="47.59631" lon="3.74521">
        <ele>166</ele>
        <time>2012-04-01T08:35:01Z</time>
      </trkpt>
      <trkpt lat="47.59625" lon="3.74509">
        <ele>166</ele>
        <time>2012-04-01T08:35:11Z</time>
      </trkpt>
      <trkpt lat="47.59623" lon="3.74503">
        <ele>167</ele>
        <time>2012-04-01T08:35:16Z</time>
      </trkpt>
      <trkpt lat="47.59622" lon="3.74495">
        <ele>167</ele>
        <time>2012-04-01T08:35:23Z</time>
      </trkpt>
      <trkpt lat="47.59622" lon="3.74481">
        <ele>169</ele>
        <time>2012-04-01T08:35:34Z</time>
      </trkpt>
      <trkpt lat="47.59619" lon="3.74477">
        <ele>170</ele>
        <time>2012-04-01T08:35:43Z</time>
      </trkpt>
      <trkpt lat="47.59615" lon="3.74471">
        <ele>169</ele>
        <time>2012-04-01T08:35:50Z</time>
      </trkpt>
      <trkpt lat="47.59615" lon="3.74464">
        <ele>166</ele>
        <time>2012-04-01T08:35:56Z</time>
      </trkpt>
      <trkpt lat="47.5961" lon="3.74463">
        <ele>171</ele>
        <time>2012-04-01T08:36:02Z</time>
      </trkpt>
      <trkpt lat="47.59608" lon="3.74456">
        <ele>175</ele>
        <time>2012-04-01T08:36:09Z</time>
      </trkpt>
      <trkpt lat="47.59603" lon="3.74454">
        <ele>175</ele>
        <time>2012-04-01T08:36:14Z</time>
      </trkpt>
      <trkpt lat="47.596" lon="3.74448">
        <ele>176</ele>
        <time>2012-04-01T08:36:23Z</time>
      </trkpt>
      <trkpt lat="47.59595" lon="3.74445">
        <ele>178</ele>
        <time>2012-04-01T08:36:35Z</time>
      </trkpt>
      <trkpt lat="47.5959" lon="3.74433">
        <ele>174</ele>
        <time>2012-04-01T08:36:45Z</time>
      </trkpt>
      <trkpt lat="47.59589" lon="3.74419">
        <ele>174</ele>
        <time>2012-04-01T08:36:56Z</time>
      </trkpt>
      <trkpt lat="47.59587" lon="3.74412">
        <ele>175</ele>
        <time>2012-04-01T08:37:05Z</time>
      </trkpt>
      <trkpt lat="47.59579" lon="3.74403">
        <ele>175</ele>
        <time>2012-04-01T08:37:16Z</time>
      </trkpt>
      <trkpt lat="47.59572" lon="3.74394">
        <ele>177</ele>
        <time>2012-04-01T08:37:28Z</time>
      </trkpt>
      <trkpt lat="47.59568" lon="3.74391">
        <ele>176</ele>
        <time>2012-04-01T08:37:35Z</time>
      </trkpt>
      <trkpt lat="47.59565" lon="3.74387">
        <ele>185</ele>
        <time>2012-04-01T08:40:23Z</time>
      </trkpt>
      <trkpt lat="47.59562" lon="3.74388">
        <ele>183</ele>
        <time>2012-04-01T08:41:48Z</time>
      </trkpt>
      <trkpt lat="47.5956" lon="3.7439">
        <ele>181</ele>
        <time>2012-04-01T08:43:22Z</time>
      </trkpt>
      <trkpt lat="47.59563" lon="3.74388">
        <ele>184</ele>
        <time>2012-04-01T08:44:28Z</time>
      </trkpt>
      <trkpt lat="47.59561" lon="3.74382">
        <ele>184</ele>
        <time>2012-04-01T08:44:37Z</time>
      </trkpt>
      <trkpt lat="47.59561" lon="3.74375">
        <ele>183</ele>
        <time>2012-04-01T08:44:48Z</time>
      </trkpt>
      <trkpt lat="47.59558" lon="3.74366">
        <ele>186</ele>
        <time>2012-04-01T08:45:00Z</time>
      </trkpt>
      <trkpt lat="47.59555" lon="3.7436">
        <ele>180</ele>
        <time>2012-04-01T08:45:06Z</time>
      </trkpt>
      <trkpt lat="47.59544" lon="3.74335">
        <ele>190</ele>
        <time>2012-04-01T08:45:28Z</time>
      </trkpt>
      <trkpt lat="47.59542" lon="3.74328">
        <ele>190</ele>
        <time>2012-04-01T08:45:33Z</time>
      </trkpt>
      <trkpt lat="47.59542" lon="3.74313">
        <ele>188</ele>
        <time>2012-04-01T08:45:41Z</time>
      </trkpt>
      <trkpt lat="47.59536" lon="3.74301">
        <ele>188</ele>
        <time>2012-04-01T08:45:49Z</time>
      </trkpt>
      <trkpt lat="47.59531" lon="3.74296">
        <ele>188</ele>
        <time>2012-04-01T08:45:56Z</time>
      </trkpt>
      <trkpt lat="47.5953" lon="3.7429">
        <ele>184</ele>
        <time>2012-04-01T08:46:02Z</time>
      </trkpt>
      <trkpt lat="47.59529" lon="3.74283">
        <ele>187</ele>
        <time>2012-04-01T08:46:06Z</time>
      </trkpt>
      <trkpt lat="47.59526" lon="3.74276">
        <ele>185</ele>
        <time>2012-04-01T08:46:11Z</time>
      </trkpt>
      <trkpt lat="47.59514" lon="3.74258">
        <ele>191</ele>
        <time>2012-04-01T08:46:24Z</time>
      </trkpt>
      <trkpt lat="47.59507" lon="3.74247">
        <ele>191</ele>
        <time>2012-04-01T08:46:32Z</time>
      </trkpt>
      <trkpt lat="47.59501" lon="3.74235">
        <ele>195</ele>
        <time>2012-04-01T08:46:41Z</time>
      </trkpt>
      <trkpt lat="47.59498" lon="3.7423">
        <ele>194</ele>
        <time>2012-04-01T08:46:44Z</time>
      </trkpt>
      <trkpt lat="47.5949" lon="3.74212">
        <ele>198</ele>
        <time>2012-04-01T08:46:56Z</time>
      </trkpt>
      <trkpt lat="47.59488" lon="3.74205">
        <ele>197</ele>
        <time>2012-04-01T08:47:01Z</time>
      </trkpt>
      <trkpt lat="47.59487" lon="3.74198">
        <ele>197</ele>
        <time>2012-04-01T08:47:06Z</time>
      </trkpt>
      <trkpt lat="47.59489" lon="3.7418">
        <ele>194</ele>
        <time>2012-04-01T08:47:15Z</time>
      </trkpt>
      <trkpt lat="47.59486" lon="3.74173">
        <ele>193</ele>
        <time>2012-04-01T08:47:18Z</time>
      </trkpt>
      <trkpt lat="47.59482" lon="3.74169">
        <ele>194</ele>
        <time>2012-04-01T08:47:23Z</time>
      </trkpt>
      <trkpt lat="47.59479" lon="3.74165">
        <ele>194</ele>
        <time>2012-04-01T08:47:26Z</time>
      </trkpt>
      <trkpt lat="47.59477" lon="3.74157">
        <ele>196</ele>
        <time>2012-04-01T08:47:31Z</time>
      </trkpt>
      <trkpt lat="47.59471" lon="3.74146">
        <ele>193</ele>
        <time>2012-04-01T08:47:40Z</time>
      </trkpt>
      <trkpt lat="47.59471" lon="3.74137">
        <ele>189</ele>
        <time>2012-04-01T08:47:46Z</time>
      </trkpt>
      <trkpt lat="47.59469" lon="3.74129">
        <ele>190</ele>
        <time>2012-04-01T08:47:50Z</time>
      </trkpt>
      <trkpt lat="47.59465" lon="3.74113">
        <ele>190</ele>
        <time>2012-04-01T08:47:55Z</time>
      </trkpt>
      <trkpt lat="47.59463" lon="3.74107">
        <ele>185</ele>
        <time>2012-04-01T08:47:58Z</time>
      </trkpt>
      <trkpt lat="47.59465" lon="3.74092">
        <ele>183</ele>
        <time>2012-04-01T08:48:08Z</time>
      </trkpt>
      <trkpt lat="47.59467" lon="3.74084">
        <ele>187</ele>
        <time>2012-04-01T08:48:12Z</time>
      </trkpt>
      <trkpt lat="47.59464" lon="3.74077">
        <ele>188</ele>
        <time>2012-04-01T08:48:16Z</time>
      </trkpt>
      <trkpt lat="47.5946" lon="3.74064">
        <ele>194</ele>
        <time>2012-04-01T08:48:22Z</time>
      </trkpt>
      <trkpt lat="47.59454" lon="3.7404">
        <ele>187</ele>
        <time>2012-04-01T08:48:36Z</time>
      </trkpt>
      <trkpt lat="47.59451" lon="3.74033">
        <ele>187</ele>
        <time>2012-04-01T08:48:40Z</time>
      </trkpt>
      <trkpt lat="47.59447" lon="3.74019">
        <ele>184</ele>
        <time>2012-04-01T08:48:49Z</time>
      </trkpt>
      <trkpt lat="47.59446" lon="3.74013">
        <ele>184</ele>
        <time>2012-04-01T08:48:52Z</time>
      </trkpt>
      <trkpt lat="47.59444" lon="3.73999">
        <ele>187</ele>
        <time>2012-04-01T08:49:00Z</time>
      </trkpt>
      <trkpt lat="47.59441" lon="3.73993">
        <ele>187</ele>
        <time>2012-04-01T08:49:03Z</time>
      </trkpt>
      <trkpt lat="47.59441" lon="3.73985">
        <ele>185</ele>
        <time>2012-04-01T08:49:07Z</time>
      </trkpt>
      <trkpt lat="47.5944" lon="3.73977">
        <ele>187</ele>
        <time>2012-04-01T08:49:10Z</time>
      </trkpt>
      <trkpt lat="47.59433" lon="3.73963">
        <ele>192</ele>
        <time>2012-04-01T08:49:18Z</time>
      </trkpt>
      <trkpt lat="47.59431" lon="3.73957">
        <ele>192</ele>
        <time>2012-04-01T08:49:20Z</time>
      </trkpt>
      <trkpt lat="47.5943" lon="3.73949">
        <ele>193</ele>
        <time>2012-04-01T08:49:25Z</time>
      </trkpt>
      <trkpt lat="47.59427" lon="3.73942">
        <ele>192</ele>
        <time>2012-04-01T08:49:28Z</time>
      </trkpt>
      <trkpt lat="47.59422" lon="3.73939">
        <ele>191</ele>
        <time>2012-04-01T08:49:32Z</time>
      </trkpt>
      <trkpt lat="47.59416" lon="3.73918">
        <ele>188</ele>
        <time>2012-04-01T08:49:45Z</time>
      </trkpt>
      <trkpt lat="47.59416" lon="3.73911">
        <ele>185</ele>
        <time>2012-04-01T08:49:50Z</time>
      </trkpt>
      <trkpt lat="47.59415" lon="3.73904">
        <ele>188</ele>
        <time>2012-04-01T08:49:52Z</time>
      </trkpt>
      <trkpt lat="47.5941" lon="3.73891">
        <ele>188</ele>
        <time>2012-04-01T08:49:59Z</time>
      </trkpt>
      <trkpt lat="47.59408" lon="3.73883">
        <ele>189</ele>
        <time>2012-04-01T08:50:04Z</time>
      </trkpt>
      <trkpt lat="47.59408" lon="3.73876">
        <ele>186</ele>
        <time>2012-04-01T08:50:08Z</time>
      </trkpt>
      <trkpt lat="47.5941" lon="3.73869">
        <ele>186</ele>
        <time>2012-04-01T08:50:12Z</time>
      </trkpt>
      <trkpt lat="47.59408" lon="3.73854">
        <ele>184</ele>
        <time>2012-04-01T08:50:20Z</time>
      </trkpt>
      <trkpt lat="47.59409" lon="3.73846">
        <ele>185</ele>
        <time>2012-04-01T08:50:24Z</time>
      </trkpt>
      <trkpt lat="47.59411" lon="3.73833">
        <ele>183</ele>
        <time>2012-04-01T08:50:30Z</time>
      </trkpt>
      <trkpt lat="47.59411" lon="3.73825">
        <ele>185</ele>
        <time>2012-04-01T08:50:34Z</time>
      </trkpt>
      <trkpt lat="47.59411" lon="3.73818">
        <ele>185</ele>
        <time>2012-04-01T08:50:40Z</time>
      </trkpt>
      <trkpt lat="47.5941" lon="3.7381">
        <ele>178</ele>
        <time>2012-04-01T08:50:47Z</time>
      </trkpt>
      <trkpt lat="47.59411" lon="3.73803">
        <ele>176</ele>
        <time>2012-04-01T08:50:52Z</time>
      </trkpt>
      <trkpt lat="47.59412" lon="3.73796">
        <ele>177</ele>
        <time>2012-04-01T08:50:56Z</time>
      </trkpt>
      <trkpt lat="47.59411" lon="3.73789">
        <ele>175</ele>
        <time>2012-04-01T08:50:59Z</time>
      </trkpt>
      <trkpt lat="47.59406" lon="3.73759">
        <ele>175</ele>
        <time>2012-04-01T08:51:14Z</time>
      </trkpt>
      <trkpt lat="47.59404" lon="3.73752">
        <ele>177</ele>
        <time>2012-04-01T08:51:16Z</time>
      </trkpt>
      <trkpt lat="47.59402" lon="3.73744">
        <ele>177</ele>
        <time>2012-04-01T08:51:20Z</time>
      </trkpt>
      <trkpt lat="47.59398" lon="3.73739">
        <ele>176</ele>
        <time>2012-04-01T08:51:25Z</time>
      </trkpt>
      <trkpt lat="47.59395" lon="3.73733">
        <ele>183</ele>
        <time>2012-04-01T08:51:28Z</time>
      </trkpt>
      <trkpt lat="47.59391" lon="3.73728">
        <ele>182</ele>
        <time>2012-04-01T08:51:31Z</time>
      </trkpt>
      <trkpt lat="47.59389" lon="3.7372">
        <ele>183</ele>
        <time>2012-04-01T08:51:36Z</time>
      </trkpt>
      <trkpt lat="47.59387" lon="3.73706">
        <ele>181</ele>
        <time>2012-04-01T08:51:44Z</time>
      </trkpt>
      <trkpt lat="47.59384" lon="3.73689">
        <ele>186</ele>
        <time>2012-04-01T08:51:52Z</time>
      </trkpt>
      <trkpt lat="47.59382" lon="3.73681">
        <ele>185</ele>
        <time>2012-04-01T08:51:55Z</time>
      </trkpt>
      <trkpt lat="47.5938" lon="3.73667">
        <ele>185</ele>
        <time>2012-04-01T08:52:02Z</time>
      </trkpt>
      <trkpt lat="47.59381" lon="3.73659">
        <ele>186</ele>
        <time>2012-04-01T08:52:06Z</time>
      </trkpt>
      <trkpt lat="47.59382" lon="3.7365">
        <ele>185</ele>
        <time>2012-04-01T08:52:10Z</time>
      </trkpt>
      <trkpt lat="47.59379" lon="3.73643">
        <ele>181</ele>
        <time>2012-04-01T08:52:20Z</time>
      </trkpt>
      <trkpt lat="47.59379" lon="3.73636">
        <ele>182</ele>
        <time>2012-04-01T08:52:24Z</time>
      </trkpt>
      <trkpt lat="47.59377" lon="3.73628">
        <ele>181</ele>
        <time>2012-04-01T08:52:28Z</time>
      </trkpt>
      <trkpt lat="47.59376" lon="3.73622">
        <ele>181</ele>
        <time>2012-04-01T08:52:31Z</time>
      </trkpt>
      <trkpt lat="47.59377" lon="3.73606">
        <ele>178</ele>
        <time>2012-04-01T08:52:38Z</time>
      </trkpt>
      <trkpt lat="47.59377" lon="3.73592">
        <ele>181</ele>
        <time>2012-04-01T08:52:45Z</time>
      </trkpt>
      <trkpt lat="47.59379" lon="3.73579">
        <ele>178</ele>
        <time>2012-04-01T08:52:53Z</time>
      </trkpt>
      <trkpt lat="47.59378" lon="3.73571">
        <ele>179</ele>
        <time>2012-04-01T08:53:00Z</time>
      </trkpt>
      <trkpt lat="47.59378" lon="3.73563">
        <ele>179</ele>
        <time>2012-04-01T08:53:03Z</time>
      </trkpt>
      <trkpt lat="47.59378" lon="3.73555">
        <ele>178</ele>
        <time>2012-04-01T08:53:06Z</time>
      </trkpt>
      <trkpt lat="47.59378" lon="3.73548">
        <ele>178</ele>
        <time>2012-04-01T08:53:09Z</time>
      </trkpt>
      <trkpt lat="47.59379" lon="3.73541">
        <ele>177</ele>
        <time>2012-04-01T08:53:14Z</time>
      </trkpt>
      <trkpt lat="47.59382" lon="3.73534">
        <ele>177</ele>
        <time>2012-04-01T08:53:21Z</time>
      </trkpt>
      <trkpt lat="47.59385" lon="3.73521">
        <ele>180</ele>
        <time>2012-04-01T08:53:31Z</time>
      </trkpt>
      <trkpt lat="47.59387" lon="3.73514">
        <ele>179</ele>
        <time>2012-04-01T08:53:35Z</time>
      </trkpt>
      <trkpt lat="47.59391" lon="3.73511">
        <ele>176</ele>
        <time>2012-04-01T08:53:40Z</time>
      </trkpt>
      <trkpt lat="47.59393" lon="3.73505">
        <ele>178</ele>
        <time>2012-04-01T08:53:44Z</time>
      </trkpt>
      <trkpt lat="47.59397" lon="3.7349">
        <ele>178</ele>
        <time>2012-04-01T08:53:52Z</time>
      </trkpt>
      <trkpt lat="47.59401" lon="3.73478">
        <ele>181</ele>
        <time>2012-04-01T08:53:58Z</time>
      </trkpt>
      <trkpt lat="47.59403" lon="3.7347">
        <ele>180</ele>
        <time>2012-04-01T08:54:02Z</time>
      </trkpt>
      <trkpt lat="47.59405" lon="3.73463">
        <ele>180</ele>
        <time>2012-04-01T08:54:08Z</time>
      </trkpt>
      <trkpt lat="47.5941" lon="3.7345">
        <ele>183</ele>
        <time>2012-04-01T08:54:15Z</time>
      </trkpt>
      <trkpt lat="47.59412" lon="3.73444">
        <ele>182</ele>
        <time>2012-04-01T08:54:19Z</time>
      </trkpt>
      <trkpt lat="47.59416" lon="3.73438">
        <ele>184</ele>
        <time>2012-04-01T08:54:24Z</time>
      </trkpt>
      <trkpt lat="47.59424" lon="3.73421">
        <ele>184</ele>
        <time>2012-04-01T08:54:32Z</time>
      </trkpt>
      <trkpt lat="47.59427" lon="3.73415">
        <ele>183</ele>
        <time>2012-04-01T08:54:37Z</time>
      </trkpt>
      <trkpt lat="47.59434" lon="3.73397">
        <ele>183</ele>
        <time>2012-04-01T08:54:49Z</time>
      </trkpt>
      <trkpt lat="47.5944" lon="3.73386">
        <ele>185</ele>
        <time>2012-04-01T08:55:00Z</time>
      </trkpt>
      <trkpt lat="47.59449" lon="3.73367">
        <ele>185</ele>
        <time>2012-04-01T08:55:12Z</time>
      </trkpt>
      <trkpt lat="47.59453" lon="3.73362">
        <ele>186</ele>
        <time>2012-04-01T08:55:17Z</time>
      </trkpt>
      <trkpt lat="47.59463" lon="3.73359">
        <ele>183</ele>
        <time>2012-04-01T08:55:27Z</time>
      </trkpt>
      <trkpt lat="47.59465" lon="3.73351">
        <ele>187</ele>
        <time>2012-04-01T08:55:31Z</time>
      </trkpt>
      <trkpt lat="47.59467" lon="3.73345">
        <ele>187</ele>
        <time>2012-04-01T08:55:33Z</time>
      </trkpt>
      <trkpt lat="47.59469" lon="3.73334">
        <ele>186</ele>
        <time>2012-04-01T08:55:38Z</time>
      </trkpt>
      <trkpt lat="47.59473" lon="3.73329">
        <ele>187</ele>
        <time>2012-04-01T08:55:44Z</time>
      </trkpt>
      <trkpt lat="47.59479" lon="3.7332">
        <ele>186</ele>
        <time>2012-04-01T08:55:52Z</time>
      </trkpt>
      <trkpt lat="47.59484" lon="3.73312">
        <ele>186</ele>
        <time>2012-04-01T08:55:56Z</time>
      </trkpt>
      <trkpt lat="47.59488" lon="3.73305">
        <ele>187</ele>
        <time>2012-04-01T08:56:00Z</time>
      </trkpt>
      <trkpt lat="47.59492" lon="3.733">
        <ele>187</ele>
        <time>2012-04-01T08:56:03Z</time>
      </trkpt>
      <trkpt lat="47.59495" lon="3.73294">
        <ele>186</ele>
        <time>2012-04-01T08:56:07Z</time>
      </trkpt>
      <trkpt lat="47.59505" lon="3.7329">
        <ele>184</ele>
        <time>2012-04-01T08:56:14Z</time>
      </trkpt>
      <trkpt lat="47.59512" lon="3.7328">
        <ele>181</ele>
        <time>2012-04-01T08:56:24Z</time>
      </trkpt>
      <trkpt lat="47.5952" lon="3.73271">
        <ele>181</ele>
        <time>2012-04-01T08:56:32Z</time>
      </trkpt>
      <trkpt lat="47.59529" lon="3.73266">
        <ele>178</ele>
        <time>2012-04-01T08:56:40Z</time>
      </trkpt>
      <trkpt lat="47.59539" lon="3.73258">
        <ele>178</ele>
        <time>2012-04-01T08:56:50Z</time>
      </trkpt>
      <trkpt lat="47.59549" lon="3.73251">
        <ele>180</ele>
        <time>2012-04-01T08:56:57Z</time>
      </trkpt>
      <trkpt lat="47.59558" lon="3.73237">
        <ele>185</ele>
        <time>2012-04-01T08:57:04Z</time>
      </trkpt>
      <trkpt lat="47.59561" lon="3.73233">
        <ele>184</ele>
        <time>2012-04-01T08:57:08Z</time>
      </trkpt>
      <trkpt lat="47.5957" lon="3.73226">
        <ele>186</ele>
        <time>2012-04-01T08:57:14Z</time>
      </trkpt>
      <trkpt lat="47.59574" lon="3.73222">
        <ele>183</ele>
        <time>2012-04-01T08:57:19Z</time>
      </trkpt>
      <trkpt lat="47.59582" lon="3.73213">
        <ele>183</ele>
        <time>2012-04-01T08:57:28Z</time>
      </trkpt>
      <trkpt lat="47.59588" lon="3.73212">
        <ele>181</ele>
        <time>2012-04-01T08:57:32Z</time>
      </trkpt>
      <trkpt lat="47.5961" lon="3.73193">
        <ele>181</ele>
        <time>2012-04-01T08:57:52Z</time>
      </trkpt>
      <trkpt lat="47.59619" lon="3.73184">
        <ele>186</ele>
        <time>2012-04-01T08:58:00Z</time>
      </trkpt>
      <trkpt lat="47.59623" lon="3.73171">
        <ele>179</ele>
        <time>2012-04-01T08:58:08Z</time>
      </trkpt>
      <trkpt lat="47.59624" lon="3.73163">
        <ele>180</ele>
        <time>2012-04-01T08:58:14Z</time>
      </trkpt>
      <trkpt lat="47.59625" lon="3.73157">
        <ele>178</ele>
        <time>2012-04-01T08:58:17Z</time>
      </trkpt>
      <trkpt lat="47.59622" lon="3.73143">
        <ele>175</ele>
        <time>2012-04-01T08:58:26Z</time>
      </trkpt>
      <trkpt lat="47.59619" lon="3.73137">
        <ele>176</ele>
        <time>2012-04-01T08:58:31Z</time>
      </trkpt>
      <trkpt lat="47.59614" lon="3.73116">
        <ele>170</ele>
        <time>2012-04-01T08:58:47Z</time>
      </trkpt>
      <trkpt lat="47.59614" lon="3.73109">
        <ele>171</ele>
        <time>2012-04-01T08:58:52Z</time>
      </trkpt>
      <trkpt lat="47.59614" lon="3.73102">
        <ele>169</ele>
        <time>2012-04-01T08:58:56Z</time>
      </trkpt>
      <trkpt lat="47.59614" lon="3.73095">
        <ele>169</ele>
        <time>2012-04-01T08:58:59Z</time>
      </trkpt>
      <trkpt lat="47.59614" lon="3.73081">
        <ele>166</ele>
        <time>2012-04-01T08:59:07Z</time>
      </trkpt>
      <trkpt lat="47.59616" lon="3.73065">
        <ele>172</ele>
        <time>2012-04-01T08:59:16Z</time>
      </trkpt>
      <trkpt lat="47.59617" lon="3.73059">
        <ele>172</ele>
        <time>2012-04-01T08:59:19Z</time>
      </trkpt>
      <trkpt lat="47.5962" lon="3.73051">
        <ele>173</ele>
        <time>2012-04-01T08:59:22Z</time>
      </trkpt>
      <trkpt lat="47.59621" lon="3.73044">
        <ele>172</ele>
        <time>2012-04-01T08:59:28Z</time>
      </trkpt>
      <trkpt lat="47.59622" lon="3.73038">
        <ele>174</ele>
        <time>2012-04-01T08:59:33Z</time>
      </trkpt>
      <trkpt lat="47.59622" lon="3.7303">
        <ele>172</ele>
        <time>2012-04-01T08:59:37Z</time>
      </trkpt>
      <trkpt lat="47.59623" lon="3.73021">
        <ele>174</ele>
        <time>2012-04-01T08:59:42Z</time>
      </trkpt>
      <trkpt lat="47.59623" lon="3.73004">
        <ele>174</ele>
        <time>2012-04-01T08:59:48Z</time>
      </trkpt>
      <trkpt lat="47.59622" lon="3.7299">
        <ele>177</ele>
        <time>2012-04-01T08:59:56Z</time>
      </trkpt>
      <trkpt lat="47.59621" lon="3.72982">
        <ele>177</ele>
        <time>2012-04-01T09:00:00Z</time>
      </trkpt>
      <trkpt lat="47.59618" lon="3.72975">
        <ele>179</ele>
        <time>2012-04-01T09:00:04Z</time>
      </trkpt>
      <trkpt lat="47.59617" lon="3.72967">
        <ele>177</ele>
        <time>2012-04-01T09:00:08Z</time>
      </trkpt>
      <trkpt lat="47.59612" lon="3.72963">
        <ele>181</ele>
        <time>2012-04-01T09:00:11Z</time>
      </trkpt>
      <trkpt lat="47.59606" lon="3.7296">
        <ele>182</ele>
        <time>2012-04-01T09:00:14Z</time>
      </trkpt>
      <trkpt lat="47.59604" lon="3.72953">
        <ele>186</ele>
        <time>2012-04-01T09:00:18Z</time>
      </trkpt>
      <trkpt lat="47.59599" lon="3.72951">
        <ele>182</ele>
        <time>2012-04-01T09:00:24Z</time>
      </trkpt>
      <trkpt lat="47.59593" lon="3.72938">
        <ele>182</ele>
        <time>2012-04-01T09:00:34Z</time>
      </trkpt>
      <trkpt lat="47.59589" lon="3.72933">
        <ele>181</ele>
        <time>2012-04-01T09:00:40Z</time>
      </trkpt>
      <trkpt lat="47.59591" lon="3.72931">
        <ele>176</ele>
        <time>2012-04-01T09:01:09Z</time>
      </trkpt>
      <trkpt lat="47.59586" lon="3.72929">
        <ele>178</ele>
        <time>2012-04-01T09:01:13Z</time>
      </trkpt>
      <trkpt lat="47.59583" lon="3.72923">
        <ele>180</ele>
        <time>2012-04-01T09:01:17Z</time>
      </trkpt>
      <trkpt lat="47.5958" lon="3.72917">
        <ele>180</ele>
        <time>2012-04-01T09:01:21Z</time>
      </trkpt>
      <trkpt lat="47.59576" lon="3.72911">
        <ele>176</ele>
        <time>2012-04-01T09:01:26Z</time>
      </trkpt>
      <trkpt lat="47.59573" lon="3.72906">
        <ele>176</ele>
        <time>2012-04-01T09:01:32Z</time>
      </trkpt>
      <trkpt lat="47.59569" lon="3.72902">
        <ele>175</ele>
        <time>2012-04-01T09:01:36Z</time>
      </trkpt>
      <trkpt lat="47.59566" lon="3.72896">
        <ele>175</ele>
        <time>2012-04-01T09:01:40Z</time>
      </trkpt>
      <trkpt lat="47.59562" lon="3.7289">
        <ele>173</ele>
        <time>2012-04-01T09:01:44Z</time>
      </trkpt>
      <trkpt lat="47.59559" lon="3.72886">
        <ele>174</ele>
        <time>2012-04-01T09:01:47Z</time>
      </trkpt>
      <trkpt lat="47.59555" lon="3.72881">
        <ele>172</ele>
        <time>2012-04-01T09:01:51Z</time>
      </trkpt>
      <trkpt lat="47.59551" lon="3.72876">
        <ele>173</ele>
        <time>2012-04-01T09:01:55Z</time>
      </trkpt>
      <trkpt lat="47.59544" lon="3.72865">
        <ele>173</ele>
        <time>2012-04-01T09:02:02Z</time>
      </trkpt>
      <trkpt lat="47.59541" lon="3.72859">
        <ele>174</ele>
        <time>2012-04-01T09:02:06Z</time>
      </trkpt>
      <trkpt lat="47.59538" lon="3.72855">
        <ele>173</ele>
        <time>2012-04-01T09:02:10Z</time>
      </trkpt>
      <trkpt lat="47.59534" lon="3.7285">
        <ele>173</ele>
        <time>2012-04-01T09:02:13Z</time>
      </trkpt>
      <trkpt lat="47.59531" lon="3.72846">
        <ele>174</ele>
        <time>2012-04-01T09:02:16Z</time>
      </trkpt>
      <trkpt lat="47.59527" lon="3.72841">
        <ele>172</ele>
        <time>2012-04-01T09:02:20Z</time>
      </trkpt>
      <trkpt lat="47.59523" lon="3.72836">
        <ele>172</ele>
        <time>2012-04-01T09:02:23Z</time>
      </trkpt>
      <trkpt lat="47.59515" lon="3.72828">
        <ele>175</ele>
        <time>2012-04-01T09:02:29Z</time>
      </trkpt>
      <trkpt lat="47.59507" lon="3.72818">
        <ele>173</ele>
        <time>2012-04-01T09:02:38Z</time>
      </trkpt>
      <trkpt lat="47.59503" lon="3.72815">
        <ele>173</ele>
        <time>2012-04-01T09:02:42Z</time>
      </trkpt>
      <trkpt lat="47.59499" lon="3.72812">
        <ele>174</ele>
        <time>2012-04-01T09:02:45Z</time>
      </trkpt>
      <trkpt lat="47.59495" lon="3.72806">
        <ele>173</ele>
        <time>2012-04-01T09:02:49Z</time>
      </trkpt>
      <trkpt lat="47.59488" lon="3.72797">
        <ele>173</ele>
        <time>2012-04-01T09:02:55Z</time>
      </trkpt>
      <trkpt lat="47.5948" lon="3.7278">
        <ele>165</ele>
        <time>2012-04-01T09:03:08Z</time>
      </trkpt>
      <trkpt lat="47.59472" lon="3.72771">
        <ele>165</ele>
        <time>2012-04-01T09:03:17Z</time>
      </trkpt>
      <trkpt lat="47.59461" lon="3.72757">
        <ele>161</ele>
        <time>2012-04-01T09:03:29Z</time>
      </trkpt>
      <trkpt lat="47.59454" lon="3.72747">
        <ele>163</ele>
        <time>2012-04-01T09:03:35Z</time>
      </trkpt>
      <trkpt lat="47.59451" lon="3.72741">
        <ele>163</ele>
        <time>2012-04-01T09:03:38Z</time>
      </trkpt>
      <trkpt lat="47.59448" lon="3.72736">
        <ele>164</ele>
        <time>2012-04-01T09:03:43Z</time>
      </trkpt>
      <trkpt lat="47.5944" lon="3.72726">
        <ele>164</ele>
        <time>2012-04-01T09:03:50Z</time>
      </trkpt>
      <trkpt lat="47.59436" lon="3.72721">
        <ele>162</ele>
        <time>2012-04-01T09:03:55Z</time>
      </trkpt>
      <trkpt lat="47.59432" lon="3.72716">
        <ele>162</ele>
        <time>2012-04-01T09:03:58Z</time>
      </trkpt>
      <trkpt lat="47.59417" lon="3.72696">
        <ele>166</ele>
        <time>2012-04-01T09:04:14Z</time>
      </trkpt>
      <trkpt lat="47.59413" lon="3.7269">
        <ele>165</ele>
        <time>2012-04-01T09:04:17Z</time>
      </trkpt>
      <trkpt lat="47.59409" lon="3.72685">
        <ele>165</ele>
        <time>2012-04-01T09:04:22Z</time>
      </trkpt>
      <trkpt lat="47.59405" lon="3.7268">
        <ele>166</ele>
        <time>2012-04-01T09:04:25Z</time>
      </trkpt>
      <trkpt lat="47.59401" lon="3.72673">
        <ele>166</ele>
        <time>2012-04-01T09:04:31Z</time>
      </trkpt>
      <trkpt lat="47.59399" lon="3.72666">
        <ele>164</ele>
        <time>2012-04-01T09:04:34Z</time>
      </trkpt>
      <trkpt lat="47.59393" lon="3.72654">
        <ele>166</ele>
        <time>2012-04-01T09:04:42Z</time>
      </trkpt>
      <trkpt lat="47.59391" lon="3.72649">
        <ele>165</ele>
        <time>2012-04-01T09:04:45Z</time>
      </trkpt>
      <trkpt lat="47.59388" lon="3.72643">
        <ele>167</ele>
        <time>2012-04-01T09:04:48Z</time>
      </trkpt>
      <trkpt lat="47.59386" lon="3.72636">
        <ele>165</ele>
        <time>2012-04-01T09:04:53Z</time>
      </trkpt>
      <trkpt lat="47.59386" lon="3.7263">
        <ele>165</ele>
        <time>2012-04-01T09:04:56Z</time>
      </trkpt>
      <trkpt lat="47.59387" lon="3.72622">
        <ele>167</ele>
        <time>2012-04-01T09:05:00Z</time>
      </trkpt>
      <trkpt lat="47.59391" lon="3.7261">
        <ele>164</ele>
        <time>2012-04-01T09:05:08Z</time>
      </trkpt>
      <trkpt lat="47.59396" lon="3.72609">
        <ele>162</ele>
        <time>2012-04-01T09:05:12Z</time>
      </trkpt>
      <trkpt lat="47.59404" lon="3.72598">
        <ele>157</ele>
        <time>2012-04-01T09:05:22Z</time>
      </trkpt>
      <trkpt lat="47.59408" lon="3.72585">
        <ele>155</ele>
        <time>2012-04-01T09:05:29Z</time>
      </trkpt>
      <trkpt lat="47.59417" lon="3.72576">
        <ele>157</ele>
        <time>2012-04-01T09:05:38Z</time>
      </trkpt>
      <trkpt lat="47.59421" lon="3.72563">
        <ele>150</ele>
        <time>2012-04-01T09:05:47Z</time>
      </trkpt>
      <trkpt lat="47.59427" lon="3.72551">
        <ele>154</ele>
        <time>2012-04-01T09:05:55Z</time>
      </trkpt>
      <trkpt lat="47.59429" lon="3.72544">
        <ele>153</ele>
        <time>2012-04-01T09:06:00Z</time>
      </trkpt>
      <trkpt lat="47.59431" lon="3.72537">
        <ele>156</ele>
        <time>2012-04-01T09:06:06Z</time>
      </trkpt>
      <trkpt lat="47.59434" lon="3.72531">
        <ele>156</ele>
        <time>2012-04-01T09:06:10Z</time>
      </trkpt>
      <trkpt lat="47.59438" lon="3.72508">
        <ele>160</ele>
        <time>2012-04-01T09:06:19Z</time>
      </trkpt>
      <trkpt lat="47.59441" lon="3.72493">
        <ele>158</ele>
        <time>2012-04-01T09:06:27Z</time>
      </trkpt>
      <trkpt lat="47.59443" lon="3.72484">
        <ele>159</ele>
        <time>2012-04-01T09:06:32Z</time>
      </trkpt>
      <trkpt lat="47.59444" lon="3.72476">
        <ele>157</ele>
        <time>2012-04-01T09:06:37Z</time>
      </trkpt>
      <trkpt lat="47.59445" lon="3.72469">
        <ele>157</ele>
        <time>2012-04-01T09:06:40Z</time>
      </trkpt>
      <trkpt lat="47.59447" lon="3.72461">
        <ele>156</ele>
        <time>2012-04-01T09:06:44Z</time>
      </trkpt>
      <trkpt lat="47.59448" lon="3.72454">
        <ele>156</ele>
        <time>2012-04-01T09:06:48Z</time>
      </trkpt>
      <trkpt lat="47.59451" lon="3.72448">
        <ele>157</ele>
        <time>2012-04-01T09:06:51Z</time>
      </trkpt>
      <trkpt lat="47.59453" lon="3.72442">
        <ele>157</ele>
        <time>2012-04-01T09:06:54Z</time>
      </trkpt>
      <trkpt lat="47.59457" lon="3.72419">
        <ele>152</ele>
        <time>2012-04-01T09:07:07Z</time>
      </trkpt>
      <trkpt lat="47.5946" lon="3.72413">
        <ele>153</ele>
        <time>2012-04-01T09:07:10Z</time>
      </trkpt>
      <trkpt lat="47.59462" lon="3.72407">
        <ele>153</ele>
        <time>2012-04-01T09:07:14Z</time>
      </trkpt>
      <trkpt lat="47.59464" lon="3.72399">
        <ele>155</ele>
        <time>2012-04-01T09:07:16Z</time>
      </trkpt>
      <trkpt lat="47.59465" lon="3.7239">
        <ele>154</ele>
        <time>2012-04-01T09:07:20Z</time>
      </trkpt>
      <trkpt lat="47.59466" lon="3.72384">
        <ele>155</ele>
        <time>2012-04-01T09:07:24Z</time>
      </trkpt>
      <trkpt lat="47.59472" lon="3.72371">
        <ele>152</ele>
        <time>2012-04-01T09:07:33Z</time>
      </trkpt>
      <trkpt lat="47.59477" lon="3.72359">
        <ele>152</ele>
        <time>2012-04-01T09:07:42Z</time>
      </trkpt>
      <trkpt lat="47.59479" lon="3.72351">
        <ele>151</ele>
        <time>2012-04-01T09:07:46Z</time>
      </trkpt>
      <trkpt lat="47.5948" lon="3.72343">
        <ele>151</ele>
        <time>2012-04-01T09:07:50Z</time>
      </trkpt>
      <trkpt lat="47.59482" lon="3.72337">
        <ele>150</ele>
        <time>2012-04-01T09:07:55Z</time>
      </trkpt>
      <trkpt lat="47.59483" lon="3.72329">
        <ele>151</ele>
        <time>2012-04-01T09:08:00Z</time>
      </trkpt>
      <trkpt lat="47.59487" lon="3.72309">
        <ele>151</ele>
        <time>2012-04-01T09:08:09Z</time>
      </trkpt>
      <trkpt lat="47.59487" lon="3.72293">
        <ele>153</ele>
        <time>2012-04-01T09:08:16Z</time>
      </trkpt>
      <trkpt lat="47.59489" lon="3.72286">
        <ele>156</ele>
        <time>2012-04-01T09:08:20Z</time>
      </trkpt>
      <trkpt lat="47.59489" lon="3.72278">
        <ele>156</ele>
        <time>2012-04-01T09:08:24Z</time>
      </trkpt>
      <trkpt lat="47.59493" lon="3.72263">
        <ele>159</ele>
        <time>2012-04-01T09:08:31Z</time>
      </trkpt>
      <trkpt lat="47.59495" lon="3.72256">
        <ele>159</ele>
        <time>2012-04-01T09:08:34Z</time>
      </trkpt>
      <trkpt lat="47.595" lon="3.72241">
        <ele>161</ele>
        <time>2012-04-01T09:08:41Z</time>
      </trkpt>
      <trkpt lat="47.59502" lon="3.72233">
        <ele>161</ele>
        <time>2012-04-01T09:08:44Z</time>
      </trkpt>
      <trkpt lat="47.59501" lon="3.72225">
        <ele>161</ele>
        <time>2012-04-01T09:08:47Z</time>
      </trkpt>
      <trkpt lat="47.59501" lon="3.72218">
        <ele>162</ele>
        <time>2012-04-01T09:08:51Z</time>
      </trkpt>
      <trkpt lat="47.59504" lon="3.72197">
        <ele>162</ele>
        <time>2012-04-01T09:09:02Z</time>
      </trkpt>
      <trkpt lat="47.59507" lon="3.72187">
        <ele>157</ele>
        <time>2012-04-01T09:09:14Z</time>
      </trkpt>
      <trkpt lat="47.59508" lon="3.72179">
        <ele>160</ele>
        <time>2012-04-01T09:09:18Z</time>
      </trkpt>
      <trkpt lat="47.59509" lon="3.7217">
        <ele>160</ele>
        <time>2012-04-01T09:09:20Z</time>
      </trkpt>
      <trkpt lat="47.59519" lon="3.72117">
        <ele>146</ele>
        <time>2012-04-01T09:09:48Z</time>
      </trkpt>
      <trkpt lat="47.5952" lon="3.72109">
        <ele>147</ele>
        <time>2012-04-01T09:09:50Z</time>
      </trkpt>
      <trkpt lat="47.59522" lon="3.72103">
        <ele>145</ele>
        <time>2012-04-01T09:09:53Z</time>
      </trkpt>
      <trkpt lat="47.59526" lon="3.72082">
        <ele>151</ele>
        <time>2012-04-01T09:10:05Z</time>
      </trkpt>
      <trkpt lat="47.59527" lon="3.72075">
        <ele>150</ele>
        <time>2012-04-01T09:10:08Z</time>
      </trkpt>
      <trkpt lat="47.59524" lon="3.72069">
        <ele>148</ele>
        <time>2012-04-01T09:10:13Z</time>
      </trkpt>
      <trkpt lat="47.59523" lon="3.72061">
        <ele>148</ele>
        <time>2012-04-01T09:10:17Z</time>
      </trkpt>
      <trkpt lat="47.59516" lon="3.72041">
        <ele>157</ele>
        <time>2012-04-01T09:10:26Z</time>
      </trkpt>
      <trkpt lat="47.59515" lon="3.72034">
        <ele>157</ele>
        <time>2012-04-01T09:10:28Z</time>
      </trkpt>
      <trkpt lat="47.59516" lon="3.72025">
        <ele>156</ele>
        <time>2012-04-01T09:10:32Z</time>
      </trkpt>
      <trkpt lat="47.59516" lon="3.72018">
        <ele>156</ele>
        <time>2012-04-01T09:10:36Z</time>
      </trkpt>
      <trkpt lat="47.59516" lon="3.7201">
        <ele>157</ele>
        <time>2012-04-01T09:10:41Z</time>
      </trkpt>
      <trkpt lat="47.59516" lon="3.71994">
        <ele>153</ele>
        <time>2012-04-01T09:10:50Z</time>
      </trkpt>
      <trkpt lat="47.59514" lon="3.71987">
        <ele>154</ele>
        <time>2012-04-01T09:10:54Z</time>
      </trkpt>
      <trkpt lat="47.59514" lon="3.71979">
        <ele>154</ele>
        <time>2012-04-01T09:10:57Z</time>
      </trkpt>
      <trkpt lat="47.59514" lon="3.71956">
        <ele>157</ele>
        <time>2012-04-01T09:11:07Z</time>
      </trkpt>
      <trkpt lat="47.5951" lon="3.7195">
        <ele>152</ele>
        <time>2012-04-01T09:11:11Z</time>
      </trkpt>
      <trkpt lat="47.59507" lon="3.71943">
        <ele>153</ele>
        <time>2012-04-01T09:11:15Z</time>
      </trkpt>
      <trkpt lat="47.59509" lon="3.71935">
        <ele>154</ele>
        <time>2012-04-01T09:11:19Z</time>
      </trkpt>
      <trkpt lat="47.59517" lon="3.71902">
        <ele>148</ele>
        <time>2012-04-01T09:11:38Z</time>
      </trkpt>
      <trkpt lat="47.59517" lon="3.71893">
        <ele>153</ele>
        <time>2012-04-01T09:11:43Z</time>
      </trkpt>
      <trkpt lat="47.59518" lon="3.7187">
        <ele>143</ele>
        <time>2012-04-01T09:11:58Z</time>
      </trkpt>
      <trkpt lat="47.59522" lon="3.71855">
        <ele>146</ele>
        <time>2012-04-01T09:12:04Z</time>
      </trkpt>
      <trkpt lat="47.59524" lon="3.71839">
        <ele>146</ele>
        <time>2012-04-01T09:12:10Z</time>
      </trkpt>
      <trkpt lat="47.5953" lon="3.71811">
        <ele>138</ele>
        <time>2012-04-01T09:12:28Z</time>
      </trkpt>
      <trkpt lat="47.59531" lon="3.71804">
        <ele>138</ele>
        <time>2012-04-01T09:12:32Z</time>
      </trkpt>
      <trkpt lat="47.59534" lon="3.71798">
        <ele>136</ele>
        <time>2012-04-01T09:12:36Z</time>
      </trkpt>
      <trkpt lat="47.59536" lon="3.7179">
        <ele>138</ele>
        <time>2012-04-01T09:12:40Z</time>
      </trkpt>
      <trkpt lat="47.59538" lon="3.71783">
        <ele>138</ele>
        <time>2012-04-01T09:12:43Z</time>
      </trkpt>
      <trkpt lat="47.59539" lon="3.71777">
        <ele>139</ele>
        <time>2012-04-01T09:12:46Z</time>
      </trkpt>
      <trkpt lat="47.59542" lon="3.71769">
        <ele>138</ele>
        <time>2012-04-01T09:12:49Z</time>
      </trkpt>
      <trkpt lat="47.59543" lon="3.71762">
        <ele>139</ele>
        <time>2012-04-01T09:12:52Z</time>
      </trkpt>
      <trkpt lat="47.59544" lon="3.71739">
        <ele>133</ele>
        <time>2012-04-01T09:13:07Z</time>
      </trkpt>
      <trkpt lat="47.59542" lon="3.71732">
        <ele>133</ele>
        <time>2012-04-01T09:13:12Z</time>
      </trkpt>
      <trkpt lat="47.5954" lon="3.71717">
        <ele>137</ele>
        <time>2012-04-01T09:13:16Z</time>
      </trkpt>
      <trkpt lat="47.5954" lon="3.7171">
        <ele>137</ele>
        <time>2012-04-01T09:13:18Z</time>
      </trkpt>
      <trkpt lat="47.59542" lon="3.71694">
        <ele>139</ele>
        <time>2012-04-01T09:13:25Z</time>
      </trkpt>
      <trkpt lat="47.59548" lon="3.71674">
        <ele>136</ele>
        <time>2012-04-01T09:13:36Z</time>
      </trkpt>
      <trkpt lat="47.59547" lon="3.71666">
        <ele>133</ele>
        <time>2012-04-01T09:13:40Z</time>
      </trkpt>
      <trkpt lat="47.59548" lon="3.7166">
        <ele>133</ele>
        <time>2012-04-01T09:13:42Z</time>
      </trkpt>
      <trkpt lat="47.5955" lon="3.71639">
        <ele>130</ele>
        <time>2012-04-01T09:13:53Z</time>
      </trkpt>
      <trkpt lat="47.59549" lon="3.71622">
        <ele>130</ele>
        <time>2012-04-01T09:14:02Z</time>
      </trkpt>
      <trkpt lat="47.59546" lon="3.71614">
        <ele>129</ele>
        <time>2012-04-01T09:14:06Z</time>
      </trkpt>
      <trkpt lat="47.59544" lon="3.71606">
        <ele>130</ele>
        <time>2012-04-01T09:14:09Z</time>
      </trkpt>
      <trkpt lat="47.59542" lon="3.71599">
        <ele>129</ele>
        <time>2012-04-01T09:14:12Z</time>
      </trkpt>
      <trkpt lat="47.59542" lon="3.71591">
        <ele>129</ele>
        <time>2012-04-01T09:14:15Z</time>
      </trkpt>
      <trkpt lat="47.5954" lon="3.71584">
        <ele>131</ele>
        <time>2012-04-01T09:14:20Z</time>
      </trkpt>
      <trkpt lat="47.59535" lon="3.71571">
        <ele>131</ele>
        <time>2012-04-01T09:14:28Z</time>
      </trkpt>
      <trkpt lat="47.59533" lon="3.71564">
        <ele>132</ele>
        <time>2012-04-01T09:14:31Z</time>
      </trkpt>
      <trkpt lat="47.5953" lon="3.71558">
        <ele>131</ele>
        <time>2012-04-01T09:14:34Z</time>
      </trkpt>
      <trkpt lat="47.59527" lon="3.71552">
        <ele>133</ele>
        <time>2012-04-01T09:14:39Z</time>
      </trkpt>
      <trkpt lat="47.59527" lon="3.71537">
        <ele>128</ele>
        <time>2012-04-01T09:14:46Z</time>
      </trkpt>
      <trkpt lat="47.59525" lon="3.71529">
        <ele>132</ele>
        <time>2012-04-01T09:14:49Z</time>
      </trkpt>
      <trkpt lat="47.59526" lon="3.71521">
        <ele>131</ele>
        <time>2012-04-01T09:14:52Z</time>
      </trkpt>
      <trkpt lat="47.59525" lon="3.71514">
        <ele>131</ele>
        <time>2012-04-01T09:14:58Z</time>
      </trkpt>
      <trkpt lat="47.59519" lon="3.71485">
        <ele>124</ele>
        <time>2012-04-01T09:15:15Z</time>
      </trkpt>
      <trkpt lat="47.59517" lon="3.71478">
        <ele>126</ele>
        <time>2012-04-01T09:15:18Z</time>
      </trkpt>
      <trkpt lat="47.59515" lon="3.71471">
        <ele>125</ele>
        <time>2012-04-01T09:15:21Z</time>
      </trkpt>
      <trkpt lat="47.59511" lon="3.71465">
        <ele>125</ele>
        <time>2012-04-01T09:15:24Z</time>
      </trkpt>
      <trkpt lat="47.59505" lon="3.71452">
        <ele>128</ele>
        <time>2012-04-01T09:15:29Z</time>
      </trkpt>
      <trkpt lat="47.59501" lon="3.71439">
        <ele>124</ele>
        <time>2012-04-01T09:15:37Z</time>
      </trkpt>
      <trkpt lat="47.595" lon="3.71431">
        <ele>124</ele>
        <time>2012-04-01T09:15:40Z</time>
      </trkpt>
      <trkpt lat="47.59499" lon="3.71423">
        <ele>123</ele>
        <time>2012-04-01T09:15:43Z</time>
      </trkpt>
      <trkpt lat="47.59495" lon="3.71418">
        <ele>120</ele>
        <time>2012-04-01T09:15:48Z</time>
      </trkpt>
      <trkpt lat="47.59491" lon="3.71414">
        <ele>122</ele>
        <time>2012-04-01T09:15:52Z</time>
      </trkpt>
      <trkpt lat="47.59493" lon="3.71404">
        <ele>132</ele>
        <time>2012-04-01T09:15:54Z</time>
      </trkpt>
      <trkpt lat="47.59496" lon="3.71406">
        <ele>121</ele>
        <time>2012-04-01T09:16:32Z</time>
      </trkpt>
      <trkpt lat="47.59495" lon="3.71409">
        <ele>124</ele>
        <time>2012-04-01T09:17:03Z</time>
      </trkpt>
      <trkpt lat="47.59491" lon="3.71407">
        <ele>124</ele>
        <time>2012-04-01T09:17:12Z</time>
      </trkpt>
      <trkpt lat="47.59491" lon="3.71413">
        <ele>121</ele>
        <time>2012-04-01T09:17:50Z</time>
      </trkpt>
      <trkpt lat="47.59486" lon="3.71416">
        <ele>119</ele>
        <time>2012-04-01T09:17:58Z</time>
      </trkpt>
      <trkpt lat="47.59483" lon="3.7141">
        <ele>118</ele>
        <time>2012-04-01T09:18:04Z</time>
      </trkpt>
      <trkpt lat="47.59478" lon="3.71411">
        <ele>118</ele>
        <time>2012-04-01T09:18:46Z</time>
      </trkpt>
      <trkpt lat="47.59481" lon="3.71412">
        <ele>118</ele>
        <time>2012-04-01T09:20:05Z</time>
      </trkpt>
      <trkpt lat="47.59484" lon="3.71414">
        <ele>117</ele>
        <time>2012-04-01T09:20:14Z</time>
      </trkpt>
      <trkpt lat="47.59488" lon="3.71409">
        <ele>115</ele>
        <time>2012-04-01T09:20:27Z</time>
      </trkpt>
      <trkpt lat="47.59492" lon="3.71404">
        <ele>118</ele>
        <time>2012-04-01T09:20:32Z</time>
      </trkpt>
      <trkpt lat="47.59497" lon="3.71402">
        <ele>117</ele>
        <time>2012-04-01T09:20:36Z</time>
      </trkpt>
      <trkpt lat="47.59502" lon="3.71396">
        <ele>113</ele>
        <time>2012-04-01T09:21:30Z</time>
      </trkpt>
      <trkpt lat="47.59504" lon="3.71392">
        <ele>113</ele>
        <time>2012-04-01T09:21:36Z</time>
      </trkpt>
      <trkpt lat="47.59502" lon="3.71378">
        <ele>115</ele>
        <time>2012-04-01T09:21:42Z</time>
      </trkpt>
      <trkpt lat="47.59503" lon="3.71371">
        <ele>115</ele>
        <time>2012-04-01T09:21:44Z</time>
      </trkpt>
      <trkpt lat="47.59503" lon="3.71363">
        <ele>116</ele>
        <time>2012-04-01T09:21:47Z</time>
      </trkpt>
      <trkpt lat="47.59505" lon="3.71356">
        <ele>118</ele>
        <time>2012-04-01T09:21:50Z</time>
      </trkpt>
      <trkpt lat="47.59506" lon="3.71348">
        <ele>118</ele>
        <time>2012-04-01T09:21:53Z</time>
      </trkpt>
      <trkpt lat="47.59507" lon="3.71325">
        <ele>123</ele>
        <time>2012-04-01T09:22:07Z</time>
      </trkpt>
      <trkpt lat="47.59508" lon="3.71311">
        <ele>119</ele>
        <time>2012-04-01T09:22:15Z</time>
      </trkpt>
      <trkpt lat="47.59508" lon="3.71303">
        <ele>120</ele>
        <time>2012-04-01T09:22:21Z</time>
      </trkpt>
      <trkpt lat="47.59507" lon="3.71296">
        <ele>118</ele>
        <time>2012-04-01T09:22:24Z</time>
      </trkpt>
      <trkpt lat="47.59508" lon="3.71289">
        <ele>120</ele>
        <time>2012-04-01T09:22:28Z</time>
      </trkpt>
      <trkpt lat="47.59507" lon="3.71273">
        <ele>116</ele>
        <time>2012-04-01T09:22:39Z</time>
      </trkpt>
      <trkpt lat="47.59507" lon="3.71266">
        <ele>117</ele>
        <time>2012-04-01T09:22:43Z</time>
      </trkpt>
      <trkpt lat="47.59507" lon="3.71259">
        <ele>116</ele>
        <time>2012-04-01T09:22:47Z</time>
      </trkpt>
      <trkpt lat="47.59506" lon="3.71252">
        <ele>116</ele>
        <time>2012-04-01T09:22:50Z</time>
      </trkpt>
      <trkpt lat="47.59504" lon="3.71244">
        <ele>117</ele>
        <time>2012-04-01T09:22:54Z</time>
      </trkpt>
      <trkpt lat="47.59504" lon="3.71238">
        <ele>116</ele>
        <time>2012-04-01T09:22:57Z</time>
      </trkpt>
      <trkpt lat="47.59505" lon="3.71229">
        <ele>116</ele>
        <time>2012-04-01T09:23:01Z</time>
      </trkpt>
      <trkpt lat="47.59506" lon="3.71222">
        <ele>117</ele>
        <time>2012-04-01T09:23:05Z</time>
      </trkpt>
      <trkpt lat="47.59506" lon="3.71219">
        <ele>117</ele>
        <time>2012-04-01T09:23:29Z</time>
      </trkpt>
      <trkpt lat="47.59508" lon="3.71222">
        <ele>115</ele>
        <time>2012-04-01T09:24:02Z</time>
      </trkpt>
      <trkpt lat="47.59509" lon="3.7124">
        <ele>113</ele>
        <time>2012-04-01T09:24:06Z</time>
      </trkpt>
      <trkpt lat="47.59513" lon="3.71232">
        <ele>115</ele>
        <time>2012-04-01T09:24:14Z</time>
      </trkpt>
      <trkpt lat="47.59514" lon="3.71219">
        <ele>118</ele>
        <time>2012-04-01T09:24:26Z</time>
      </trkpt>
      <trkpt lat="47.59507" lon="3.71216">
        <ele>118</ele>
        <time>2012-04-01T09:25:07Z</time>
      </trkpt>
      <trkpt lat="47.59509" lon="3.71221">
        <ele>118</ele>
        <time>2012-04-01T09:25:40Z</time>
      </trkpt>
      <trkpt lat="47.59511" lon="3.71218">
        <ele>119</ele>
        <time>2012-04-01T09:28:39Z</time>
      </trkpt>
      <trkpt lat="47.59514" lon="3.71218">
        <ele>118</ele>
        <time>2012-04-01T09:29:07Z</time>
      </trkpt>
      <trkpt lat="47.59517" lon="3.71219">
        <ele>124</ele>
        <time>2012-04-01T09:30:12Z</time>
      </trkpt>
      <trkpt lat="47.59519" lon="3.71216">
        <ele>123</ele>
        <time>2012-04-01T09:30:26Z</time>
      </trkpt>
      <trkpt lat="47.59515" lon="3.71212">
        <ele>133</ele>
        <time>2012-04-01T09:30:39Z</time>
      </trkpt>
      <trkpt lat="47.59509" lon="3.71211">
        <ele>129</ele>
        <time>2012-04-01T09:30:42Z</time>
      </trkpt>
      <trkpt lat="47.59506" lon="3.71217">
        <ele>128</ele>
        <time>2012-04-01T09:30:54Z</time>
      </trkpt>
      <trkpt lat="47.59503" lon="3.71221">
        <ele>127</ele>
        <time>2012-04-01T09:31:11Z</time>
      </trkpt>
      <trkpt lat="47.59504" lon="3.71211">
        <ele>124</ele>
        <time>2012-04-01T09:31:26Z</time>
      </trkpt>
      <trkpt lat="47.59506" lon="3.71197">
        <ele>121</ele>
        <time>2012-04-01T09:31:34Z</time>
      </trkpt>
      <trkpt lat="47.59507" lon="3.71191">
        <ele>121</ele>
        <time>2012-04-01T09:31:39Z</time>
      </trkpt>
      <trkpt lat="47.59509" lon="3.71168">
        <ele>115</ele>
        <time>2012-04-01T09:31:52Z</time>
      </trkpt>
      <trkpt lat="47.59508" lon="3.71159">
        <ele>117</ele>
        <time>2012-04-01T09:31:57Z</time>
      </trkpt>
      <trkpt lat="47.59507" lon="3.7115">
        <ele>117</ele>
        <time>2012-04-01T09:32:00Z</time>
      </trkpt>
      <trkpt lat="47.59504" lon="3.71137">
        <ele>113</ele>
        <time>2012-04-01T09:32:08Z</time>
      </trkpt>
      <trkpt lat="47.59504" lon="3.71128">
        <ele>113</ele>
        <time>2012-04-01T09:32:13Z</time>
      </trkpt>
      <trkpt lat="47.59505" lon="3.7112">
        <ele>111</ele>
        <time>2012-04-01T09:32:17Z</time>
      </trkpt>
      <trkpt lat="47.59503" lon="3.71098">
        <ele>116</ele>
        <time>2012-04-01T09:32:27Z</time>
      </trkpt>
      <trkpt lat="47.59502" lon="3.71091">
        <ele>115</ele>
        <time>2012-04-01T09:32:30Z</time>
      </trkpt>
      <trkpt lat="47.59502" lon="3.71084">
        <ele>115</ele>
        <time>2012-04-01T09:32:34Z</time>
      </trkpt>
      <trkpt lat="47.59502" lon="3.71076">
        <ele>116</ele>
        <time>2012-04-01T09:32:39Z</time>
      </trkpt>
      <trkpt lat="47.59502" lon="3.71069">
        <ele>115</ele>
        <time>2012-04-01T09:32:43Z</time>
      </trkpt>
      <trkpt lat="47.59497" lon="3.71031">
        <ele>121</ele>
        <time>2012-04-01T09:33:05Z</time>
      </trkpt>
      <trkpt lat="47.59497" lon="3.71024">
        <ele>121</ele>
        <time>2012-04-01T09:33:08Z</time>
      </trkpt>
      <trkpt lat="47.59498" lon="3.71017">
        <ele>122</ele>
        <time>2012-04-01T09:33:11Z</time>
      </trkpt>
      <trkpt lat="47.59496" lon="3.70994">
        <ele>119</ele>
        <time>2012-04-01T09:33:23Z</time>
      </trkpt>
      <trkpt lat="47.59496" lon="3.70986">
        <ele>120</ele>
        <time>2012-04-01T09:33:27Z</time>
      </trkpt>
      <trkpt lat="47.59494" lon="3.70978">
        <ele>119</ele>
        <time>2012-04-01T09:33:31Z</time>
      </trkpt>
      <trkpt lat="47.59493" lon="3.70971">
        <ele>120</ele>
        <time>2012-04-01T09:33:34Z</time>
      </trkpt>
      <trkpt lat="47.59493" lon="3.70954">
        <ele>120</ele>
        <time>2012-04-01T09:33:42Z</time>
      </trkpt>
      <trkpt lat="47.59492" lon="3.70946">
        <ele>119</ele>
        <time>2012-04-01T09:33:48Z</time>
      </trkpt>
      <trkpt lat="47.59491" lon="3.70931">
        <ele>122</ele>
        <time>2012-04-01T09:33:56Z</time>
      </trkpt>
      <trkpt lat="47.59491" lon="3.70923">
        <ele>121</ele>
        <time>2012-04-01T09:34:01Z</time>
      </trkpt>
      <trkpt lat="47.59492" lon="3.70916">
        <ele>122</ele>
        <time>2012-04-01T09:34:05Z</time>
      </trkpt>
      <trkpt lat="47.59492" lon="3.70909">
        <ele>120</ele>
        <time>2012-04-01T09:34:09Z</time>
      </trkpt>
      <trkpt lat="47.59492" lon="3.70902">
        <ele>120</ele>
        <time>2012-04-01T09:34:13Z</time>
      </trkpt>
      <trkpt lat="47.59492" lon="3.70895">
        <ele>119</ele>
        <time>2012-04-01T09:34:17Z</time>
      </trkpt>
      <trkpt lat="47.5949" lon="3.70888">
        <ele>119</ele>
        <time>2012-04-01T09:34:20Z</time>
      </trkpt>
      <trkpt lat="47.59491" lon="3.7088">
        <ele>118</ele>
        <time>2012-04-01T09:34:25Z</time>
      </trkpt>
      <trkpt lat="47.59492" lon="3.70873">
        <ele>119</ele>
        <time>2012-04-01T09:34:29Z</time>
      </trkpt>
      <trkpt lat="47.59494" lon="3.70865">
        <ele>118</ele>
        <time>2012-04-01T09:34:35Z</time>
      </trkpt>
      <trkpt lat="47.59494" lon="3.70858">
        <ele>118</ele>
        <time>2012-04-01T09:34:39Z</time>
      </trkpt>
      <trkpt lat="47.59495" lon="3.70851">
        <ele>117</ele>
        <time>2012-04-01T09:34:43Z</time>
      </trkpt>
      <trkpt lat="47.59495" lon="3.70844">
        <ele>117</ele>
        <time>2012-04-01T09:34:47Z</time>
      </trkpt>
      <trkpt lat="47.59496" lon="3.70835">
        <ele>116</ele>
        <time>2012-04-01T09:34:50Z</time>
      </trkpt>
      <trkpt lat="47.59496" lon="3.70828">
        <ele>116</ele>
        <time>2012-04-01T09:34:52Z</time>
      </trkpt>
      <trkpt lat="47.59497" lon="3.70821">
        <ele>114</ele>
        <time>2012-04-01T09:34:55Z</time>
      </trkpt>
      <trkpt lat="47.59498" lon="3.70812">
        <ele>114</ele>
        <time>2012-04-01T09:35:01Z</time>
      </trkpt>
      <trkpt lat="47.59497" lon="3.70805">
        <ele>115</ele>
        <time>2012-04-01T09:35:04Z</time>
      </trkpt>
      <trkpt lat="47.59497" lon="3.70799">
        <ele>115</ele>
        <time>2012-04-01T09:35:08Z</time>
      </trkpt>
      <trkpt lat="47.59497" lon="3.70792">
        <ele>113</ele>
        <time>2012-04-01T09:35:12Z</time>
      </trkpt>
      <trkpt lat="47.59497" lon="3.70785">
        <ele>113</ele>
        <time>2012-04-01T09:35:16Z</time>
      </trkpt>
      <trkpt lat="47.59498" lon="3.70777">
        <ele>115</ele>
        <time>2012-04-01T09:35:21Z</time>
      </trkpt>
      <trkpt lat="47.59498" lon="3.70746">
        <ele>115</ele>
        <time>2012-04-01T09:35:38Z</time>
      </trkpt>
      <trkpt lat="47.59498" lon="3.70739">
        <ele>117</ele>
        <time>2012-04-01T09:35:41Z</time>
      </trkpt>
      <trkpt lat="47.59498" lon="3.70732">
        <ele>117</ele>
        <time>2012-04-01T09:35:44Z</time>
      </trkpt>
      <trkpt lat="47.59499" lon="3.70725">
        <ele>115</ele>
        <time>2012-04-01T09:35:50Z</time>
      </trkpt>
      <trkpt lat="47.595" lon="3.70709">
        <ele>115</ele>
        <time>2012-04-01T09:36:00Z</time>
      </trkpt>
      <trkpt lat="47.595" lon="3.70702">
        <ele>114</ele>
        <time>2012-04-01T09:36:04Z</time>
      </trkpt>
      <trkpt lat="47.59499" lon="3.70688">
        <ele>117</ele>
        <time>2012-04-01T09:36:10Z</time>
      </trkpt>
      <trkpt lat="47.59499" lon="3.70674">
        <ele>115</ele>
        <time>2012-04-01T09:36:18Z</time>
      </trkpt>
      <trkpt lat="47.59499" lon="3.70666">
        <ele>116</ele>
        <time>2012-04-01T09:36:22Z</time>
      </trkpt>
      <trkpt lat="47.59499" lon="3.70645">
        <ele>110</ele>
        <time>2012-04-01T09:36:36Z</time>
      </trkpt>
      <trkpt lat="47.59499" lon="3.70638">
        <ele>110</ele>
        <time>2012-04-01T09:36:39Z</time>
      </trkpt>
      <trkpt lat="47.59499" lon="3.70608">
        <ele>114</ele>
        <time>2012-04-01T09:36:54Z</time>
      </trkpt>
      <trkpt lat="47.59499" lon="3.706">
        <ele>113</ele>
        <time>2012-04-01T09:36:58Z</time>
      </trkpt>
      <trkpt lat="47.595" lon="3.70593">
        <ele>113</ele>
        <time>2012-04-01T09:37:03Z</time>
      </trkpt>
      <trkpt lat="47.59501" lon="3.70578">
        <ele>109</ele>
        <time>2012-04-01T09:37:11Z</time>
      </trkpt>
      <trkpt lat="47.595" lon="3.70571">
        <ele>109</ele>
        <time>2012-04-01T09:37:17Z</time>
      </trkpt>
      <trkpt lat="47.595" lon="3.70562">
        <ele>111</ele>
        <time>2012-04-01T09:37:21Z</time>
      </trkpt>
      <trkpt lat="47.59502" lon="3.70531">
        <ele>105</ele>
        <time>2012-04-01T09:37:35Z</time>
      </trkpt>
      <trkpt lat="47.59502" lon="3.70523">
        <ele>107</ele>
        <time>2012-04-01T09:37:39Z</time>
      </trkpt>
      <trkpt lat="47.59502" lon="3.70508">
        <ele>107</ele>
        <time>2012-04-01T09:37:47Z</time>
      </trkpt>
      <trkpt lat="47.59504" lon="3.70492">
        <ele>104</ele>
        <time>2012-04-01T09:37:56Z</time>
      </trkpt>
      <trkpt lat="47.59503" lon="3.70477">
        <ele>106</ele>
        <time>2012-04-01T09:38:04Z</time>
      </trkpt>
      <trkpt lat="47.59503" lon="3.70463">
        <ele>106</ele>
        <time>2012-04-01T09:38:12Z</time>
      </trkpt>
      <trkpt lat="47.59502" lon="3.70454">
        <ele>109</ele>
        <time>2012-04-01T09:38:17Z</time>
      </trkpt>
      <trkpt lat="47.59504" lon="3.70434">
        <ele>106</ele>
        <time>2012-04-01T09:38:28Z</time>
      </trkpt>
      <trkpt lat="47.59506" lon="3.70425">
        <ele>107</ele>
        <time>2012-04-01T09:38:32Z</time>
      </trkpt>
      <trkpt lat="47.59508" lon="3.70419">
        <ele>107</ele>
        <time>2012-04-01T09:38:35Z</time>
      </trkpt>
      <trkpt lat="47.59512" lon="3.70404">
        <ele>110</ele>
        <time>2012-04-01T09:38:43Z</time>
      </trkpt>
      <trkpt lat="47.59514" lon="3.70396">
        <ele>110</ele>
        <time>2012-04-01T09:38:47Z</time>
      </trkpt>
      <trkpt lat="47.59514" lon="3.70389">
        <ele>109</ele>
        <time>2012-04-01T09:38:51Z</time>
      </trkpt>
      <trkpt lat="47.59518" lon="3.70384">
        <ele>112</ele>
        <time>2012-04-01T09:38:54Z</time>
      </trkpt>
      <trkpt lat="47.59522" lon="3.7038">
        <ele>112</ele>
        <time>2012-04-01T09:38:57Z</time>
      </trkpt>
      <trkpt lat="47.59523" lon="3.70371">
        <ele>113</ele>
        <time>2012-04-01T09:39:01Z</time>
      </trkpt>
      <trkpt lat="47.59522" lon="3.70364">
        <ele>114</ele>
        <time>2012-04-01T09:39:04Z</time>
      </trkpt>
      <trkpt lat="47.59521" lon="3.70356">
        <ele>114</ele>
        <time>2012-04-01T09:39:08Z</time>
      </trkpt>
      <trkpt lat="47.59523" lon="3.70349">
        <ele>114</ele>
        <time>2012-04-01T09:39:12Z</time>
      </trkpt>
      <trkpt lat="47.59525" lon="3.70342">
        <ele>115</ele>
        <time>2012-04-01T09:39:16Z</time>
      </trkpt>
      <trkpt lat="47.59528" lon="3.70336">
        <ele>114</ele>
        <time>2012-04-01T09:39:20Z</time>
      </trkpt>
      <trkpt lat="47.59528" lon="3.70299">
        <ele>109</ele>
        <time>2012-04-01T09:39:39Z</time>
      </trkpt>
      <trkpt lat="47.59524" lon="3.70276">
        <ele>109</ele>
        <time>2012-04-01T09:39:51Z</time>
      </trkpt>
      <trkpt lat="47.59524" lon="3.70269">
        <ele>111</ele>
        <time>2012-04-01T09:39:53Z</time>
      </trkpt>
      <trkpt lat="47.59524" lon="3.70261">
        <ele>111</ele>
        <time>2012-04-01T09:39:58Z</time>
      </trkpt>
      <trkpt lat="47.59524" lon="3.70254">
        <ele>110</ele>
        <time>2012-04-01T09:40:01Z</time>
      </trkpt>
      <trkpt lat="47.59524" lon="3.70246">
        <ele>111</ele>
        <time>2012-04-01T09:40:05Z</time>
      </trkpt>
      <trkpt lat="47.59524" lon="3.70232">
        <ele>107</ele>
        <time>2012-04-01T09:40:14Z</time>
      </trkpt>
      <trkpt lat="47.59523" lon="3.70217">
        <ele>110</ele>
        <time>2012-04-01T09:40:20Z</time>
      </trkpt>
      <trkpt lat="47.59524" lon="3.7021">
        <ele>109</ele>
        <time>2012-04-01T09:40:24Z</time>
      </trkpt>
      <trkpt lat="47.59525" lon="3.70195">
        <ele>111</ele>
        <time>2012-04-01T09:40:33Z</time>
      </trkpt>
      <trkpt lat="47.59527" lon="3.7018">
        <ele>108</ele>
        <time>2012-04-01T09:40:41Z</time>
      </trkpt>
      <trkpt lat="47.59528" lon="3.70158">
        <ele>108</ele>
        <time>2012-04-01T09:40:52Z</time>
      </trkpt>
      <trkpt lat="47.5953" lon="3.7015">
        <ele>109</ele>
        <time>2012-04-01T09:40:59Z</time>
      </trkpt>
      <trkpt lat="47.59531" lon="3.70142">
        <ele>108</ele>
        <time>2012-04-01T09:41:03Z</time>
      </trkpt>
      <trkpt lat="47.59531" lon="3.70135">
        <ele>108</ele>
        <time>2012-04-01T09:41:07Z</time>
      </trkpt>
      <trkpt lat="47.59533" lon="3.70121">
        <ele>104</ele>
        <time>2012-04-01T09:41:15Z</time>
      </trkpt>
      <trkpt lat="47.59534" lon="3.70113">
        <ele>104</ele>
        <time>2012-04-01T09:41:19Z</time>
      </trkpt>
      <trkpt lat="47.59534" lon="3.70105">
        <ele>106</ele>
        <time>2012-04-01T09:41:23Z</time>
      </trkpt>
      <trkpt lat="47.59535" lon="3.70098">
        <ele>106</ele>
        <time>2012-04-01T09:41:27Z</time>
      </trkpt>
      <trkpt lat="47.59538" lon="3.70082">
        <ele>108</ele>
        <time>2012-04-01T09:41:36Z</time>
      </trkpt>
      <trkpt lat="47.59537" lon="3.70074">
        <ele>109</ele>
        <time>2012-04-01T09:41:40Z</time>
      </trkpt>
      <trkpt lat="47.59538" lon="3.70067">
        <ele>107</ele>
        <time>2012-04-01T09:41:44Z</time>
      </trkpt>
      <trkpt lat="47.59539" lon="3.70051">
        <ele>111</ele>
        <time>2012-04-01T09:41:51Z</time>
      </trkpt>
      <trkpt lat="47.5954" lon="3.70043">
        <ele>107</ele>
        <time>2012-04-01T09:41:55Z</time>
      </trkpt>
      <trkpt lat="47.59542" lon="3.70036">
        <ele>109</ele>
        <time>2012-04-01T09:41:59Z</time>
      </trkpt>
      <trkpt lat="47.59544" lon="3.70014">
        <ele>102</ele>
        <time>2012-04-01T09:42:09Z</time>
      </trkpt>
      <trkpt lat="47.59545" lon="3.70006">
        <ele>103</ele>
        <time>2012-04-01T09:42:17Z</time>
      </trkpt>
      <trkpt lat="47.59546" lon="3.69999">
        <ele>100</ele>
        <time>2012-04-01T09:42:23Z</time>
      </trkpt>
      <trkpt lat="47.59548" lon="3.69984">
        <ele>102</ele>
        <time>2012-04-01T09:42:34Z</time>
      </trkpt>
      <trkpt lat="47.5955" lon="3.69975">
        <ele>102</ele>
        <time>2012-04-01T09:42:38Z</time>
      </trkpt>
      <trkpt lat="47.5955" lon="3.69962">
        <ele>104</ele>
        <time>2012-04-01T09:42:44Z</time>
      </trkpt>
      <trkpt lat="47.59551" lon="3.69954">
        <ele>104</ele>
        <time>2012-04-01T09:42:50Z</time>
      </trkpt>
      <trkpt lat="47.5955" lon="3.69945">
        <ele>103</ele>
        <time>2012-04-01T09:42:54Z</time>
      </trkpt>
      <trkpt lat="47.5955" lon="3.69938">
        <ele>106</ele>
        <time>2012-04-01T09:42:59Z</time>
      </trkpt>
      <trkpt lat="47.5955" lon="3.69929">
        <ele>106</ele>
        <time>2012-04-01T09:43:03Z</time>
      </trkpt>
      <trkpt lat="47.59549" lon="3.69909">
        <ele>115</ele>
        <time>2012-04-01T09:43:12Z</time>
      </trkpt>
      <trkpt lat="47.59549" lon="3.69902">
        <ele>114</ele>
        <time>2012-04-01T09:43:17Z</time>
      </trkpt>
      <trkpt lat="47.59545" lon="3.69872">
        <ele>118</ele>
        <time>2012-04-01T09:43:38Z</time>
      </trkpt>
      <trkpt lat="47.59545" lon="3.69864">
        <ele>116</ele>
        <time>2012-04-01T09:43:42Z</time>
      </trkpt>
      <trkpt lat="47.59545" lon="3.69856">
        <ele>118</ele>
        <time>2012-04-01T09:43:46Z</time>
      </trkpt>
      <trkpt lat="47.59543" lon="3.69849">
        <ele>118</ele>
        <time>2012-04-01T09:43:50Z</time>
      </trkpt>
      <trkpt lat="47.59542" lon="3.69834">
        <ele>120</ele>
        <time>2012-04-01T09:43:58Z</time>
      </trkpt>
      <trkpt lat="47.59543" lon="3.6982">
        <ele>120</ele>
        <time>2012-04-01T09:44:07Z</time>
      </trkpt>
      <trkpt lat="47.59542" lon="3.69813">
        <ele>119</ele>
        <time>2012-04-01T09:44:11Z</time>
      </trkpt>
      <trkpt lat="47.59541" lon="3.69806">
        <ele>121</ele>
        <time>2012-04-01T09:44:15Z</time>
      </trkpt>
      <trkpt lat="47.5954" lon="3.69791">
        <ele>119</ele>
        <time>2012-04-01T09:44:25Z</time>
      </trkpt>
      <trkpt lat="47.59539" lon="3.69784">
        <ele>120</ele>
        <time>2012-04-01T09:44:29Z</time>
      </trkpt>
      <trkpt lat="47.59539" lon="3.69776">
        <ele>119</ele>
        <time>2012-04-01T09:44:34Z</time>
      </trkpt>
      <trkpt lat="47.59537" lon="3.69768">
        <ele>121</ele>
        <time>2012-04-01T09:44:38Z</time>
      </trkpt>
      <trkpt lat="47.59535" lon="3.6976">
        <ele>119</ele>
        <time>2012-04-01T09:44:40Z</time>
      </trkpt>
      <trkpt lat="47.59534" lon="3.69753">
        <ele>121</ele>
        <time>2012-04-01T09:44:44Z</time>
      </trkpt>
      <trkpt lat="47.59531" lon="3.69734">
        <ele>121</ele>
        <time>2012-04-01T09:44:55Z</time>
      </trkpt>
      <trkpt lat="47.5953" lon="3.69726">
        <ele>123</ele>
        <time>2012-04-01T09:44:57Z</time>
      </trkpt>
      <trkpt lat="47.59531" lon="3.69718">
        <ele>123</ele>
        <time>2012-04-01T09:45:02Z</time>
      </trkpt>
      <trkpt lat="47.59531" lon="3.6971">
        <ele>122</ele>
        <time>2012-04-01T09:45:06Z</time>
      </trkpt>
      <trkpt lat="47.59531" lon="3.69702">
        <ele>122</ele>
        <time>2012-04-01T09:45:12Z</time>
      </trkpt>
      <trkpt lat="47.59531" lon="3.69688">
        <ele>119</ele>
        <time>2012-04-01T09:45:24Z</time>
      </trkpt>
      <trkpt lat="47.59529" lon="3.69672">
        <ele>122</ele>
        <time>2012-04-01T09:45:33Z</time>
      </trkpt>
      <trkpt lat="47.59529" lon="3.69665">
        <ele>121</ele>
        <time>2012-04-01T09:45:39Z</time>
      </trkpt>
      <trkpt lat="47.59527" lon="3.69651">
        <ele>121</ele>
        <time>2012-04-01T09:45:49Z</time>
      </trkpt>
      <trkpt lat="47.5953" lon="3.69634">
        <ele>115</ele>
        <time>2012-04-01T09:46:07Z</time>
      </trkpt>
      <trkpt lat="47.5953" lon="3.69606">
        <ele>120</ele>
        <time>2012-04-01T09:46:24Z</time>
      </trkpt>
      <trkpt lat="47.59532" lon="3.69581">
        <ele>115</ele>
        <time>2012-04-01T09:46:39Z</time>
      </trkpt>
      <trkpt lat="47.59532" lon="3.69574">
        <ele>117</ele>
        <time>2012-04-01T09:46:42Z</time>
      </trkpt>
      <trkpt lat="47.59532" lon="3.69567">
        <ele>114</ele>
        <time>2012-04-01T09:46:49Z</time>
      </trkpt>
      <trkpt lat="47.59528" lon="3.69533">
        <ele>114</ele>
        <time>2012-04-01T09:47:04Z</time>
      </trkpt>
      <trkpt lat="47.59527" lon="3.69526">
        <ele>119</ele>
        <time>2012-04-01T09:47:08Z</time>
      </trkpt>
      <trkpt lat="47.59524" lon="3.69521">
        <ele>119</ele>
        <time>2012-04-01T09:47:12Z</time>
      </trkpt>
      <trkpt lat="47.59523" lon="3.69512">
        <ele>118</ele>
        <time>2012-04-01T09:47:16Z</time>
      </trkpt>
      <trkpt lat="47.59523" lon="3.69505">
        <ele>118</ele>
        <time>2012-04-01T09:47:19Z</time>
      </trkpt>
      <trkpt lat="47.59526" lon="3.695">
        <ele>120</ele>
        <time>2012-04-01T09:47:24Z</time>
      </trkpt>
      <trkpt lat="47.59527" lon="3.69493">
        <ele>118</ele>
        <time>2012-04-01T09:47:28Z</time>
      </trkpt>
      <trkpt lat="47.5953" lon="3.69488">
        <ele>118</ele>
        <time>2012-04-01T09:47:32Z</time>
      </trkpt>
      <trkpt lat="47.59529" lon="3.6948">
        <ele>119</ele>
        <time>2012-04-01T09:47:36Z</time>
      </trkpt>
      <trkpt lat="47.59531" lon="3.69459">
        <ele>119</ele>
        <time>2012-04-01T09:47:47Z</time>
      </trkpt>
      <trkpt lat="47.59532" lon="3.69453">
        <ele>120</ele>
        <time>2012-04-01T09:47:51Z</time>
      </trkpt>
      <trkpt lat="47.59532" lon="3.69438">
        <ele>120</ele>
        <time>2012-04-01T09:48:01Z</time>
      </trkpt>
      <trkpt lat="47.59526" lon="3.69415">
        <ele>113</ele>
        <time>2012-04-01T09:48:14Z</time>
      </trkpt>
      <trkpt lat="47.59523" lon="3.69402">
        <ele>119</ele>
        <time>2012-04-01T09:48:20Z</time>
      </trkpt>
      <trkpt lat="47.59521" lon="3.69394">
        <ele>118</ele>
        <time>2012-04-01T09:48:24Z</time>
      </trkpt>
      <trkpt lat="47.59519" lon="3.69387">
        <ele>120</ele>
        <time>2012-04-01T09:48:28Z</time>
      </trkpt>
      <trkpt lat="47.59516" lon="3.69374">
        <ele>120</ele>
        <time>2012-04-01T09:48:34Z</time>
      </trkpt>
      <trkpt lat="47.59515" lon="3.69366">
        <ele>118</ele>
        <time>2012-04-01T09:48:38Z</time>
      </trkpt>
      <trkpt lat="47.59513" lon="3.69359">
        <ele>120</ele>
        <time>2012-04-01T09:48:41Z</time>
      </trkpt>
      <trkpt lat="47.59512" lon="3.69351">
        <ele>119</ele>
        <time>2012-04-01T09:48:45Z</time>
      </trkpt>
      <trkpt lat="47.59511" lon="3.69344">
        <ele>120</ele>
        <time>2012-04-01T09:48:48Z</time>
      </trkpt>
      <trkpt lat="47.59511" lon="3.69335">
        <ele>120</ele>
        <time>2012-04-01T09:48:51Z</time>
      </trkpt>
      <trkpt lat="47.59509" lon="3.69322">
        <ele>122</ele>
        <time>2012-04-01T09:48:58Z</time>
      </trkpt>
      <trkpt lat="47.59507" lon="3.69314">
        <ele>121</ele>
        <time>2012-04-01T09:49:03Z</time>
      </trkpt>
      <trkpt lat="47.59507" lon="3.69306">
        <ele>121</ele>
        <time>2012-04-01T09:49:07Z</time>
      </trkpt>
      <trkpt lat="47.59507" lon="3.69299">
        <ele>120</ele>
        <time>2012-04-01T09:49:13Z</time>
      </trkpt>
      <trkpt lat="47.59506" lon="3.69292">
        <ele>120</ele>
        <time>2012-04-01T09:49:16Z</time>
      </trkpt>
      <trkpt lat="47.59505" lon="3.69275">
        <ele>124</ele>
        <time>2012-04-01T09:49:23Z</time>
      </trkpt>
      <trkpt lat="47.59505" lon="3.69266">
        <ele>123</ele>
        <time>2012-04-01T09:49:26Z</time>
      </trkpt>
      <trkpt lat="47.59504" lon="3.69259">
        <ele>126</ele>
        <time>2012-04-01T09:49:30Z</time>
      </trkpt>
      <trkpt lat="47.59505" lon="3.69252">
        <ele>124</ele>
        <time>2012-04-01T09:49:38Z</time>
      </trkpt>
      <trkpt lat="47.59503" lon="3.69246">
        <ele>124</ele>
        <time>2012-04-01T09:49:44Z</time>
      </trkpt>
      <trkpt lat="47.59501" lon="3.69239">
        <ele>122</ele>
        <time>2012-04-01T09:49:48Z</time>
      </trkpt>
      <trkpt lat="47.59503" lon="3.69233">
        <ele>122</ele>
        <time>2012-04-01T09:49:52Z</time>
      </trkpt>
      <trkpt lat="47.59505" lon="3.69226">
        <ele>122</ele>
        <time>2012-04-01T09:49:57Z</time>
      </trkpt>
      <trkpt lat="47.59509" lon="3.69211">
        <ele>116</ele>
        <time>2012-04-01T09:50:06Z</time>
      </trkpt>
      <trkpt lat="47.59509" lon="3.69204">
        <ele>116</ele>
        <time>2012-04-01T09:50:09Z</time>
      </trkpt>
      <trkpt lat="47.5951" lon="3.69196">
        <ele>117</ele>
        <time>2012-04-01T09:50:12Z</time>
      </trkpt>
      <trkpt lat="47.59511" lon="3.69187">
        <ele>115</ele>
        <time>2012-04-01T09:50:18Z</time>
      </trkpt>
      <trkpt lat="47.59513" lon="3.69173">
        <ele>115</ele>
        <time>2012-04-01T09:50:26Z</time>
      </trkpt>
      <trkpt lat="47.59513" lon="3.69166">
        <ele>116</ele>
        <time>2012-04-01T09:50:30Z</time>
      </trkpt>
      <trkpt lat="47.59514" lon="3.69158">
        <ele>114</ele>
        <time>2012-04-01T09:50:35Z</time>
      </trkpt>
      <trkpt lat="47.59512" lon="3.69151">
        <ele>115</ele>
        <time>2012-04-01T09:50:39Z</time>
      </trkpt>
      <trkpt lat="47.59514" lon="3.69144">
        <ele>114</ele>
        <time>2012-04-01T09:50:44Z</time>
      </trkpt>
      <trkpt lat="47.59514" lon="3.69135">
        <ele>115</ele>
        <time>2012-04-01T09:50:47Z</time>
      </trkpt>
      <trkpt lat="47.59514" lon="3.69128">
        <ele>115</ele>
        <time>2012-04-01T09:50:50Z</time>
      </trkpt>
      <trkpt lat="47.59515" lon="3.6912">
        <ele>116</ele>
        <time>2012-04-01T09:50:54Z</time>
      </trkpt>
      <trkpt lat="47.59515" lon="3.69113">
        <ele>116</ele>
        <time>2012-04-01T09:50:58Z</time>
      </trkpt>
      <trkpt lat="47.59516" lon="3.69106">
        <ele>115</ele>
        <time>2012-04-01T09:51:03Z</time>
      </trkpt>
      <trkpt lat="47.59514" lon="3.69091">
        <ele>120</ele>
        <time>2012-04-01T09:51:12Z</time>
      </trkpt>
      <trkpt lat="47.59513" lon="3.69083">
        <ele>120</ele>
        <time>2012-04-01T09:51:17Z</time>
      </trkpt>
      <trkpt lat="47.59515" lon="3.69068">
        <ele>116</ele>
        <time>2012-04-01T09:51:24Z</time>
      </trkpt>
      <trkpt lat="47.59517" lon="3.69061">
        <ele>116</ele>
        <time>2012-04-01T09:51:28Z</time>
      </trkpt>
      <trkpt lat="47.59527" lon="3.69047">
        <ele>110</ele>
        <time>2012-04-01T09:51:42Z</time>
      </trkpt>
      <trkpt lat="47.59534" lon="3.69028">
        <ele>106</ele>
        <time>2012-04-01T09:51:54Z</time>
      </trkpt>
      <trkpt lat="47.59536" lon="3.69021">
        <ele>106</ele>
        <time>2012-04-01T09:51:58Z</time>
      </trkpt>
      <trkpt lat="47.59539" lon="3.69014">
        <ele>107</ele>
        <time>2012-04-01T09:52:03Z</time>
      </trkpt>
      <trkpt lat="47.59542" lon="3.69008">
        <ele>106</ele>
        <time>2012-04-01T09:52:06Z</time>
      </trkpt>
      <trkpt lat="47.59544" lon="3.69">
        <ele>108</ele>
        <time>2012-04-01T09:52:10Z</time>
      </trkpt>
      <trkpt lat="47.59545" lon="3.68991">
        <ele>108</ele>
        <time>2012-04-01T09:52:14Z</time>
      </trkpt>
      <trkpt lat="47.59547" lon="3.68985">
        <ele>107</ele>
        <time>2012-04-01T09:52:18Z</time>
      </trkpt>
      <trkpt lat="47.5955" lon="3.68977">
        <ele>107</ele>
        <time>2012-04-01T09:52:22Z</time>
      </trkpt>
      <trkpt lat="47.59553" lon="3.68972">
        <ele>105</ele>
        <time>2012-04-01T09:52:26Z</time>
      </trkpt>
      <trkpt lat="47.59559" lon="3.68958">
        <ele>107</ele>
        <time>2012-04-01T09:52:34Z</time>
      </trkpt>
      <trkpt lat="47.59565" lon="3.6894">
        <ele>101</ele>
        <time>2012-04-01T09:52:47Z</time>
      </trkpt>
      <trkpt lat="47.59568" lon="3.68933">
        <ele>105</ele>
        <time>2012-04-01T09:52:51Z</time>
      </trkpt>
      <trkpt lat="47.5957" lon="3.68926">
        <ele>104</ele>
        <time>2012-04-01T09:52:54Z</time>
      </trkpt>
      <trkpt lat="47.59573" lon="3.68919">
        <ele>104</ele>
        <time>2012-04-01T09:52:58Z</time>
      </trkpt>
      <trkpt lat="47.59575" lon="3.68912">
        <ele>102</ele>
        <time>2012-04-01T09:53:02Z</time>
      </trkpt>
      <trkpt lat="47.59577" lon="3.68903">
        <ele>102</ele>
        <time>2012-04-01T09:53:06Z</time>
      </trkpt>
      <trkpt lat="47.59582" lon="3.68891">
        <ele>100</ele>
        <time>2012-04-01T09:53:13Z</time>
      </trkpt>
      <trkpt lat="47.59583" lon="3.68884">
        <ele>101</ele>
        <time>2012-04-01T09:53:16Z</time>
      </trkpt>
      <trkpt lat="47.59586" lon="3.68877">
        <ele>100</ele>
        <time>2012-04-01T09:53:21Z</time>
      </trkpt>
      <trkpt lat="47.59587" lon="3.68871">
        <ele>100</ele>
        <time>2012-04-01T09:53:24Z</time>
      </trkpt>
      <trkpt lat="47.59589" lon="3.68864">
        <ele>102</ele>
        <time>2012-04-01T09:53:29Z</time>
      </trkpt>
      <trkpt lat="47.5959" lon="3.68855">
        <ele>102</ele>
        <time>2012-04-01T09:53:34Z</time>
      </trkpt>
      <trkpt lat="47.59591" lon="3.68841">
        <ele>99</ele>
        <time>2012-04-01T09:53:41Z</time>
      </trkpt>
      <trkpt lat="47.59587" lon="3.6882">
        <ele>99</ele>
        <time>2012-04-01T09:53:52Z</time>
      </trkpt>
      <trkpt lat="47.59587" lon="3.68811">
        <ele>98</ele>
        <time>2012-04-01T09:53:57Z</time>
      </trkpt>
      <trkpt lat="47.59587" lon="3.68804">
        <ele>99</ele>
        <time>2012-04-01T09:54:02Z</time>
      </trkpt>
      <trkpt lat="47.59583" lon="3.68783">
        <ele>107</ele>
        <time>2012-04-01T09:54:12Z</time>
      </trkpt>
      <trkpt lat="47.59582" lon="3.68774">
        <ele>105</ele>
        <time>2012-04-01T09:54:17Z</time>
      </trkpt>
      <trkpt lat="47.59582" lon="3.68766">
        <ele>105</ele>
        <time>2012-04-01T09:54:21Z</time>
      </trkpt>
      <trkpt lat="47.59577" lon="3.68736">
        <ele>111</ele>
        <time>2012-04-01T09:54:33Z</time>
      </trkpt>
      <trkpt lat="47.59575" lon="3.68729">
        <ele>111</ele>
        <time>2012-04-01T09:54:37Z</time>
      </trkpt>
      <trkpt lat="47.5957" lon="3.68708">
        <ele>116</ele>
        <time>2012-04-01T09:54:49Z</time>
      </trkpt>
      <trkpt lat="47.59569" lon="3.68702">
        <ele>115</ele>
        <time>2012-04-01T09:54:53Z</time>
      </trkpt>
      <trkpt lat="47.59566" lon="3.68687">
        <ele>118</ele>
        <time>2012-04-01T09:55:02Z</time>
      </trkpt>
      <trkpt lat="47.59569" lon="3.68658">
        <ele>112</ele>
        <time>2012-04-01T09:55:18Z</time>
      </trkpt>
      <trkpt lat="47.59569" lon="3.68651">
        <ele>112</ele>
        <time>2012-04-01T09:55:22Z</time>
      </trkpt>
      <trkpt lat="47.5957" lon="3.68644">
        <ele>110</ele>
        <time>2012-04-01T09:55:24Z</time>
      </trkpt>
      <trkpt lat="47.59571" lon="3.68637">
        <ele>111</ele>
        <time>2012-04-01T09:55:29Z</time>
      </trkpt>
      <trkpt lat="47.59572" lon="3.68629">
        <ele>110</ele>
        <time>2012-04-01T09:55:34Z</time>
      </trkpt>
      <trkpt lat="47.59573" lon="3.68622">
        <ele>110</ele>
        <time>2012-04-01T09:55:38Z</time>
      </trkpt>
      <trkpt lat="47.59573" lon="3.68607">
        <ele>113</ele>
        <time>2012-04-01T09:55:45Z</time>
      </trkpt>
      <trkpt lat="47.59574" lon="3.68592">
        <ele>111</ele>
        <time>2012-04-01T09:55:54Z</time>
      </trkpt>
      <trkpt lat="47.59576" lon="3.68584">
        <ele>111</ele>
        <time>2012-04-01T09:55:58Z</time>
      </trkpt>
      <trkpt lat="47.59577" lon="3.68577">
        <ele>110</ele>
        <time>2012-04-01T09:56:02Z</time>
      </trkpt>
      <trkpt lat="47.59579" lon="3.68561">
        <ele>110</ele>
        <time>2012-04-01T09:56:08Z</time>
      </trkpt>
      <trkpt lat="47.5958" lon="3.68552">
        <ele>111</ele>
        <time>2012-04-01T09:56:14Z</time>
      </trkpt>
      <trkpt lat="47.5958" lon="3.68545">
        <ele>111</ele>
        <time>2012-04-01T09:56:18Z</time>
      </trkpt>
      <trkpt lat="47.59581" lon="3.6853">
        <ele>113</ele>
        <time>2012-04-01T09:56:24Z</time>
      </trkpt>
      <trkpt lat="47.59582" lon="3.68522">
        <ele>112</ele>
        <time>2012-04-01T09:56:29Z</time>
      </trkpt>
      <trkpt lat="47.59583" lon="3.68515">
        <ele>112</ele>
        <time>2012-04-01T09:56:33Z</time>
      </trkpt>
      <trkpt lat="47.59584" lon="3.68508">
        <ele>113</ele>
        <time>2012-04-01T09:56:37Z</time>
      </trkpt>
      <trkpt lat="47.59584" lon="3.685">
        <ele>113</ele>
        <time>2012-04-01T09:56:40Z</time>
      </trkpt>
      <trkpt lat="47.59584" lon="3.68493">
        <ele>114</ele>
        <time>2012-04-01T09:56:45Z</time>
      </trkpt>
      <trkpt lat="47.59584" lon="3.68476">
        <ele>114</ele>
        <time>2012-04-01T09:56:53Z</time>
      </trkpt>
      <trkpt lat="47.59586" lon="3.68452">
        <ele>119</ele>
        <time>2012-04-01T09:57:06Z</time>
      </trkpt>
      <trkpt lat="47.59587" lon="3.68446">
        <ele>118</ele>
        <time>2012-04-01T09:57:11Z</time>
      </trkpt>
      <trkpt lat="47.5959" lon="3.68443">
        <ele>118</ele>
        <time>2012-04-01T09:57:19Z</time>
      </trkpt>
      <trkpt lat="47.59589" lon="3.68438">
        <ele>122</ele>
        <time>2012-04-01T09:58:05Z</time>
      </trkpt>
      <trkpt lat="47.59593" lon="3.68435">
        <ele>116</ele>
        <time>2012-04-01T09:58:33Z</time>
      </trkpt>
      <trkpt lat="47.59591" lon="3.68426">
        <ele>115</ele>
        <time>2012-04-01T09:58:45Z</time>
      </trkpt>
      <trkpt lat="47.59591" lon="3.68418">
        <ele>114</ele>
        <time>2012-04-01T09:58:49Z</time>
      </trkpt>
      <trkpt lat="47.59591" lon="3.6841">
        <ele>115</ele>
        <time>2012-04-01T09:58:54Z</time>
      </trkpt>
      <trkpt lat="47.59593" lon="3.68404">
        <ele>115</ele>
        <time>2012-04-01T09:58:57Z</time>
      </trkpt>
      <trkpt lat="47.59592" lon="3.68396">
        <ele>115</ele>
        <time>2012-04-01T09:59:00Z</time>
      </trkpt>
      <trkpt lat="47.59592" lon="3.68388">
        <ele>116</ele>
        <time>2012-04-01T09:59:04Z</time>
      </trkpt>
      <trkpt lat="47.59591" lon="3.6838">
        <ele>115</ele>
        <time>2012-04-01T09:59:08Z</time>
      </trkpt>
      <trkpt lat="47.59592" lon="3.68359">
        <ele>119</ele>
        <time>2012-04-01T09:59:17Z</time>
      </trkpt>
      <trkpt lat="47.59592" lon="3.68344">
        <ele>114</ele>
        <time>2012-04-01T09:59:25Z</time>
      </trkpt>
      <trkpt lat="47.59592" lon="3.68337">
        <ele>114</ele>
        <time>2012-04-01T09:59:28Z</time>
      </trkpt>
      <trkpt lat="47.59594" lon="3.68323">
        <ele>109</ele>
        <time>2012-04-01T09:59:40Z</time>
      </trkpt>
      <trkpt lat="47.59594" lon="3.68316">
        <ele>110</ele>
        <time>2012-04-01T09:59:45Z</time>
      </trkpt>
      <trkpt lat="47.59595" lon="3.68298">
        <ele>105</ele>
        <time>2012-04-01T09:59:51Z</time>
      </trkpt>
      <trkpt lat="47.59596" lon="3.6829">
        <ele>105</ele>
        <time>2012-04-01T09:59:55Z</time>
      </trkpt>
      <trkpt lat="47.59596" lon="3.68283">
        <ele>107</ele>
        <time>2012-04-01T09:59:59Z</time>
      </trkpt>
      <trkpt lat="47.59595" lon="3.68274">
        <ele>107</ele>
        <time>2012-04-01T10:00:02Z</time>
      </trkpt>
      <trkpt lat="47.59595" lon="3.68267">
        <ele>106</ele>
        <time>2012-04-01T10:00:05Z</time>
      </trkpt>
      <trkpt lat="47.59601" lon="3.68255">
        <ele>111</ele>
        <time>2012-04-01T10:00:30Z</time>
      </trkpt>
      <trkpt lat="47.59602" lon="3.68247">
        <ele>111</ele>
        <time>2012-04-01T10:00:34Z</time>
      </trkpt>
      <trkpt lat="47.59607" lon="3.68225">
        <ele>106</ele>
        <time>2012-04-01T10:00:45Z</time>
      </trkpt>
      <trkpt lat="47.59609" lon="3.68217">
        <ele>107</ele>
        <time>2012-04-01T10:00:48Z</time>
      </trkpt>
      <trkpt lat="47.5961" lon="3.6821">
        <ele>107</ele>
        <time>2012-04-01T10:00:51Z</time>
      </trkpt>
      <trkpt lat="47.59611" lon="3.68197">
        <ele>102</ele>
        <time>2012-04-01T10:00:58Z</time>
      </trkpt>
      <trkpt lat="47.59613" lon="3.68189">
        <ele>103</ele>
        <time>2012-04-01T10:01:02Z</time>
      </trkpt>
      <trkpt lat="47.59615" lon="3.68183">
        <ele>103</ele>
        <time>2012-04-01T10:01:06Z</time>
      </trkpt>
      <trkpt lat="47.59616" lon="3.68175">
        <ele>104</ele>
        <time>2012-04-01T10:01:10Z</time>
      </trkpt>
      <trkpt lat="47.59619" lon="3.68161">
        <ele>104</ele>
        <time>2012-04-01T10:01:18Z</time>
      </trkpt>
      <trkpt lat="47.59621" lon="3.68154">
        <ele>105</ele>
        <time>2012-04-01T10:01:21Z</time>
      </trkpt>
      <trkpt lat="47.59627" lon="3.68124">
        <ele>100</ele>
        <time>2012-04-01T10:01:39Z</time>
      </trkpt>
      <trkpt lat="47.59631" lon="3.68119">
        <ele>102</ele>
        <time>2012-04-01T10:01:43Z</time>
      </trkpt>
      <trkpt lat="47.59636" lon="3.68116">
        <ele>101</ele>
        <time>2012-04-01T10:01:46Z</time>
      </trkpt>
      <trkpt lat="47.59638" lon="3.68109">
        <ele>102</ele>
        <time>2012-04-01T10:01:49Z</time>
      </trkpt>
      <trkpt lat="47.59642" lon="3.68095">
        <ele>99</ele>
        <time>2012-04-01T10:01:55Z</time>
      </trkpt>
      <trkpt lat="47.59643" lon="3.6809">
        <ele>99</ele>
        <time>2012-04-01T10:02:02Z</time>
      </trkpt>
      <trkpt lat="47.59637" lon="3.68095">
        <ele>94</ele>
        <time>2012-04-01T10:02:30Z</time>
      </trkpt>
      <trkpt lat="47.59632" lon="3.68095">
        <ele>97</ele>
        <time>2012-04-01T10:02:40Z</time>
      </trkpt>
      <trkpt lat="47.59634" lon="3.68088">
        <ele>97</ele>
        <time>2012-04-01T10:02:44Z</time>
      </trkpt>
      <trkpt lat="47.59636" lon="3.68058">
        <ele>92</ele>
        <time>2012-04-01T10:03:01Z</time>
      </trkpt>
      <trkpt lat="47.59636" lon="3.68051">
        <ele>94</ele>
        <time>2012-04-01T10:03:05Z</time>
      </trkpt>
      <trkpt lat="47.59636" lon="3.68035">
        <ele>92</ele>
        <time>2012-04-01T10:03:14Z</time>
      </trkpt>
      <trkpt lat="47.59635" lon="3.68028">
        <ele>92</ele>
        <time>2012-04-01T10:03:18Z</time>
      </trkpt>
      <trkpt lat="47.59636" lon="3.6802">
        <ele>93</ele>
        <time>2012-04-01T10:03:22Z</time>
      </trkpt>
      <trkpt lat="47.59635" lon="3.68011">
        <ele>91</ele>
        <time>2012-04-01T10:03:27Z</time>
      </trkpt>
      <trkpt lat="47.59634" lon="3.67997">
        <ele>91</ele>
        <time>2012-04-01T10:03:34Z</time>
      </trkpt>
      <trkpt lat="47.59634" lon="3.6799">
        <ele>88</ele>
        <time>2012-04-01T10:03:38Z</time>
      </trkpt>
      <trkpt lat="47.59635" lon="3.67982">
        <ele>89</ele>
        <time>2012-04-01T10:03:42Z</time>
      </trkpt>
      <trkpt lat="47.59638" lon="3.67961">
        <ele>83</ele>
        <time>2012-04-01T10:03:55Z</time>
      </trkpt>
      <trkpt lat="47.59639" lon="3.67955">
        <ele>83</ele>
        <time>2012-04-01T10:03:59Z</time>
      </trkpt>
      <trkpt lat="47.59643" lon="3.6795">
        <ele>82</ele>
        <time>2012-04-01T10:04:06Z</time>
      </trkpt>
      <trkpt lat="47.59645" lon="3.67943">
        <ele>81</ele>
        <time>2012-04-01T10:04:11Z</time>
      </trkpt>
      <trkpt lat="47.59649" lon="3.67939">
        <ele>81</ele>
        <time>2012-04-01T10:04:15Z</time>
      </trkpt>
      <trkpt lat="47.59658" lon="3.67929">
        <ele>84</ele>
        <time>2012-04-01T10:04:21Z</time>
      </trkpt>
      <trkpt lat="47.59662" lon="3.67926">
        <ele>84</ele>
        <time>2012-04-01T10:04:25Z</time>
      </trkpt>
      <trkpt lat="47.59672" lon="3.67922">
        <ele>78</ele>
        <time>2012-04-01T10:04:35Z</time>
      </trkpt>
      <trkpt lat="47.59678" lon="3.6792">
        <ele>80</ele>
        <time>2012-04-01T10:04:39Z</time>
      </trkpt>
      <trkpt lat="47.59682" lon="3.67916">
        <ele>78</ele>
        <time>2012-04-01T10:04:43Z</time>
      </trkpt>
      <trkpt lat="47.59686" lon="3.67912">
        <ele>78</ele>
        <time>2012-04-01T10:04:48Z</time>
      </trkpt>
      <trkpt lat="47.59689" lon="3.67906">
        <ele>76</ele>
        <time>2012-04-01T10:04:54Z</time>
      </trkpt>
      <trkpt lat="47.59694" lon="3.67903">
        <ele>78</ele>
        <time>2012-04-01T10:04:58Z</time>
      </trkpt>
      <trkpt lat="47.59703" lon="3.67898">
        <ele>74</ele>
        <time>2012-04-01T10:05:07Z</time>
      </trkpt>
      <trkpt lat="47.59707" lon="3.67894">
        <ele>75</ele>
        <time>2012-04-01T10:05:12Z</time>
      </trkpt>
      <trkpt lat="47.59712" lon="3.67891">
        <ele>73</ele>
        <time>2012-04-01T10:05:17Z</time>
      </trkpt>
      <trkpt lat="47.59717" lon="3.6789">
        <ele>74</ele>
        <time>2012-04-01T10:05:20Z</time>
      </trkpt>
      <trkpt lat="47.59721" lon="3.67887">
        <ele>72</ele>
        <time>2012-04-01T10:05:23Z</time>
      </trkpt>
      <trkpt lat="47.5973" lon="3.6788">
        <ele>72</ele>
        <time>2012-04-01T10:05:32Z</time>
      </trkpt>
      <trkpt lat="47.59733" lon="3.67881">
        <ele>69</ele>
        <time>2012-04-01T10:05:39Z</time>
      </trkpt>
      <trkpt lat="47.59734" lon="3.67876">
        <ele>67</ele>
        <time>2012-04-01T10:06:22Z</time>
      </trkpt>
      <trkpt lat="47.59736" lon="3.67876">
        <ele>73</ele>
        <time>2012-04-01T10:06:51Z</time>
      </trkpt>
      <trkpt lat="47.59741" lon="3.67879">
        <ele>75</ele>
        <time>2012-04-01T10:07:31Z</time>
      </trkpt>
      <trkpt lat="47.59746" lon="3.6788">
        <ele>77</ele>
        <time>2012-04-01T10:07:36Z</time>
      </trkpt>
      <trkpt lat="47.5975" lon="3.67882">
        <ele>77</ele>
        <time>2012-04-01T10:07:40Z</time>
      </trkpt>
      <trkpt lat="47.5976" lon="3.67887">
        <ele>72</ele>
        <time>2012-04-01T10:07:51Z</time>
      </trkpt>
      <trkpt lat="47.59765" lon="3.67888">
        <ele>72</ele>
        <time>2012-04-01T10:07:55Z</time>
      </trkpt>
      <trkpt lat="47.59782" lon="3.67901">
        <ele>61</ele>
        <time>2012-04-01T10:08:40Z</time>
      </trkpt>
      <trkpt lat="47.59785" lon="3.67906">
        <ele>58</ele>
        <time>2012-04-01T10:08:47Z</time>
      </trkpt>
      <trkpt lat="47.5979" lon="3.67908">
        <ele>59</ele>
        <time>2012-04-01T10:08:53Z</time>
      </trkpt>
      <trkpt lat="47.59798" lon="3.67903">
        <ele>62</ele>
        <time>2012-04-01T10:09:02Z</time>
      </trkpt>
      <trkpt lat="47.59803" lon="3.67901">
        <ele>62</ele>
        <time>2012-04-01T10:09:08Z</time>
      </trkpt>
      <trkpt lat="47.59803" lon="3.67894">
        <ele>61</ele>
        <time>2012-04-01T10:09:13Z</time>
      </trkpt>
      <trkpt lat="47.59807" lon="3.67889">
        <ele>60</ele>
        <time>2012-04-01T10:09:20Z</time>
      </trkpt>
      <trkpt lat="47.59808" lon="3.67882">
        <ele>59</ele>
        <time>2012-04-01T10:09:24Z</time>
      </trkpt>
      <trkpt lat="47.5981" lon="3.67878">
        <ele>55</ele>
        <time>2012-04-01T10:09:33Z</time>
      </trkpt>
      <trkpt lat="47.59815" lon="3.67877">
        <ele>55</ele>
        <time>2012-04-01T10:09:40Z</time>
      </trkpt>
      <trkpt lat="47.59818" lon="3.67872">
        <ele>53</ele>
        <time>2012-04-01T10:09:45Z</time>
      </trkpt>
      <trkpt lat="47.5982" lon="3.67866">
        <ele>54</ele>
        <time>2012-04-01T10:09:52Z</time>
      </trkpt>
      <trkpt lat="47.59826" lon="3.67865">
        <ele>54</ele>
        <time>2012-04-01T10:09:59Z</time>
      </trkpt>
      <trkpt lat="47.59831" lon="3.67861">
        <ele>53</ele>
        <time>2012-04-01T10:10:02Z</time>
      </trkpt>
      <trkpt lat="47.59836" lon="3.67857">
        <ele>54</ele>
        <time>2012-04-01T10:10:06Z</time>
      </trkpt>
      <trkpt lat="47.59839" lon="3.67861">
        <ele>56</ele>
        <time>2012-04-01T10:10:33Z</time>
      </trkpt>
      <trkpt lat="47.59844" lon="3.6786">
        <ele>57</ele>
        <time>2012-04-01T10:10:37Z</time>
      </trkpt>
      <trkpt lat="47.59848" lon="3.67861">
        <ele>58</ele>
        <time>2012-04-01T10:10:42Z</time>
      </trkpt>
      <trkpt lat="47.59851" lon="3.67866">
        <ele>58</ele>
        <time>2012-04-01T10:10:47Z</time>
      </trkpt>
      <trkpt lat="47.59853" lon="3.6787">
        <ele>55</ele>
        <time>2012-04-01T10:10:53Z</time>
      </trkpt>
      <trkpt lat="47.59861" lon="3.67889">
        <ele>55</ele>
        <time>2012-04-01T10:11:10Z</time>
      </trkpt>
      <trkpt lat="47.59869" lon="3.67907">
        <ele>59</ele>
        <time>2012-04-01T10:11:23Z</time>
      </trkpt>
      <trkpt lat="47.5987" lon="3.67915">
        <ele>59</ele>
        <time>2012-04-01T10:11:28Z</time>
      </trkpt>
      <trkpt lat="47.59876" lon="3.67927">
        <ele>61</ele>
        <time>2012-04-01T10:11:38Z</time>
      </trkpt>
      <trkpt lat="47.59878" lon="3.67933">
        <ele>60</ele>
        <time>2012-04-01T10:11:43Z</time>
      </trkpt>
      <trkpt lat="47.59894" lon="3.67952">
        <ele>64</ele>
        <time>2012-04-01T10:11:58Z</time>
      </trkpt>
      <trkpt lat="47.59897" lon="3.67955">
        <ele>64</ele>
        <time>2012-04-01T10:12:03Z</time>
      </trkpt>
      <trkpt lat="47.59902" lon="3.67958">
        <ele>66</ele>
        <time>2012-04-01T10:12:06Z</time>
      </trkpt>
      <trkpt lat="47.59906" lon="3.67962">
        <ele>65</ele>
        <time>2012-04-01T10:12:09Z</time>
      </trkpt>
      <trkpt lat="47.59916" lon="3.6797">
        <ele>70</ele>
        <time>2012-04-01T10:12:16Z</time>
      </trkpt>
      <trkpt lat="47.59919" lon="3.67975">
        <ele>68</ele>
        <time>2012-04-01T10:12:21Z</time>
      </trkpt>
      <trkpt lat="47.59924" lon="3.67979">
        <ele>68</ele>
        <time>2012-04-01T10:12:27Z</time>
      </trkpt>
      <trkpt lat="47.59928" lon="3.67982">
        <ele>67</ele>
        <time>2012-04-01T10:12:32Z</time>
      </trkpt>
      <trkpt lat="47.59938" lon="3.6799">
        <ele>71</ele>
        <time>2012-04-01T10:12:39Z</time>
      </trkpt>
      <trkpt lat="47.59945" lon="3.67998">
        <ele>68</ele>
        <time>2012-04-01T10:12:46Z</time>
      </trkpt>
      <trkpt lat="47.59949" lon="3.68002">
        <ele>69</ele>
        <time>2012-04-01T10:12:50Z</time>
      </trkpt>
      <trkpt lat="47.59964" lon="3.68018">
        <ele>65</ele>
        <time>2012-04-01T10:13:09Z</time>
      </trkpt>
      <trkpt lat="47.59973" lon="3.68027">
        <ele>68</ele>
        <time>2012-04-01T10:13:17Z</time>
      </trkpt>
      <trkpt lat="47.59983" lon="3.68032">
        <ele>66</ele>
        <time>2012-04-01T10:13:26Z</time>
      </trkpt>
      <trkpt lat="47.59992" lon="3.68036">
        <ele>70</ele>
        <time>2012-04-01T10:13:35Z</time>
      </trkpt>
      <trkpt lat="47.59997" lon="3.68039">
        <ele>69</ele>
        <time>2012-04-01T10:13:39Z</time>
      </trkpt>
      <trkpt lat="47.60001" lon="3.68044">
        <ele>70</ele>
        <time>2012-04-01T10:13:43Z</time>
      </trkpt>
      <trkpt lat="47.60005" lon="3.68048">
        <ele>69</ele>
        <time>2012-04-01T10:13:49Z</time>
      </trkpt>
      <trkpt lat="47.6001" lon="3.68051">
        <ele>70</ele>
        <time>2012-04-01T10:13:54Z</time>
      </trkpt>
      <trkpt lat="47.60015" lon="3.68052">
        <ele>72</ele>
        <time>2012-04-01T10:13:57Z</time>
      </trkpt>
      <trkpt lat="47.6002" lon="3.68051">
        <ele>71</ele>
        <time>2012-04-01T10:14:00Z</time>
      </trkpt>
      <trkpt lat="47.60029" lon="3.68056">
        <ele>66</ele>
        <time>2012-04-01T10:14:11Z</time>
      </trkpt>
      <trkpt lat="47.60039" lon="3.6806">
        <ele>66</ele>
        <time>2012-04-01T10:14:21Z</time>
      </trkpt>
      <trkpt lat="47.60043" lon="3.68063">
        <ele>67</ele>
        <time>2012-04-01T10:14:25Z</time>
      </trkpt>
      <trkpt lat="47.60053" lon="3.68066">
        <ele>65</ele>
        <time>2012-04-01T10:14:33Z</time>
      </trkpt>
      <trkpt lat="47.60083" lon="3.68073">
        <ele>65</ele>
        <time>2012-04-01T10:14:58Z</time>
      </trkpt>
      <trkpt lat="47.60084" lon="3.68077">
        <ele>64</ele>
        <time>2012-04-01T10:15:04Z</time>
      </trkpt>
      <trkpt lat="47.60091" lon="3.68077">
        <ele>66</ele>
        <time>2012-04-01T10:15:13Z</time>
      </trkpt>
      <trkpt lat="47.60096" lon="3.68078">
        <ele>66</ele>
        <time>2012-04-01T10:15:16Z</time>
      </trkpt>
      <trkpt lat="47.60099" lon="3.68074">
        <ele>57</ele>
        <time>2012-04-01T10:16:25Z</time>
      </trkpt>
      <trkpt lat="47.60108" lon="3.68075">
        <ele>59</ele>
        <time>2012-04-01T10:16:32Z</time>
      </trkpt>
      <trkpt lat="47.60113" lon="3.68079">
        <ele>58</ele>
        <time>2012-04-01T10:16:37Z</time>
      </trkpt>
      <trkpt lat="47.60118" lon="3.68079">
        <ele>58</ele>
        <time>2012-04-01T10:16:41Z</time>
      </trkpt>
      <trkpt lat="47.60124" lon="3.68079">
        <ele>59</ele>
        <time>2012-04-01T10:16:45Z</time>
      </trkpt>
      <trkpt lat="47.60133" lon="3.68077">
        <ele>59</ele>
        <time>2012-04-01T10:16:52Z</time>
      </trkpt>
      <trkpt lat="47.60143" lon="3.68082">
        <ele>62</ele>
        <time>2012-04-01T10:16:59Z</time>
      </trkpt>
      <trkpt lat="47.60148" lon="3.68085">
        <ele>61</ele>
        <time>2012-04-01T10:17:03Z</time>
      </trkpt>
      <trkpt lat="47.60179" lon="3.68099">
        <ele>69</ele>
        <time>2012-04-01T10:17:25Z</time>
      </trkpt>
      <trkpt lat="47.60184" lon="3.68099">
        <ele>68</ele>
        <time>2012-04-01T10:17:29Z</time>
      </trkpt>
      <trkpt lat="47.60188" lon="3.68103">
        <ele>69</ele>
        <time>2012-04-01T10:17:33Z</time>
      </trkpt>
      <trkpt lat="47.60191" lon="3.68107">
        <ele>69</ele>
        <time>2012-04-01T10:17:36Z</time>
      </trkpt>
      <trkpt lat="47.60209" lon="3.6812">
        <ele>76</ele>
        <time>2012-04-01T10:17:49Z</time>
      </trkpt>
      <trkpt lat="47.60218" lon="3.68127">
        <ele>74</ele>
        <time>2012-04-01T10:17:56Z</time>
      </trkpt>
      <trkpt lat="47.60223" lon="3.68129">
        <ele>74</ele>
        <time>2012-04-01T10:18:03Z</time>
      </trkpt>
      <trkpt lat="47.60227" lon="3.68134">
        <ele>71</ele>
        <time>2012-04-01T10:18:09Z</time>
      </trkpt>
      <trkpt lat="47.6023" lon="3.68138">
        <ele>71</ele>
        <time>2012-04-01T10:18:13Z</time>
      </trkpt>
      <trkpt lat="47.60241" lon="3.68142">
        <ele>81</ele>
        <time>2012-04-01T10:18:18Z</time>
      </trkpt>
      <trkpt lat="47.60237" lon="3.68143">
        <ele>76</ele>
        <time>2012-04-01T10:18:26Z</time>
      </trkpt>
      <trkpt lat="47.60241" lon="3.68149">
        <ele>78</ele>
        <time>2012-04-01T10:18:32Z</time>
      </trkpt>
      <trkpt lat="47.60247" lon="3.68152">
        <ele>80</ele>
        <time>2012-04-01T10:18:35Z</time>
      </trkpt>
      <trkpt lat="47.60248" lon="3.68152">
        <ele>79</ele>
        <time>2012-04-01T10:18:42Z</time>
      </trkpt>
      <trkpt lat="47.60247" lon="3.68157">
        <ele>70</ele>
        <time>2012-04-01T10:19:54Z</time>
      </trkpt>
      <trkpt lat="47.60258" lon="3.68157">
        <ele>67</ele>
        <time>2012-04-01T10:20:02Z</time>
      </trkpt>
      <trkpt lat="47.60263" lon="3.68159">
        <ele>67</ele>
        <time>2012-04-01T10:20:09Z</time>
      </trkpt>
      <trkpt lat="47.60275" lon="3.68163">
        <ele>69</ele>
        <time>2012-04-01T10:20:15Z</time>
      </trkpt>
      <trkpt lat="47.6028" lon="3.68166">
        <ele>69</ele>
        <time>2012-04-01T10:20:17Z</time>
      </trkpt>
      <trkpt lat="47.60283" lon="3.68171">
        <ele>65</ele>
        <time>2012-04-01T10:20:23Z</time>
      </trkpt>
      <trkpt lat="47.60287" lon="3.68175">
        <ele>66</ele>
        <time>2012-04-01T10:20:28Z</time>
      </trkpt>
      <trkpt lat="47.60303" lon="3.68185">
        <ele>66</ele>
        <time>2012-04-01T10:20:41Z</time>
      </trkpt>
      <trkpt lat="47.60308" lon="3.68189">
        <ele>67</ele>
        <time>2012-04-01T10:20:46Z</time>
      </trkpt>
      <trkpt lat="47.60313" lon="3.68191">
        <ele>66</ele>
        <time>2012-04-01T10:20:50Z</time>
      </trkpt>
      <trkpt lat="47.60328" lon="3.68199">
        <ele>66</ele>
        <time>2012-04-01T10:21:02Z</time>
      </trkpt>
      <trkpt lat="47.60337" lon="3.68207">
        <ele>62</ele>
        <time>2012-04-01T10:21:27Z</time>
      </trkpt>
      <trkpt lat="47.6034" lon="3.68208">
        <ele>62</ele>
        <time>2012-04-01T10:21:33Z</time>
      </trkpt>
      <trkpt lat="47.60343" lon="3.68203">
        <ele>62</ele>
        <time>2012-04-01T10:21:40Z</time>
      </trkpt>
      <trkpt lat="47.60346" lon="3.68209">
        <ele>63</ele>
        <time>2012-04-01T10:21:53Z</time>
      </trkpt>
      <trkpt lat="47.60352" lon="3.68211">
        <ele>63</ele>
        <time>2012-04-01T10:22:02Z</time>
      </trkpt>
      <trkpt lat="47.60356" lon="3.68212">
        <ele>64</ele>
        <time>2012-04-01T10:22:05Z</time>
      </trkpt>
      <trkpt lat="47.60371" lon="3.6822">
        <ele>64</ele>
        <time>2012-04-01T10:22:27Z</time>
      </trkpt>
      <trkpt lat="47.60376" lon="3.68223">
        <ele>66</ele>
        <time>2012-04-01T10:22:31Z</time>
      </trkpt>
      <trkpt lat="47.60381" lon="3.68227">
        <ele>64</ele>
        <time>2012-04-01T10:22:35Z</time>
      </trkpt>
      <trkpt lat="47.60386" lon="3.68231">
        <ele>64</ele>
        <time>2012-04-01T10:22:39Z</time>
      </trkpt>
      <trkpt lat="47.60391" lon="3.68235">
        <ele>65</ele>
        <time>2012-04-01T10:22:43Z</time>
      </trkpt>
      <trkpt lat="47.60405" lon="3.68241">
        <ele>65</ele>
        <time>2012-04-01T10:22:54Z</time>
      </trkpt>
      <trkpt lat="47.60415" lon="3.68243">
        <ele>62</ele>
        <time>2012-04-01T10:23:00Z</time>
      </trkpt>
      <trkpt lat="47.60419" lon="3.68246">
        <ele>62</ele>
        <time>2012-04-01T10:23:04Z</time>
      </trkpt>
      <trkpt lat="47.60424" lon="3.68251">
        <ele>61</ele>
        <time>2012-04-01T10:23:11Z</time>
      </trkpt>
      <trkpt lat="47.60428" lon="3.68255">
        <ele>61</ele>
        <time>2012-04-01T10:23:17Z</time>
      </trkpt>
      <trkpt lat="47.60433" lon="3.68259">
        <ele>60</ele>
        <time>2012-04-01T10:23:22Z</time>
      </trkpt>
      <trkpt lat="47.60438" lon="3.68261">
        <ele>65</ele>
        <time>2012-04-01T10:23:25Z</time>
      </trkpt>
      <trkpt lat="47.60442" lon="3.68264">
        <ele>63</ele>
        <time>2012-04-01T10:23:28Z</time>
      </trkpt>
      <trkpt lat="47.60453" lon="3.68279">
        <ele>63</ele>
        <time>2012-04-01T10:23:42Z</time>
      </trkpt>
      <trkpt lat="47.60458" lon="3.6828">
        <ele>64</ele>
        <time>2012-04-01T10:23:45Z</time>
      </trkpt>
      <trkpt lat="47.60463" lon="3.68281">
        <ele>63</ele>
        <time>2012-04-01T10:23:48Z</time>
      </trkpt>
      <trkpt lat="47.60467" lon="3.68283">
        <ele>65</ele>
        <time>2012-04-01T10:23:51Z</time>
      </trkpt>
      <trkpt lat="47.60473" lon="3.68284">
        <ele>65</ele>
        <time>2012-04-01T10:23:55Z</time>
      </trkpt>
      <trkpt lat="47.60482" lon="3.68289">
        <ele>63</ele>
        <time>2012-04-01T10:24:01Z</time>
      </trkpt>
      <trkpt lat="47.60486" lon="3.68293">
        <ele>63</ele>
        <time>2012-04-01T10:24:06Z</time>
      </trkpt>
      <trkpt lat="47.60496" lon="3.68298">
        <ele>61</ele>
        <time>2012-04-01T10:24:13Z</time>
      </trkpt>
      <trkpt lat="47.605" lon="3.68303">
        <ele>61</ele>
        <time>2012-04-01T10:24:18Z</time>
      </trkpt>
      <trkpt lat="47.60505" lon="3.68306">
        <ele>61</ele>
        <time>2012-04-01T10:24:22Z</time>
      </trkpt>
      <trkpt lat="47.60515" lon="3.68309">
        <ele>63</ele>
        <time>2012-04-01T10:24:28Z</time>
      </trkpt>
      <trkpt lat="47.60521" lon="3.68312">
        <ele>62</ele>
        <time>2012-04-01T10:24:32Z</time>
      </trkpt>
      <trkpt lat="47.60525" lon="3.68317">
        <ele>62</ele>
        <time>2012-04-01T10:24:36Z</time>
      </trkpt>
      <trkpt lat="47.60534" lon="3.68324">
        <ele>65</ele>
        <time>2012-04-01T10:24:43Z</time>
      </trkpt>
      <trkpt lat="47.60539" lon="3.68327">
        <ele>63</ele>
        <time>2012-04-01T10:24:47Z</time>
      </trkpt>
      <trkpt lat="47.60544" lon="3.6833">
        <ele>63</ele>
        <time>2012-04-01T10:24:51Z</time>
      </trkpt>
      <trkpt lat="47.60549" lon="3.68331">
        <ele>62</ele>
        <time>2012-04-01T10:24:55Z</time>
      </trkpt>
      <trkpt lat="47.60553" lon="3.68335">
        <ele>62</ele>
        <time>2012-04-01T10:25:01Z</time>
      </trkpt>
      <trkpt lat="47.60558" lon="3.68337">
        <ele>60</ele>
        <time>2012-04-01T10:25:06Z</time>
      </trkpt>
      <trkpt lat="47.60563" lon="3.6834">
        <ele>62</ele>
        <time>2012-04-01T10:25:10Z</time>
      </trkpt>
      <trkpt lat="47.60567" lon="3.68343">
        <ele>62</ele>
        <time>2012-04-01T10:25:13Z</time>
      </trkpt>
      <trkpt lat="47.60572" lon="3.68346">
        <ele>65</ele>
        <time>2012-04-01T10:25:16Z</time>
      </trkpt>
      <trkpt lat="47.60585" lon="3.68356">
        <ele>60</ele>
        <time>2012-04-01T10:25:27Z</time>
      </trkpt>
      <trkpt lat="47.60589" lon="3.68359">
        <ele>61</ele>
        <time>2012-04-01T10:25:31Z</time>
      </trkpt>
      <trkpt lat="47.60594" lon="3.68362">
        <ele>59</ele>
        <time>2012-04-01T10:25:36Z</time>
      </trkpt>
      <trkpt lat="47.60604" lon="3.68368">
        <ele>59</ele>
        <time>2012-04-01T10:25:44Z</time>
      </trkpt>
      <trkpt lat="47.60608" lon="3.6837">
        <ele>58</ele>
        <time>2012-04-01T10:25:47Z</time>
      </trkpt>
      <trkpt lat="47.60617" lon="3.68376">
        <ele>60</ele>
        <time>2012-04-01T10:25:56Z</time>
      </trkpt>
      <trkpt lat="47.60622" lon="3.6838">
        <ele>58</ele>
        <time>2012-04-01T10:26:00Z</time>
      </trkpt>
      <trkpt lat="47.60628" lon="3.68382">
        <ele>59</ele>
        <time>2012-04-01T10:26:04Z</time>
      </trkpt>
      <trkpt lat="47.60633" lon="3.68384">
        <ele>58</ele>
        <time>2012-04-01T10:26:08Z</time>
      </trkpt>
      <trkpt lat="47.60637" lon="3.68387">
        <ele>58</ele>
        <time>2012-04-01T10:26:11Z</time>
      </trkpt>
      <trkpt lat="47.60647" lon="3.68393">
        <ele>60</ele>
        <time>2012-04-01T10:26:18Z</time>
      </trkpt>
      <trkpt lat="47.60652" lon="3.68396">
        <ele>60</ele>
        <time>2012-04-01T10:26:22Z</time>
      </trkpt>
      <trkpt lat="47.60658" lon="3.68399">
        <ele>59</ele>
        <time>2012-04-01T10:26:26Z</time>
      </trkpt>
      <trkpt lat="47.60672" lon="3.68408">
        <ele>62</ele>
        <time>2012-04-01T10:26:39Z</time>
      </trkpt>
      <trkpt lat="47.60677" lon="3.68411">
        <ele>61</ele>
        <time>2012-04-01T10:26:43Z</time>
      </trkpt>
      <trkpt lat="47.60681" lon="3.68416">
        <ele>61</ele>
        <time>2012-04-01T10:26:47Z</time>
      </trkpt>
      <trkpt lat="47.60685" lon="3.68422">
        <ele>60</ele>
        <time>2012-04-01T10:26:52Z</time>
      </trkpt>
      <trkpt lat="47.60689" lon="3.68425">
        <ele>63</ele>
        <time>2012-04-01T10:27:00Z</time>
      </trkpt>
      <trkpt lat="47.60697" lon="3.68433">
        <ele>60</ele>
        <time>2012-04-01T10:27:09Z</time>
      </trkpt>
      <trkpt lat="47.60702" lon="3.68433">
        <ele>59</ele>
        <time>2012-04-01T10:27:15Z</time>
      </trkpt>
      <trkpt lat="47.60706" lon="3.68437">
        <ele>59</ele>
        <time>2012-04-01T10:27:18Z</time>
      </trkpt>
      <trkpt lat="47.6071" lon="3.68441">
        <ele>58</ele>
        <time>2012-04-01T10:27:21Z</time>
      </trkpt>
      <trkpt lat="47.60714" lon="3.68445">
        <ele>60</ele>
        <time>2012-04-01T10:27:25Z</time>
      </trkpt>
      <trkpt lat="47.60731" lon="3.68449">
        <ele>56</ele>
        <time>2012-04-01T10:27:34Z</time>
      </trkpt>
      <trkpt lat="47.60735" lon="3.68452">
        <ele>56</ele>
        <time>2012-04-01T10:27:38Z</time>
      </trkpt>
      <trkpt lat="47.60739" lon="3.68457">
        <ele>58</ele>
        <time>2012-04-01T10:27:42Z</time>
      </trkpt>
      <trkpt lat="47.60753" lon="3.68467">
        <ele>58</ele>
        <time>2012-04-01T10:27:54Z</time>
      </trkpt>
      <trkpt lat="47.60762" lon="3.6847">
        <ele>61</ele>
        <time>2012-04-01T10:28:00Z</time>
      </trkpt>
      <trkpt lat="47.60767" lon="3.68472">
        <ele>60</ele>
        <time>2012-04-01T10:28:03Z</time>
      </trkpt>
      <trkpt lat="47.60783" lon="3.68484">
        <ele>60</ele>
        <time>2012-04-01T10:28:14Z</time>
      </trkpt>
      <trkpt lat="47.60793" lon="3.68487">
        <ele>57</ele>
        <time>2012-04-01T10:28:24Z</time>
      </trkpt>
      <trkpt lat="47.60798" lon="3.68491">
        <ele>57</ele>
        <time>2012-04-01T10:28:28Z</time>
      </trkpt>
      <trkpt lat="47.60803" lon="3.68492">
        <ele>56</ele>
        <time>2012-04-01T10:28:31Z</time>
      </trkpt>
      <trkpt lat="47.60811" lon="3.68498">
        <ele>56</ele>
        <time>2012-04-01T10:28:40Z</time>
      </trkpt>
      <trkpt lat="47.60811" lon="3.68502">
        <ele>54</ele>
        <time>2012-04-01T10:28:48Z</time>
      </trkpt>
      <trkpt lat="47.60805" lon="3.68504">
        <ele>55</ele>
        <time>2012-04-01T10:28:52Z</time>
      </trkpt>
      <trkpt lat="47.60805" lon="3.68512">
        <ele>57</ele>
        <time>2012-04-01T10:28:57Z</time>
      </trkpt>
      <trkpt lat="47.60807" lon="3.68519">
        <ele>57</ele>
        <time>2012-04-01T10:29:00Z</time>
      </trkpt>
      <trkpt lat="47.60811" lon="3.68532">
        <ele>55</ele>
        <time>2012-04-01T10:29:07Z</time>
      </trkpt>
      <trkpt lat="47.60809" lon="3.68538">
        <ele>55</ele>
        <time>2012-04-01T10:29:11Z</time>
      </trkpt>
      <trkpt lat="47.60808" lon="3.68536">
        <ele>59</ele>
        <time>2012-04-01T10:29:29Z</time>
      </trkpt>
      <trkpt lat="47.6081" lon="3.68531">
        <ele>65</ele>
        <time>2012-04-01T10:29:35Z</time>
      </trkpt>
      <trkpt lat="47.60815" lon="3.68531">
        <ele>58</ele>
        <time>2012-04-01T10:30:13Z</time>
      </trkpt>
      <trkpt lat="47.60813" lon="3.68533">
        <ele>56</ele>
        <time>2012-04-01T10:30:25Z</time>
      </trkpt>
      <trkpt lat="47.60811" lon="3.68539">
        <ele>58</ele>
        <time>2012-04-01T10:30:29Z</time>
      </trkpt>
      <trkpt lat="47.60812" lon="3.68547">
        <ele>59</ele>
        <time>2012-04-01T10:30:33Z</time>
      </trkpt>
      <trkpt lat="47.6081" lon="3.68556">
        <ele>60</ele>
        <time>2012-04-01T10:30:37Z</time>
      </trkpt>
      <trkpt lat="47.60808" lon="3.68562">
        <ele>58</ele>
        <time>2012-04-01T10:30:40Z</time>
      </trkpt>
      <trkpt lat="47.60806" lon="3.68565">
        <ele>60</ele>
        <time>2012-04-01T10:30:46Z</time>
      </trkpt>
      <trkpt lat="47.60801" lon="3.68566">
        <ele>62</ele>
        <time>2012-04-01T10:30:52Z</time>
      </trkpt>
      <trkpt lat="47.60797" lon="3.68568">
        <ele>61</ele>
        <time>2012-04-01T10:30:57Z</time>
      </trkpt>
      <trkpt lat="47.60797" lon="3.68573">
        <ele>57</ele>
        <time>2012-04-01T10:31:05Z</time>
      </trkpt>
      <trkpt lat="47.60802" lon="3.68571">
        <ele>57</ele>
        <time>2012-04-01T10:31:06Z</time>
      </trkpt>
      <trkpt lat="47.60805" lon="3.6856">
        <ele>61</ele>
        <time>2012-04-01T10:31:31Z</time>
      </trkpt>
      <trkpt lat="47.60803" lon="3.68559">
        <ele>63</ele>
        <time>2012-04-01T10:31:49Z</time>
      </trkpt>
      <trkpt lat="47.60801" lon="3.68565">
        <ele>66</ele>
        <time>2012-04-01T10:32:02Z</time>
      </trkpt>
      <trkpt lat="47.60798" lon="3.68578">
        <ele>82</ele>
        <time>2012-04-01T10:32:18Z</time>
      </trkpt>
      <trkpt lat="47.60798" lon="3.68575">
        <ele>81</ele>
        <time>2012-04-01T10:32:34Z</time>
      </trkpt>
      <trkpt lat="47.60801" lon="3.68571">
        <ele>79</ele>
        <time>2012-04-01T10:32:55Z</time>
      </trkpt>
      <trkpt lat="47.60804" lon="3.6857">
        <ele>77</ele>
        <time>2012-04-01T10:33:03Z</time>
      </trkpt>
      <trkpt lat="47.60808" lon="3.68568">
        <ele>70</ele>
        <time>2012-04-01T10:34:13Z</time>
      </trkpt>
      <trkpt lat="47.60805" lon="3.68561">
        <ele>68</ele>
        <time>2012-04-01T10:36:17Z</time>
      </trkpt>
      <trkpt lat="47.60807" lon="3.68576">
        <ele>58</ele>
        <time>2012-04-01T11:17:20Z</time>
      </trkpt>
      <trkpt lat="47.60807" lon="3.68569">
        <ele>61</ele>
        <time>2012-04-01T11:17:24Z</time>
      </trkpt>
      <trkpt lat="47.60809" lon="3.68562">
        <ele>60</ele>
        <time>2012-04-01T11:17:30Z</time>
      </trkpt>
      <trkpt lat="47.6081" lon="3.68556">
        <ele>60</ele>
        <time>2012-04-01T11:17:32Z</time>
      </trkpt>
      <trkpt lat="47.60809" lon="3.68549">
        <ele>57</ele>
        <time>2012-04-01T11:17:35Z</time>
      </trkpt>
      <trkpt lat="47.6081" lon="3.68534">
        <ele>59</ele>
        <time>2012-04-01T11:17:44Z</time>
      </trkpt>
      <trkpt lat="47.6081" lon="3.68541">
        <ele>59</ele>
        <time>2012-04-01T11:17:48Z</time>
      </trkpt>
      <trkpt lat="47.60812" lon="3.68547">
        <ele>58</ele>
        <time>2012-04-01T11:17:53Z</time>
      </trkpt>
      <trkpt lat="47.60817" lon="3.68544">
        <ele>60</ele>
        <time>2012-04-01T11:17:59Z</time>
      </trkpt>
      <trkpt lat="47.60815" lon="3.68535">
        <ele>61</ele>
        <time>2012-04-01T11:18:03Z</time>
      </trkpt>
      <trkpt lat="47.60813" lon="3.68528">
        <ele>60</ele>
        <time>2012-04-01T11:18:06Z</time>
      </trkpt>
      <trkpt lat="47.60811" lon="3.68515">
        <ele>63</ele>
        <time>2012-04-01T11:18:20Z</time>
      </trkpt>
      <trkpt lat="47.60811" lon="3.68508">
        <ele>63</ele>
        <time>2012-04-01T11:18:26Z</time>
      </trkpt>
      <trkpt lat="47.60814" lon="3.68503">
        <ele>64</ele>
        <time>2012-04-01T11:18:33Z</time>
      </trkpt>
      <trkpt lat="47.60819" lon="3.68502">
        <ele>66</ele>
        <time>2012-04-01T11:18:38Z</time>
      </trkpt>
      <trkpt lat="47.60824" lon="3.68504">
        <ele>68</ele>
        <time>2012-04-01T11:18:42Z</time>
      </trkpt>
      <trkpt lat="47.60829" lon="3.68508">
        <ele>68</ele>
        <time>2012-04-01T11:18:46Z</time>
      </trkpt>
      <trkpt lat="47.60834" lon="3.6851">
        <ele>70</ele>
        <time>2012-04-01T11:18:50Z</time>
      </trkpt>
      <trkpt lat="47.60839" lon="3.68513">
        <ele>70</ele>
        <time>2012-04-01T11:18:54Z</time>
      </trkpt>
      <trkpt lat="47.60842" lon="3.68512">
        <ele>68</ele>
        <time>2012-04-01T11:19:15Z</time>
      </trkpt>
      <trkpt lat="47.60847" lon="3.68513">
        <ele>69</ele>
        <time>2012-04-01T11:19:37Z</time>
      </trkpt>
      <trkpt lat="47.60848" lon="3.68519">
        <ele>71</ele>
        <time>2012-04-01T11:19:43Z</time>
      </trkpt>
      <trkpt lat="47.60853" lon="3.6852">
        <ele>76</ele>
        <time>2012-04-01T11:19:46Z</time>
      </trkpt>
      <trkpt lat="47.60857" lon="3.68523">
        <ele>74</ele>
        <time>2012-04-01T11:19:50Z</time>
      </trkpt>
      <trkpt lat="47.60863" lon="3.68527">
        <ele>77</ele>
        <time>2012-04-01T11:19:53Z</time>
      </trkpt>
      <trkpt lat="47.60871" lon="3.68535">
        <ele>75</ele>
        <time>2012-04-01T11:20:01Z</time>
      </trkpt>
      <trkpt lat="47.60876" lon="3.68537">
        <ele>77</ele>
        <time>2012-04-01T11:20:04Z</time>
      </trkpt>
      <trkpt lat="47.6089" lon="3.68545">
        <ele>71</ele>
        <time>2012-04-01T11:20:17Z</time>
      </trkpt>
      <trkpt lat="47.609" lon="3.6855">
        <ele>74</ele>
        <time>2012-04-01T11:20:25Z</time>
      </trkpt>
      <trkpt lat="47.60904" lon="3.68555">
        <ele>73</ele>
        <time>2012-04-01T11:20:29Z</time>
      </trkpt>
      <trkpt lat="47.60909" lon="3.68559">
        <ele>74</ele>
        <time>2012-04-01T11:20:34Z</time>
      </trkpt>
      <trkpt lat="47.60913" lon="3.68561">
        <ele>72</ele>
        <time>2012-04-01T11:20:37Z</time>
      </trkpt>
      <trkpt lat="47.60919" lon="3.68563">
        <ele>72</ele>
        <time>2012-04-01T11:20:41Z</time>
      </trkpt>
      <trkpt lat="47.60922" lon="3.68565">
        <ele>74</ele>
        <time>2012-04-01T11:20:56Z</time>
      </trkpt>
      <trkpt lat="47.60931" lon="3.68572">
        <ele>71</ele>
        <time>2012-04-01T11:21:04Z</time>
      </trkpt>
      <trkpt lat="47.60936" lon="3.6857">
        <ele>71</ele>
        <time>2012-04-01T11:21:08Z</time>
      </trkpt>
      <trkpt lat="47.60967" lon="3.6858">
        <ele>81</ele>
        <time>2012-04-01T11:21:29Z</time>
      </trkpt>
      <trkpt lat="47.60978" lon="3.68578">
        <ele>78</ele>
        <time>2012-04-01T11:21:34Z</time>
      </trkpt>
      <trkpt lat="47.60982" lon="3.68583">
        <ele>78</ele>
        <time>2012-04-01T11:21:41Z</time>
      </trkpt>
      <trkpt lat="47.60985" lon="3.68588">
        <ele>75</ele>
        <time>2012-04-01T11:21:46Z</time>
      </trkpt>
      <trkpt lat="47.60994" lon="3.68593">
        <ele>75</ele>
        <time>2012-04-01T11:21:52Z</time>
      </trkpt>
      <trkpt lat="47.60999" lon="3.68595">
        <ele>74</ele>
        <time>2012-04-01T11:21:56Z</time>
      </trkpt>
      <trkpt lat="47.61003" lon="3.68597">
        <ele>74</ele>
        <time>2012-04-01T11:22:00Z</time>
      </trkpt>
      <trkpt lat="47.61007" lon="3.68603">
        <ele>68</ele>
        <time>2012-04-01T11:22:05Z</time>
      </trkpt>
      <trkpt lat="47.61017" lon="3.68606">
        <ele>70</ele>
        <time>2012-04-01T11:22:15Z</time>
      </trkpt>
      <trkpt lat="47.61028" lon="3.68609">
        <ele>70</ele>
        <time>2012-04-01T11:22:23Z</time>
      </trkpt>
      <trkpt lat="47.61033" lon="3.68611">
        <ele>69</ele>
        <time>2012-04-01T11:22:26Z</time>
      </trkpt>
      <trkpt lat="47.61043" lon="3.68612">
        <ele>71</ele>
        <time>2012-04-01T11:22:34Z</time>
      </trkpt>
      <trkpt lat="47.61051" lon="3.68617">
        <ele>63</ele>
        <time>2012-04-01T11:22:43Z</time>
      </trkpt>
      <trkpt lat="47.61056" lon="3.6862">
        <ele>66</ele>
        <time>2012-04-01T11:22:47Z</time>
      </trkpt>
      <trkpt lat="47.61061" lon="3.68619">
        <ele>67</ele>
        <time>2012-04-01T11:22:50Z</time>
      </trkpt>
      <trkpt lat="47.61066" lon="3.68619">
        <ele>67</ele>
        <time>2012-04-01T11:22:53Z</time>
      </trkpt>
      <trkpt lat="47.61071" lon="3.68621">
        <ele>68</ele>
        <time>2012-04-01T11:22:58Z</time>
      </trkpt>
      <trkpt lat="47.61081" lon="3.68622">
        <ele>68</ele>
        <time>2012-04-01T11:23:05Z</time>
      </trkpt>
      <trkpt lat="47.61086" lon="3.68626">
        <ele>67</ele>
        <time>2012-04-01T11:23:11Z</time>
      </trkpt>
      <trkpt lat="47.61091" lon="3.68625">
        <ele>67</ele>
        <time>2012-04-01T11:23:14Z</time>
      </trkpt>
      <trkpt lat="47.61096" lon="3.68623">
        <ele>68</ele>
        <time>2012-04-01T11:23:17Z</time>
      </trkpt>
      <trkpt lat="47.61101" lon="3.68621">
        <ele>66</ele>
        <time>2012-04-01T11:23:20Z</time>
      </trkpt>
      <trkpt lat="47.61106" lon="3.68624">
        <ele>67</ele>
        <time>2012-04-01T11:23:25Z</time>
      </trkpt>
      <trkpt lat="47.61121" lon="3.68621">
        <ele>72</ele>
        <time>2012-04-01T11:23:37Z</time>
      </trkpt>
      <trkpt lat="47.61126" lon="3.6862">
        <ele>72</ele>
        <time>2012-04-01T11:23:46Z</time>
      </trkpt>
      <trkpt lat="47.6113" lon="3.68622">
        <ele>69</ele>
        <time>2012-04-01T11:23:49Z</time>
      </trkpt>
      <trkpt lat="47.61134" lon="3.68627">
        <ele>68</ele>
        <time>2012-04-01T11:23:52Z</time>
      </trkpt>
      <trkpt lat="47.61139" lon="3.68626">
        <ele>66</ele>
        <time>2012-04-01T11:23:57Z</time>
      </trkpt>
      <trkpt lat="47.61144" lon="3.68625">
        <ele>64</ele>
        <time>2012-04-01T11:24:01Z</time>
      </trkpt>
      <trkpt lat="47.61149" lon="3.68622">
        <ele>65</ele>
        <time>2012-04-01T11:24:05Z</time>
      </trkpt>
      <trkpt lat="47.61154" lon="3.68622">
        <ele>65</ele>
        <time>2012-04-01T11:24:10Z</time>
      </trkpt>
      <trkpt lat="47.61156" lon="3.68619">
        <ele>66</ele>
        <time>2012-04-01T11:24:16Z</time>
      </trkpt>
      <trkpt lat="47.61166" lon="3.68616">
        <ele>72</ele>
        <time>2012-04-01T11:24:24Z</time>
      </trkpt>
      <trkpt lat="47.61176" lon="3.68618">
        <ele>72</ele>
        <time>2012-04-01T11:24:30Z</time>
      </trkpt>
      <trkpt lat="47.61191" lon="3.68617">
        <ele>66</ele>
        <time>2012-04-01T11:24:41Z</time>
      </trkpt>
      <trkpt lat="47.61196" lon="3.68619">
        <ele>66</ele>
        <time>2012-04-01T11:24:44Z</time>
      </trkpt>
      <trkpt lat="47.61201" lon="3.68621">
        <ele>67</ele>
        <time>2012-04-01T11:24:48Z</time>
      </trkpt>
      <trkpt lat="47.61206" lon="3.68618">
        <ele>67</ele>
        <time>2012-04-01T11:24:52Z</time>
      </trkpt>
      <trkpt lat="47.61209" lon="3.68611">
        <ele>68</ele>
        <time>2012-04-01T11:24:56Z</time>
      </trkpt>
      <trkpt lat="47.61215" lon="3.68608">
        <ele>68</ele>
        <time>2012-04-01T11:25:00Z</time>
      </trkpt>
      <trkpt lat="47.6122" lon="3.68609">
        <ele>68</ele>
        <time>2012-04-01T11:25:04Z</time>
      </trkpt>
      <trkpt lat="47.61236" lon="3.686">
        <ele>74</ele>
        <time>2012-04-01T11:25:17Z</time>
      </trkpt>
      <trkpt lat="47.6124" lon="3.68599">
        <ele>71</ele>
        <time>2012-04-01T11:25:22Z</time>
      </trkpt>
      <trkpt lat="47.61256" lon="3.68595">
        <ele>71</ele>
        <time>2012-04-01T11:25:36Z</time>
      </trkpt>
      <trkpt lat="47.61266" lon="3.68592">
        <ele>66</ele>
        <time>2012-04-01T11:25:44Z</time>
      </trkpt>
      <trkpt lat="47.6127" lon="3.6859">
        <ele>66</ele>
        <time>2012-04-01T11:25:47Z</time>
      </trkpt>
      <trkpt lat="47.61275" lon="3.6859">
        <ele>68</ele>
        <time>2012-04-01T11:25:55Z</time>
      </trkpt>
      <trkpt lat="47.6129" lon="3.68584">
        <ele>61</ele>
        <time>2012-04-01T11:26:06Z</time>
      </trkpt>
      <trkpt lat="47.61299" lon="3.68578">
        <ele>65</ele>
        <time>2012-04-01T11:26:14Z</time>
      </trkpt>
      <trkpt lat="47.61304" lon="3.68575">
        <ele>63</ele>
        <time>2012-04-01T11:26:17Z</time>
      </trkpt>
      <trkpt lat="47.61312" lon="3.6857">
        <ele>69</ele>
        <time>2012-04-01T11:26:23Z</time>
      </trkpt>
      <trkpt lat="47.61317" lon="3.68567">
        <ele>69</ele>
        <time>2012-04-01T11:26:27Z</time>
      </trkpt>
      <trkpt lat="47.61321" lon="3.68569">
        <ele>66</ele>
        <time>2012-04-01T11:26:30Z</time>
      </trkpt>
      <trkpt lat="47.61326" lon="3.68567">
        <ele>69</ele>
        <time>2012-04-01T11:26:34Z</time>
      </trkpt>
      <trkpt lat="47.61331" lon="3.68564">
        <ele>68</ele>
        <time>2012-04-01T11:26:38Z</time>
      </trkpt>
      <trkpt lat="47.61336" lon="3.6856">
        <ele>68</ele>
        <time>2012-04-01T11:26:43Z</time>
      </trkpt>
      <trkpt lat="47.61348" lon="3.68548">
        <ele>65</ele>
        <time>2012-04-01T11:26:54Z</time>
      </trkpt>
      <trkpt lat="47.61351" lon="3.68541">
        <ele>65</ele>
        <time>2012-04-01T11:26:59Z</time>
      </trkpt>
      <trkpt lat="47.61355" lon="3.68537">
        <ele>68</ele>
        <time>2012-04-01T11:27:03Z</time>
      </trkpt>
      <trkpt lat="47.6136" lon="3.68535">
        <ele>67</ele>
        <time>2012-04-01T11:27:07Z</time>
      </trkpt>
      <trkpt lat="47.61364" lon="3.68532">
        <ele>68</ele>
        <time>2012-04-01T11:27:11Z</time>
      </trkpt>
      <trkpt lat="47.61372" lon="3.68524">
        <ele>60</ele>
        <time>2012-04-01T11:27:21Z</time>
      </trkpt>
      <trkpt lat="47.61378" lon="3.68523">
        <ele>59</ele>
        <time>2012-04-01T11:27:26Z</time>
      </trkpt>
      <trkpt lat="47.61388" lon="3.68516">
        <ele>65</ele>
        <time>2012-04-01T11:27:33Z</time>
      </trkpt>
      <trkpt lat="47.61396" lon="3.68509">
        <ele>65</ele>
        <time>2012-04-01T11:27:40Z</time>
      </trkpt>
      <trkpt lat="47.61401" lon="3.68507">
        <ele>62</ele>
        <time>2012-04-01T11:27:46Z</time>
      </trkpt>
      <trkpt lat="47.61405" lon="3.68503">
        <ele>64</ele>
        <time>2012-04-01T11:27:53Z</time>
      </trkpt>
      <trkpt lat="47.61414" lon="3.68489">
        <ele>59</ele>
        <time>2012-04-01T11:28:09Z</time>
      </trkpt>
      <trkpt lat="47.61415" lon="3.68495">
        <ele>61</ele>
        <time>2012-04-01T11:28:13Z</time>
      </trkpt>
      <trkpt lat="47.61423" lon="3.68488">
        <ele>60</ele>
        <time>2012-04-01T11:28:28Z</time>
      </trkpt>
      <trkpt lat="47.61421" lon="3.68481">
        <ele>62</ele>
        <time>2012-04-01T11:28:38Z</time>
      </trkpt>
      <trkpt lat="47.61425" lon="3.68476">
        <ele>61</ele>
        <time>2012-04-01T11:28:42Z</time>
      </trkpt>
      <trkpt lat="47.61429" lon="3.68473">
        <ele>60</ele>
        <time>2012-04-01T11:28:45Z</time>
      </trkpt>
      <trkpt lat="47.61433" lon="3.68468">
        <ele>61</ele>
        <time>2012-04-01T11:28:48Z</time>
      </trkpt>
      <trkpt lat="47.61436" lon="3.68463">
        <ele>61</ele>
        <time>2012-04-01T11:28:51Z</time>
      </trkpt>
      <trkpt lat="47.61444" lon="3.68453">
        <ele>57</ele>
        <time>2012-04-01T11:28:59Z</time>
      </trkpt>
      <trkpt lat="47.61451" lon="3.68443">
        <ele>64</ele>
        <time>2012-04-01T11:29:07Z</time>
      </trkpt>
      <trkpt lat="47.61455" lon="3.68437">
        <ele>62</ele>
        <time>2012-04-01T11:29:11Z</time>
      </trkpt>
      <trkpt lat="47.61459" lon="3.68437">
        <ele>60</ele>
        <time>2012-04-01T11:29:16Z</time>
      </trkpt>
      <trkpt lat="47.61463" lon="3.6843">
        <ele>63</ele>
        <time>2012-04-01T11:29:20Z</time>
      </trkpt>
      <trkpt lat="47.61468" lon="3.68425">
        <ele>57</ele>
        <time>2012-04-01T11:29:24Z</time>
      </trkpt>
      <trkpt lat="47.61473" lon="3.68424">
        <ele>54</ele>
        <time>2012-04-01T11:29:28Z</time>
      </trkpt>
      <trkpt lat="47.61478" lon="3.68416">
        <ele>56</ele>
        <time>2012-04-01T11:29:36Z</time>
      </trkpt>
      <trkpt lat="47.61481" lon="3.68403">
        <ele>64</ele>
        <time>2012-04-01T11:29:41Z</time>
      </trkpt>
      <trkpt lat="47.61485" lon="3.68397">
        <ele>61</ele>
        <time>2012-04-01T11:29:44Z</time>
      </trkpt>
      <trkpt lat="47.61489" lon="3.68394">
        <ele>62</ele>
        <time>2012-04-01T11:29:49Z</time>
      </trkpt>
      <trkpt lat="47.6149" lon="3.68385">
        <ele>60</ele>
        <time>2012-04-01T11:29:54Z</time>
      </trkpt>
      <trkpt lat="47.61493" lon="3.68379">
        <ele>62</ele>
        <time>2012-04-01T11:29:58Z</time>
      </trkpt>
      <trkpt lat="47.61498" lon="3.68376">
        <ele>63</ele>
        <time>2012-04-01T11:30:03Z</time>
      </trkpt>
      <trkpt lat="47.61501" lon="3.68369">
        <ele>66</ele>
        <time>2012-04-01T11:30:06Z</time>
      </trkpt>
      <trkpt lat="47.61503" lon="3.68363">
        <ele>66</ele>
        <time>2012-04-01T11:30:09Z</time>
      </trkpt>
      <trkpt lat="47.61511" lon="3.68353">
        <ele>68</ele>
        <time>2012-04-01T11:30:20Z</time>
      </trkpt>
      <trkpt lat="47.61517" lon="3.68341">
        <ele>61</ele>
        <time>2012-04-01T11:30:31Z</time>
      </trkpt>
      <trkpt lat="47.61527" lon="3.68325">
        <ele>56</ele>
        <time>2012-04-01T11:30:45Z</time>
      </trkpt>
      <trkpt lat="47.6153" lon="3.68318">
        <ele>56</ele>
        <time>2012-04-01T11:30:50Z</time>
      </trkpt>
      <trkpt lat="47.61535" lon="3.68315">
        <ele>55</ele>
        <time>2012-04-01T11:30:53Z</time>
      </trkpt>
      <trkpt lat="47.61541" lon="3.68312">
        <ele>55</ele>
        <time>2012-04-01T11:30:56Z</time>
      </trkpt>
      <trkpt lat="47.61543" lon="3.68306">
        <ele>56</ele>
        <time>2012-04-01T11:31:00Z</time>
      </trkpt>
      <trkpt lat="47.61545" lon="3.68299">
        <ele>55</ele>
        <time>2012-04-01T11:31:04Z</time>
      </trkpt>
      <trkpt lat="47.61549" lon="3.68296">
        <ele>57</ele>
        <time>2012-04-01T11:31:08Z</time>
      </trkpt>
      <trkpt lat="47.61559" lon="3.683">
        <ele>51</ele>
        <time>2012-04-01T11:31:14Z</time>
      </trkpt>
      <trkpt lat="47.61573" lon="3.68312">
        <ele>55</ele>
        <time>2012-04-01T11:31:26Z</time>
      </trkpt>
      <trkpt lat="47.61588" lon="3.68308">
        <ele>55</ele>
        <time>2012-04-01T11:31:38Z</time>
      </trkpt>
      <trkpt lat="47.61592" lon="3.68305">
        <ele>55</ele>
        <time>2012-04-01T11:31:41Z</time>
      </trkpt>
      <trkpt lat="47.61594" lon="3.68303">
        <ele>64</ele>
        <time>2012-04-01T11:31:54Z</time>
      </trkpt>
      <trkpt lat="47.61603" lon="3.68304">
        <ele>62</ele>
        <time>2012-04-01T11:32:00Z</time>
      </trkpt>
      <trkpt lat="47.61609" lon="3.68303">
        <ele>66</ele>
        <time>2012-04-01T11:32:03Z</time>
      </trkpt>
      <trkpt lat="47.61613" lon="3.68298">
        <ele>68</ele>
        <time>2012-04-01T11:32:07Z</time>
      </trkpt>
      <trkpt lat="47.61618" lon="3.68299">
        <ele>61</ele>
        <time>2012-04-01T11:32:13Z</time>
      </trkpt>
      <trkpt lat="47.61624" lon="3.68299">
        <ele>63</ele>
        <time>2012-04-01T11:32:17Z</time>
      </trkpt>
      <trkpt lat="47.61629" lon="3.68295">
        <ele>65</ele>
        <time>2012-04-01T11:32:21Z</time>
      </trkpt>
      <trkpt lat="47.61633" lon="3.6829">
        <ele>65</ele>
        <time>2012-04-01T11:32:25Z</time>
      </trkpt>
      <trkpt lat="47.61637" lon="3.68286">
        <ele>64</ele>
        <time>2012-04-01T11:32:28Z</time>
      </trkpt>
      <trkpt lat="47.61642" lon="3.68284">
        <ele>64</ele>
        <time>2012-04-01T11:32:31Z</time>
      </trkpt>
      <trkpt lat="47.61647" lon="3.68281">
        <ele>61</ele>
        <time>2012-04-01T11:32:36Z</time>
      </trkpt>
      <trkpt lat="47.61657" lon="3.68274">
        <ele>61</ele>
        <time>2012-04-01T11:32:45Z</time>
      </trkpt>
      <trkpt lat="47.61662" lon="3.68272">
        <ele>59</ele>
        <time>2012-04-01T11:32:49Z</time>
      </trkpt>
      <trkpt lat="47.61667" lon="3.6827">
        <ele>59</ele>
        <time>2012-04-01T11:32:53Z</time>
      </trkpt>
      <trkpt lat="47.61671" lon="3.68267">
        <ele>62</ele>
        <time>2012-04-01T11:32:57Z</time>
      </trkpt>
      <trkpt lat="47.61677" lon="3.68263">
        <ele>62</ele>
        <time>2012-04-01T11:33:02Z</time>
      </trkpt>
      <trkpt lat="47.61681" lon="3.6826">
        <ele>63</ele>
        <time>2012-04-01T11:33:05Z</time>
      </trkpt>
      <trkpt lat="47.61686" lon="3.68257">
        <ele>62</ele>
        <time>2012-04-01T11:33:10Z</time>
      </trkpt>
      <trkpt lat="47.61691" lon="3.68256">
        <ele>62</ele>
        <time>2012-04-01T11:33:18Z</time>
      </trkpt>
      <trkpt lat="47.61695" lon="3.68254">
        <ele>59</ele>
        <time>2012-04-01T11:33:22Z</time>
      </trkpt>
      <trkpt lat="47.61712" lon="3.68245">
        <ele>62</ele>
        <time>2012-04-01T11:33:34Z</time>
      </trkpt>
      <trkpt lat="47.61716" lon="3.68244">
        <ele>62</ele>
        <time>2012-04-01T11:33:37Z</time>
      </trkpt>
      <trkpt lat="47.61721" lon="3.68242">
        <ele>65</ele>
        <time>2012-04-01T11:33:40Z</time>
      </trkpt>
      <trkpt lat="47.61726" lon="3.6824">
        <ele>65</ele>
        <time>2012-04-01T11:33:45Z</time>
      </trkpt>
      <trkpt lat="47.6173" lon="3.68235">
        <ele>67</ele>
        <time>2012-04-01T11:33:50Z</time>
      </trkpt>
      <trkpt lat="47.61734" lon="3.68231">
        <ele>66</ele>
        <time>2012-04-01T11:33:55Z</time>
      </trkpt>
      <trkpt lat="47.61738" lon="3.68225">
        <ele>66</ele>
        <time>2012-04-01T11:34:00Z</time>
      </trkpt>
      <trkpt lat="47.61742" lon="3.68222">
        <ele>67</ele>
        <time>2012-04-01T11:34:05Z</time>
      </trkpt>
      <trkpt lat="47.61746" lon="3.68215">
        <ele>68</ele>
        <time>2012-04-01T11:34:09Z</time>
      </trkpt>
      <trkpt lat="47.61751" lon="3.68214">
        <ele>66</ele>
        <time>2012-04-01T11:34:14Z</time>
      </trkpt>
      <trkpt lat="47.61754" lon="3.68219">
        <ele>68</ele>
        <time>2012-04-01T11:34:17Z</time>
      </trkpt>
      <trkpt lat="47.61752" lon="3.68227">
        <ele>67</ele>
        <time>2012-04-01T11:34:20Z</time>
      </trkpt>
      <trkpt lat="47.61752" lon="3.68234">
        <ele>66</ele>
        <time>2012-04-01T11:34:23Z</time>
      </trkpt>
      <trkpt lat="47.61759" lon="3.68244">
        <ele>66</ele>
        <time>2012-04-01T11:34:32Z</time>
      </trkpt>
      <trkpt lat="47.6176" lon="3.68252">
        <ele>66</ele>
        <time>2012-04-01T11:34:36Z</time>
      </trkpt>
      <trkpt lat="47.61761" lon="3.6826">
        <ele>67</ele>
        <time>2012-04-01T11:34:40Z</time>
      </trkpt>
      <trkpt lat="47.61763" lon="3.68266">
        <ele>66</ele>
        <time>2012-04-01T11:34:44Z</time>
      </trkpt>
      <trkpt lat="47.61765" lon="3.68273">
        <ele>68</ele>
        <time>2012-04-01T11:34:48Z</time>
      </trkpt>
      <trkpt lat="47.61769" lon="3.68286">
        <ele>64</ele>
        <time>2012-04-01T11:34:58Z</time>
      </trkpt>
      <trkpt lat="47.6177" lon="3.68293">
        <ele>64</ele>
        <time>2012-04-01T11:35:03Z</time>
      </trkpt>
      <trkpt lat="47.61772" lon="3.68301">
        <ele>69</ele>
        <time>2012-04-01T11:35:06Z</time>
      </trkpt>
      <trkpt lat="47.61773" lon="3.68307">
        <ele>69</ele>
        <time>2012-04-01T11:35:10Z</time>
      </trkpt>
      <trkpt lat="47.61775" lon="3.68314">
        <ele>71</ele>
        <time>2012-04-01T11:35:14Z</time>
      </trkpt>
      <trkpt lat="47.61776" lon="3.68321">
        <ele>70</ele>
        <time>2012-04-01T11:35:18Z</time>
      </trkpt>
      <trkpt lat="47.6178" lon="3.68327">
        <ele>69</ele>
        <time>2012-04-01T11:35:22Z</time>
      </trkpt>
      <trkpt lat="47.6178" lon="3.68333">
        <ele>69</ele>
        <time>2012-04-01T11:35:26Z</time>
      </trkpt>
      <trkpt lat="47.61782" lon="3.6834">
        <ele>71</ele>
        <time>2012-04-01T11:35:31Z</time>
      </trkpt>
      <trkpt lat="47.61785" lon="3.68347">
        <ele>71</ele>
        <time>2012-04-01T11:35:36Z</time>
      </trkpt>
      <trkpt lat="47.61786" lon="3.68355">
        <ele>70</ele>
        <time>2012-04-01T11:35:40Z</time>
      </trkpt>
      <trkpt lat="47.61787" lon="3.68362">
        <ele>71</ele>
        <time>2012-04-01T11:35:44Z</time>
      </trkpt>
      <trkpt lat="47.61792" lon="3.68366">
        <ele>72</ele>
        <time>2012-04-01T11:35:48Z</time>
      </trkpt>
      <trkpt lat="47.61796" lon="3.68371">
        <ele>72</ele>
        <time>2012-04-01T11:35:53Z</time>
      </trkpt>
      <trkpt lat="47.61798" lon="3.68376">
        <ele>71</ele>
        <time>2012-04-01T11:35:59Z</time>
      </trkpt>
      <trkpt lat="47.61802" lon="3.68381">
        <ele>71</ele>
        <time>2012-04-01T11:36:03Z</time>
      </trkpt>
      <trkpt lat="47.61806" lon="3.68384">
        <ele>70</ele>
        <time>2012-04-01T11:36:10Z</time>
      </trkpt>
      <trkpt lat="47.61812" lon="3.68383">
        <ele>70</ele>
        <time>2012-04-01T11:36:15Z</time>
      </trkpt>
      <trkpt lat="47.61816" lon="3.68386">
        <ele>71</ele>
        <time>2012-04-01T11:36:19Z</time>
      </trkpt>
      <trkpt lat="47.61821" lon="3.68386">
        <ele>71</ele>
        <time>2012-04-01T11:36:24Z</time>
      </trkpt>
      <trkpt lat="47.61825" lon="3.68391">
        <ele>70</ele>
        <time>2012-04-01T11:36:28Z</time>
      </trkpt>
      <trkpt lat="47.61824" lon="3.68396">
        <ele>71</ele>
        <time>2012-04-01T11:36:36Z</time>
      </trkpt>
      <trkpt lat="47.61828" lon="3.684">
        <ele>72</ele>
        <time>2012-04-01T11:36:41Z</time>
      </trkpt>
      <trkpt lat="47.61829" lon="3.68407">
        <ele>76</ele>
        <time>2012-04-01T11:36:44Z</time>
      </trkpt>
      <trkpt lat="47.6183" lon="3.68414">
        <ele>78</ele>
        <time>2012-04-01T11:36:47Z</time>
      </trkpt>
      <trkpt lat="47.61837" lon="3.68426">
        <ele>80</ele>
        <time>2012-04-01T11:36:54Z</time>
      </trkpt>
      <trkpt lat="47.6184" lon="3.68431">
        <ele>79</ele>
        <time>2012-04-01T11:36:57Z</time>
      </trkpt>
      <trkpt lat="47.61843" lon="3.68437">
        <ele>80</ele>
        <time>2012-04-01T11:37:03Z</time>
      </trkpt>
      <trkpt lat="47.61844" lon="3.68443">
        <ele>81</ele>
        <time>2012-04-01T11:37:08Z</time>
      </trkpt>
      <trkpt lat="47.61843" lon="3.68451">
        <ele>80</ele>
        <time>2012-04-01T11:37:12Z</time>
      </trkpt>
      <trkpt lat="47.61842" lon="3.68459">
        <ele>81</ele>
        <time>2012-04-01T11:37:16Z</time>
      </trkpt>
      <trkpt lat="47.61843" lon="3.68467">
        <ele>82</ele>
        <time>2012-04-01T11:37:21Z</time>
      </trkpt>
      <trkpt lat="47.61845" lon="3.68474">
        <ele>81</ele>
        <time>2012-04-01T11:37:25Z</time>
      </trkpt>
      <trkpt lat="47.61846" lon="3.68481">
        <ele>82</ele>
        <time>2012-04-01T11:37:27Z</time>
      </trkpt>
      <trkpt lat="47.61848" lon="3.6849">
        <ele>82</ele>
        <time>2012-04-01T11:37:29Z</time>
      </trkpt>
      <trkpt lat="47.61846" lon="3.68497">
        <ele>80</ele>
        <time>2012-04-01T11:37:33Z</time>
      </trkpt>
      <trkpt lat="47.61847" lon="3.68503">
        <ele>82</ele>
        <time>2012-04-01T11:37:38Z</time>
      </trkpt>
      <trkpt lat="47.6185" lon="3.68517">
        <ele>79</ele>
        <time>2012-04-01T11:37:45Z</time>
      </trkpt>
      <trkpt lat="47.61852" lon="3.68519">
        <ele>72</ele>
        <time>2012-04-01T11:37:51Z</time>
      </trkpt>
      <trkpt lat="47.61857" lon="3.68521">
        <ele>75</ele>
        <time>2012-04-01T11:37:57Z</time>
      </trkpt>
      <trkpt lat="47.61862" lon="3.68522">
        <ele>74</ele>
        <time>2012-04-01T11:38:02Z</time>
      </trkpt>
      <trkpt lat="47.61866" lon="3.68528">
        <ele>73</ele>
        <time>2012-04-01T11:38:06Z</time>
      </trkpt>
      <trkpt lat="47.61882" lon="3.68545">
        <ele>79</ele>
        <time>2012-04-01T11:38:19Z</time>
      </trkpt>
      <trkpt lat="47.61886" lon="3.68548">
        <ele>78</ele>
        <time>2012-04-01T11:38:22Z</time>
      </trkpt>
      <trkpt lat="47.6189" lon="3.68552">
        <ele>78</ele>
        <time>2012-04-01T11:38:26Z</time>
      </trkpt>
      <trkpt lat="47.61894" lon="3.68556">
        <ele>79</ele>
        <time>2012-04-01T11:38:30Z</time>
      </trkpt>
      <trkpt lat="47.61897" lon="3.68562">
        <ele>79</ele>
        <time>2012-04-01T11:38:34Z</time>
      </trkpt>
      <trkpt lat="47.61896" lon="3.68571">
        <ele>79</ele>
        <time>2012-04-01T11:38:37Z</time>
      </trkpt>
      <trkpt lat="47.61895" lon="3.68577">
        <ele>79</ele>
        <time>2012-04-01T11:38:39Z</time>
      </trkpt>
      <trkpt lat="47.61892" lon="3.68585">
        <ele>78</ele>
        <time>2012-04-01T11:38:42Z</time>
      </trkpt>
      <trkpt lat="47.61889" lon="3.6859">
        <ele>79</ele>
        <time>2012-04-01T11:38:45Z</time>
      </trkpt>
      <trkpt lat="47.61886" lon="3.68589">
        <ele>78</ele>
        <time>2012-04-01T11:38:54Z</time>
      </trkpt>
      <trkpt lat="47.61885" lon="3.68593">
        <ele>76</ele>
        <time>2012-04-01T11:39:33Z</time>
      </trkpt>
      <trkpt lat="47.61878" lon="3.68603">
        <ele>78</ele>
        <time>2012-04-01T11:39:40Z</time>
      </trkpt>
      <trkpt lat="47.61874" lon="3.68608">
        <ele>76</ele>
        <time>2012-04-01T11:39:44Z</time>
      </trkpt>
      <trkpt lat="47.6187" lon="3.68614">
        <ele>76</ele>
        <time>2012-04-01T11:39:48Z</time>
      </trkpt>
      <trkpt lat="47.61863" lon="3.68625">
        <ele>80</ele>
        <time>2012-04-01T11:39:57Z</time>
      </trkpt>
      <trkpt lat="47.6186" lon="3.6863">
        <ele>79</ele>
        <time>2012-04-01T11:40:01Z</time>
      </trkpt>
      <trkpt lat="47.61857" lon="3.68637">
        <ele>81</ele>
        <time>2012-04-01T11:40:05Z</time>
      </trkpt>
      <trkpt lat="47.61856" lon="3.68646">
        <ele>86</ele>
        <time>2012-04-01T11:40:14Z</time>
      </trkpt>
      <trkpt lat="47.61854" lon="3.68661">
        <ele>80</ele>
        <time>2012-04-01T11:40:21Z</time>
      </trkpt>
      <trkpt lat="47.61856" lon="3.68668">
        <ele>81</ele>
        <time>2012-04-01T11:40:26Z</time>
      </trkpt>
      <trkpt lat="47.61861" lon="3.68673">
        <ele>81</ele>
        <time>2012-04-01T11:40:29Z</time>
      </trkpt>
      <trkpt lat="47.61864" lon="3.68682">
        <ele>85</ele>
        <time>2012-04-01T11:40:32Z</time>
      </trkpt>
      <trkpt lat="47.61865" lon="3.68689">
        <ele>84</ele>
        <time>2012-04-01T11:40:34Z</time>
      </trkpt>
      <trkpt lat="47.6187" lon="3.68717">
        <ele>90</ele>
        <time>2012-04-01T11:40:49Z</time>
      </trkpt>
      <trkpt lat="47.61871" lon="3.68723">
        <ele>89</ele>
        <time>2012-04-01T11:40:54Z</time>
      </trkpt>
      <trkpt lat="47.61869" lon="3.68732">
        <ele>89</ele>
        <time>2012-04-01T11:40:58Z</time>
      </trkpt>
      <trkpt lat="47.61868" lon="3.68747">
        <ele>86</ele>
        <time>2012-04-01T11:41:05Z</time>
      </trkpt>
      <trkpt lat="47.61867" lon="3.68755">
        <ele>90</ele>
        <time>2012-04-01T11:41:09Z</time>
      </trkpt>
      <trkpt lat="47.61868" lon="3.68762">
        <ele>90</ele>
        <time>2012-04-01T11:41:12Z</time>
      </trkpt>
      <trkpt lat="47.61867" lon="3.68768">
        <ele>89</ele>
        <time>2012-04-01T11:41:16Z</time>
      </trkpt>
      <trkpt lat="47.61864" lon="3.68775">
        <ele>89</ele>
        <time>2012-04-01T11:41:20Z</time>
      </trkpt>
      <trkpt lat="47.61857" lon="3.68788">
        <ele>91</ele>
        <time>2012-04-01T11:41:28Z</time>
      </trkpt>
      <trkpt lat="47.61853" lon="3.68795">
        <ele>89</ele>
        <time>2012-04-01T11:41:31Z</time>
      </trkpt>
      <trkpt lat="47.61853" lon="3.68802">
        <ele>92</ele>
        <time>2012-04-01T11:41:38Z</time>
      </trkpt>
      <trkpt lat="47.6185" lon="3.68808">
        <ele>91</ele>
        <time>2012-04-01T11:41:42Z</time>
      </trkpt>
      <trkpt lat="47.61846" lon="3.68812">
        <ele>91</ele>
        <time>2012-04-01T11:41:48Z</time>
      </trkpt>
      <trkpt lat="47.61846" lon="3.68821">
        <ele>93</ele>
        <time>2012-04-01T11:41:53Z</time>
      </trkpt>
      <trkpt lat="47.61843" lon="3.68828">
        <ele>92</ele>
        <time>2012-04-01T11:41:56Z</time>
      </trkpt>
      <trkpt lat="47.61835" lon="3.68838">
        <ele>92</ele>
        <time>2012-04-01T11:42:02Z</time>
      </trkpt>
      <trkpt lat="47.61831" lon="3.68842">
        <ele>93</ele>
        <time>2012-04-01T11:42:04Z</time>
      </trkpt>
      <trkpt lat="47.61827" lon="3.68847">
        <ele>92</ele>
        <time>2012-04-01T11:42:07Z</time>
      </trkpt>
      <trkpt lat="47.61818" lon="3.68864">
        <ele>97</ele>
        <time>2012-04-01T11:42:21Z</time>
      </trkpt>
      <trkpt lat="47.6181" lon="3.68875">
        <ele>97</ele>
        <time>2012-04-01T11:42:28Z</time>
      </trkpt>
      <trkpt lat="47.61806" lon="3.68883">
        <ele>98</ele>
        <time>2012-04-01T11:42:33Z</time>
      </trkpt>
      <trkpt lat="47.61798" lon="3.68899">
        <ele>98</ele>
        <time>2012-04-01T11:42:46Z</time>
      </trkpt>
      <trkpt lat="47.61797" lon="3.68906">
        <ele>100</ele>
        <time>2012-04-01T11:42:51Z</time>
      </trkpt>
      <trkpt lat="47.61793" lon="3.68911">
        <ele>99</ele>
        <time>2012-04-01T11:42:58Z</time>
      </trkpt>
      <trkpt lat="47.6179" lon="3.68925">
        <ele>102</ele>
        <time>2012-04-01T11:43:04Z</time>
      </trkpt>
      <trkpt lat="47.61789" lon="3.68933">
        <ele>102</ele>
        <time>2012-04-01T11:43:07Z</time>
      </trkpt>
      <trkpt lat="47.61788" lon="3.68941">
        <ele>101</ele>
        <time>2012-04-01T11:43:10Z</time>
      </trkpt>
      <trkpt lat="47.61784" lon="3.68954">
        <ele>101</ele>
        <time>2012-04-01T11:43:17Z</time>
      </trkpt>
      <trkpt lat="47.61779" lon="3.68967">
        <ele>99</ele>
        <time>2012-04-01T11:43:25Z</time>
      </trkpt>
      <trkpt lat="47.61777" lon="3.68974">
        <ele>99</ele>
        <time>2012-04-01T11:43:29Z</time>
      </trkpt>
      <trkpt lat="47.61773" lon="3.68987">
        <ele>95</ele>
        <time>2012-04-01T11:43:36Z</time>
      </trkpt>
      <trkpt lat="47.61771" lon="3.68994">
        <ele>95</ele>
        <time>2012-04-01T11:43:40Z</time>
      </trkpt>
      <trkpt lat="47.61769" lon="3.69">
        <ele>96</ele>
        <time>2012-04-01T11:43:46Z</time>
      </trkpt>
      <trkpt lat="47.61769" lon="3.69008">
        <ele>98</ele>
        <time>2012-04-01T11:43:50Z</time>
      </trkpt>
      <trkpt lat="47.61768" lon="3.69017">
        <ele>98</ele>
        <time>2012-04-01T11:43:52Z</time>
      </trkpt>
      <trkpt lat="47.61764" lon="3.6904">
        <ele>101</ele>
        <time>2012-04-01T11:44:06Z</time>
      </trkpt>
      <trkpt lat="47.61762" lon="3.69047">
        <ele>99</ele>
        <time>2012-04-01T11:44:12Z</time>
      </trkpt>
      <trkpt lat="47.61759" lon="3.69078">
        <ele>109</ele>
        <time>2012-04-01T11:44:30Z</time>
      </trkpt>
      <trkpt lat="47.61757" lon="3.69092">
        <ele>109</ele>
        <time>2012-04-01T11:44:39Z</time>
      </trkpt>
      <trkpt lat="47.61755" lon="3.691">
        <ele>107</ele>
        <time>2012-04-01T11:44:43Z</time>
      </trkpt>
      <trkpt lat="47.61754" lon="3.69116">
        <ele>111</ele>
        <time>2012-04-01T11:44:52Z</time>
      </trkpt>
      <trkpt lat="47.61756" lon="3.69126">
        <ele>110</ele>
        <time>2012-04-01T11:45:01Z</time>
      </trkpt>
      <trkpt lat="47.61763" lon="3.69138">
        <ele>118</ele>
        <time>2012-04-01T11:45:06Z</time>
      </trkpt>
      <trkpt lat="47.61766" lon="3.69143">
        <ele>117</ele>
        <time>2012-04-01T11:45:09Z</time>
      </trkpt>
      <trkpt lat="47.61771" lon="3.69158">
        <ele>123</ele>
        <time>2012-04-01T11:45:14Z</time>
      </trkpt>
      <trkpt lat="47.61773" lon="3.69164">
        <ele>123</ele>
        <time>2012-04-01T11:45:16Z</time>
      </trkpt>
      <trkpt lat="47.61777" lon="3.69169">
        <ele>123</ele>
        <time>2012-04-01T11:45:20Z</time>
      </trkpt>
      <trkpt lat="47.61781" lon="3.69174">
        <ele>127</ele>
        <time>2012-04-01T11:45:25Z</time>
      </trkpt>
      <trkpt lat="47.61785" lon="3.69179">
        <ele>127</ele>
        <time>2012-04-01T11:45:30Z</time>
      </trkpt>
      <trkpt lat="47.61787" lon="3.69185">
        <ele>128</ele>
        <time>2012-04-01T11:45:34Z</time>
      </trkpt>
      <trkpt lat="47.61789" lon="3.69192">
        <ele>124</ele>
        <time>2012-04-01T11:45:39Z</time>
      </trkpt>
      <trkpt lat="47.6179" lon="3.69208">
        <ele>124</ele>
        <time>2012-04-01T11:45:46Z</time>
      </trkpt>
      <trkpt lat="47.61792" lon="3.69215">
        <ele>122</ele>
        <time>2012-04-01T11:45:49Z</time>
      </trkpt>
      <trkpt lat="47.61794" lon="3.69221">
        <ele>122</ele>
        <time>2012-04-01T11:45:54Z</time>
      </trkpt>
      <trkpt lat="47.6179" lon="3.6923">
        <ele>121</ele>
        <time>2012-04-01T11:46:00Z</time>
      </trkpt>
      <trkpt lat="47.61789" lon="3.69246">
        <ele>121</ele>
        <time>2012-04-01T11:46:06Z</time>
      </trkpt>
      <trkpt lat="47.6179" lon="3.69262">
        <ele>123</ele>
        <time>2012-04-01T11:46:13Z</time>
      </trkpt>
      <trkpt lat="47.6179" lon="3.69269">
        <ele>123</ele>
        <time>2012-04-01T11:46:16Z</time>
      </trkpt>
      <trkpt lat="47.61789" lon="3.69278">
        <ele>121</ele>
        <time>2012-04-01T11:46:20Z</time>
      </trkpt>
      <trkpt lat="47.6179" lon="3.69286">
        <ele>123</ele>
        <time>2012-04-01T11:46:24Z</time>
      </trkpt>
      <trkpt lat="47.6179" lon="3.69293">
        <ele>123</ele>
        <time>2012-04-01T11:46:27Z</time>
      </trkpt>
      <trkpt lat="47.61792" lon="3.69321">
        <ele>129</ele>
        <time>2012-04-01T11:46:41Z</time>
      </trkpt>
      <trkpt lat="47.61793" lon="3.69328">
        <ele>129</ele>
        <time>2012-04-01T11:46:44Z</time>
      </trkpt>
      <trkpt lat="47.61795" lon="3.69334">
        <ele>128</ele>
        <time>2012-04-01T11:46:48Z</time>
      </trkpt>
      <trkpt lat="47.61796" lon="3.69341">
        <ele>129</ele>
        <time>2012-04-01T11:46:52Z</time>
      </trkpt>
      <trkpt lat="47.618" lon="3.69345">
        <ele>130</ele>
        <time>2012-04-01T11:46:55Z</time>
      </trkpt>
      <trkpt lat="47.61804" lon="3.69353">
        <ele>130</ele>
        <time>2012-04-01T11:46:59Z</time>
      </trkpt>
      <trkpt lat="47.61804" lon="3.6936">
        <ele>132</ele>
        <time>2012-04-01T11:47:02Z</time>
      </trkpt>
      <trkpt lat="47.61806" lon="3.69384">
        <ele>132</ele>
        <time>2012-04-01T11:47:11Z</time>
      </trkpt>
      <trkpt lat="47.61808" lon="3.69391">
        <ele>131</ele>
        <time>2012-04-01T11:47:14Z</time>
      </trkpt>
      <trkpt lat="47.61807" lon="3.69397">
        <ele>131</ele>
        <time>2012-04-01T11:47:19Z</time>
      </trkpt>
      <trkpt lat="47.61806" lon="3.69404">
        <ele>132</ele>
        <time>2012-04-01T11:47:24Z</time>
      </trkpt>
      <trkpt lat="47.61813" lon="3.69429">
        <ele>132</ele>
        <time>2012-04-01T11:47:36Z</time>
      </trkpt>
      <trkpt lat="47.61815" lon="3.69437">
        <ele>128</ele>
        <time>2012-04-01T11:47:40Z</time>
      </trkpt>
      <trkpt lat="47.61818" lon="3.69445">
        <ele>130</ele>
        <time>2012-04-01T11:47:44Z</time>
      </trkpt>
      <trkpt lat="47.61819" lon="3.69453">
        <ele>129</ele>
        <time>2012-04-01T11:47:47Z</time>
      </trkpt>
      <trkpt lat="47.61819" lon="3.69469">
        <ele>129</ele>
        <time>2012-04-01T11:47:54Z</time>
      </trkpt>
      <trkpt lat="47.61818" lon="3.69475">
        <ele>128</ele>
        <time>2012-04-01T11:47:56Z</time>
      </trkpt>
      <trkpt lat="47.61816" lon="3.69483">
        <ele>128</ele>
        <time>2012-04-01T11:47:59Z</time>
      </trkpt>
      <trkpt lat="47.61817" lon="3.69499">
        <ele>135</ele>
        <time>2012-04-01T11:48:08Z</time>
      </trkpt>
      <trkpt lat="47.61822" lon="3.69513">
        <ele>135</ele>
        <time>2012-04-01T11:48:15Z</time>
      </trkpt>
      <trkpt lat="47.61824" lon="3.69522">
        <ele>137</ele>
        <time>2012-04-01T11:48:18Z</time>
      </trkpt>
      <trkpt lat="47.61826" lon="3.69529">
        <ele>137</ele>
        <time>2012-04-01T11:48:21Z</time>
      </trkpt>
      <trkpt lat="47.61828" lon="3.69536">
        <ele>139</ele>
        <time>2012-04-01T11:48:24Z</time>
      </trkpt>
      <trkpt lat="47.61833" lon="3.69549">
        <ele>137</ele>
        <time>2012-04-01T11:48:31Z</time>
      </trkpt>
      <trkpt lat="47.61835" lon="3.69555">
        <ele>137</ele>
        <time>2012-04-01T11:48:34Z</time>
      </trkpt>
      <trkpt lat="47.61836" lon="3.69563">
        <ele>138</ele>
        <time>2012-04-01T11:48:38Z</time>
      </trkpt>
      <trkpt lat="47.61837" lon="3.69587">
        <ele>133</ele>
        <time>2012-04-01T11:48:51Z</time>
      </trkpt>
      <trkpt lat="47.61833" lon="3.696">
        <ele>135</ele>
        <time>2012-04-01T11:48:58Z</time>
      </trkpt>
      <trkpt lat="47.61832" lon="3.69607">
        <ele>134</ele>
        <time>2012-04-01T11:49:01Z</time>
      </trkpt>
      <trkpt lat="47.6183" lon="3.69614">
        <ele>134</ele>
        <time>2012-04-01T11:49:04Z</time>
      </trkpt>
      <trkpt lat="47.6183" lon="3.69622">
        <ele>133</ele>
        <time>2012-04-01T11:49:07Z</time>
      </trkpt>
      <trkpt lat="47.61829" lon="3.69631">
        <ele>134</ele>
        <time>2012-04-01T11:49:10Z</time>
      </trkpt>
      <trkpt lat="47.61829" lon="3.69638">
        <ele>134</ele>
        <time>2012-04-01T11:49:13Z</time>
      </trkpt>
      <trkpt lat="47.61828" lon="3.69646">
        <ele>133</ele>
        <time>2012-04-01T11:49:16Z</time>
      </trkpt>
      <trkpt lat="47.61821" lon="3.69665">
        <ele>136</ele>
        <time>2012-04-01T11:49:26Z</time>
      </trkpt>
      <trkpt lat="47.61821" lon="3.69681">
        <ele>140</ele>
        <time>2012-04-01T11:49:34Z</time>
      </trkpt>
      <trkpt lat="47.61819" lon="3.69699">
        <ele>140</ele>
        <time>2012-04-01T11:49:40Z</time>
      </trkpt>
      <trkpt lat="47.61816" lon="3.69711">
        <ele>138</ele>
        <time>2012-04-01T11:49:49Z</time>
      </trkpt>
      <trkpt lat="47.61813" lon="3.69725">
        <ele>138</ele>
        <time>2012-04-01T11:49:55Z</time>
      </trkpt>
      <trkpt lat="47.61811" lon="3.69732">
        <ele>137</ele>
        <time>2012-04-01T11:49:59Z</time>
      </trkpt>
      <trkpt lat="47.61809" lon="3.69738">
        <ele>139</ele>
        <time>2012-04-01T11:50:02Z</time>
      </trkpt>
      <trkpt lat="47.6181" lon="3.69745">
        <ele>137</ele>
        <time>2012-04-01T11:50:07Z</time>
      </trkpt>
      <trkpt lat="47.6181" lon="3.69759">
        <ele>140</ele>
        <time>2012-04-01T11:50:17Z</time>
      </trkpt>
      <trkpt lat="47.61807" lon="3.69765">
        <ele>142</ele>
        <time>2012-04-01T11:50:21Z</time>
      </trkpt>
      <trkpt lat="47.61797" lon="3.69787">
        <ele>142</ele>
        <time>2012-04-01T11:50:29Z</time>
      </trkpt>
      <trkpt lat="47.61795" lon="3.69795">
        <ele>141</ele>
        <time>2012-04-01T11:50:32Z</time>
      </trkpt>
      <trkpt lat="47.61792" lon="3.69801">
        <ele>141</ele>
        <time>2012-04-01T11:50:36Z</time>
      </trkpt>
      <trkpt lat="47.6179" lon="3.69807">
        <ele>142</ele>
        <time>2012-04-01T11:50:39Z</time>
      </trkpt>
      <trkpt lat="47.61788" lon="3.69815">
        <ele>142</ele>
        <time>2012-04-01T11:50:42Z</time>
      </trkpt>
      <trkpt lat="47.61789" lon="3.69823">
        <ele>142</ele>
        <time>2012-04-01T11:50:49Z</time>
      </trkpt>
      <trkpt lat="47.61788" lon="3.6983">
        <ele>143</ele>
        <time>2012-04-01T11:50:52Z</time>
      </trkpt>
      <trkpt lat="47.61785" lon="3.69836">
        <ele>142</ele>
        <time>2012-04-01T11:50:55Z</time>
      </trkpt>
      <trkpt lat="47.61784" lon="3.69844">
        <ele>144</ele>
        <time>2012-04-01T11:50:59Z</time>
      </trkpt>
      <trkpt lat="47.61782" lon="3.6985">
        <ele>142</ele>
        <time>2012-04-01T11:51:02Z</time>
      </trkpt>
      <trkpt lat="47.61774" lon="3.69872">
        <ele>148</ele>
        <time>2012-04-01T11:51:09Z</time>
      </trkpt>
      <trkpt lat="47.61772" lon="3.69888">
        <ele>146</ele>
        <time>2012-04-01T11:51:13Z</time>
      </trkpt>
      <trkpt lat="47.6177" lon="3.69894">
        <ele>149</ele>
        <time>2012-04-01T11:51:15Z</time>
      </trkpt>
      <trkpt lat="47.61762" lon="3.69914">
        <ele>146</ele>
        <time>2012-04-01T11:51:24Z</time>
      </trkpt>
      <trkpt lat="47.61752" lon="3.69939">
        <ele>155</ele>
        <time>2012-04-01T11:51:41Z</time>
      </trkpt>
      <trkpt lat="47.61757" lon="3.69951">
        <ele>153</ele>
        <time>2012-04-01T11:51:48Z</time>
      </trkpt>
      <trkpt lat="47.61756" lon="3.69959">
        <ele>154</ele>
        <time>2012-04-01T11:51:53Z</time>
      </trkpt>
      <trkpt lat="47.61753" lon="3.69973">
        <ele>149</ele>
        <time>2012-04-01T11:52:02Z</time>
      </trkpt>
      <trkpt lat="47.6175" lon="3.69981">
        <ele>149</ele>
        <time>2012-04-01T11:52:05Z</time>
      </trkpt>
      <trkpt lat="47.61747" lon="3.69985">
        <ele>147</ele>
        <time>2012-04-01T11:52:08Z</time>
      </trkpt>
      <trkpt lat="47.61742" lon="3.69989">
        <ele>147</ele>
        <time>2012-04-01T11:52:12Z</time>
      </trkpt>
      <trkpt lat="47.6174" lon="3.69992">
        <ele>144</ele>
        <time>2012-04-01T11:52:51Z</time>
      </trkpt>
      <trkpt lat="47.61738" lon="3.7">
        <ele>145</ele>
        <time>2012-04-01T11:52:54Z</time>
      </trkpt>
      <trkpt lat="47.61737" lon="3.70007">
        <ele>144</ele>
        <time>2012-04-01T11:52:57Z</time>
      </trkpt>
      <trkpt lat="47.61736" lon="3.70014">
        <ele>144</ele>
        <time>2012-04-01T11:53:00Z</time>
      </trkpt>
      <trkpt lat="47.61734" lon="3.70022">
        <ele>146</ele>
        <time>2012-04-01T11:53:03Z</time>
      </trkpt>
      <trkpt lat="47.6173" lon="3.70027">
        <ele>145</ele>
        <time>2012-04-01T11:53:06Z</time>
      </trkpt>
      <trkpt lat="47.61727" lon="3.70034">
        <ele>145</ele>
        <time>2012-04-01T11:53:11Z</time>
      </trkpt>
      <trkpt lat="47.61726" lon="3.70038">
        <ele>148</ele>
        <time>2012-04-01T11:56:30Z</time>
      </trkpt>
      <trkpt lat="47.6173" lon="3.70036">
        <ele>151</ele>
        <time>2012-04-01T11:57:11Z</time>
      </trkpt>
      <trkpt lat="47.61732" lon="3.70033">
        <ele>153</ele>
        <time>2012-04-01T11:57:19Z</time>
      </trkpt>
      <trkpt lat="47.61736" lon="3.70037">
        <ele>159</ele>
        <time>2012-04-01T11:57:35Z</time>
      </trkpt>
      <trkpt lat="47.61737" lon="3.70041">
        <ele>163</ele>
        <time>2012-04-01T11:57:46Z</time>
      </trkpt>
      <trkpt lat="47.61737" lon="3.70048">
        <ele>152</ele>
        <time>2012-04-01T11:58:51Z</time>
      </trkpt>
      <trkpt lat="47.61736" lon="3.70056">
        <ele>152</ele>
        <time>2012-04-01T11:58:55Z</time>
      </trkpt>
      <trkpt lat="47.61736" lon="3.70063">
        <ele>153</ele>
        <time>2012-04-01T11:58:59Z</time>
      </trkpt>
      <trkpt lat="47.61737" lon="3.7007">
        <ele>151</ele>
        <time>2012-04-01T11:59:04Z</time>
      </trkpt>
      <trkpt lat="47.61737" lon="3.70107">
        <ele>151</ele>
        <time>2012-04-01T11:59:25Z</time>
      </trkpt>
      <trkpt lat="47.61737" lon="3.70115">
        <ele>150</ele>
        <time>2012-04-01T11:59:29Z</time>
      </trkpt>
      <trkpt lat="47.61735" lon="3.70129">
        <ele>150</ele>
        <time>2012-04-01T11:59:36Z</time>
      </trkpt>
      <trkpt lat="47.61731" lon="3.70134">
        <ele>150</ele>
        <time>2012-04-01T11:59:41Z</time>
      </trkpt>
      <trkpt lat="47.6172" lon="3.70141">
        <ele>150</ele>
        <time>2012-04-01T11:59:56Z</time>
      </trkpt>
      <trkpt lat="47.61719" lon="3.70133">
        <ele>149</ele>
        <time>2012-04-01T12:00:39Z</time>
      </trkpt>
      <trkpt lat="47.61717" lon="3.70134">
        <ele>148</ele>
        <time>2012-04-01T12:00:51Z</time>
      </trkpt>
      <trkpt lat="47.61712" lon="3.70135">
        <ele>149</ele>
        <time>2012-04-01T12:00:55Z</time>
      </trkpt>
      <trkpt lat="47.61707" lon="3.70138">
        <ele>148</ele>
        <time>2012-04-01T12:01:00Z</time>
      </trkpt>
      <trkpt lat="47.61702" lon="3.70137">
        <ele>149</ele>
        <time>2012-04-01T12:01:04Z</time>
      </trkpt>
      <trkpt lat="47.61692" lon="3.70141">
        <ele>149</ele>
        <time>2012-04-01T12:01:12Z</time>
      </trkpt>
      <trkpt lat="47.61688" lon="3.7014">
        <ele>149</ele>
        <time>2012-04-01T12:01:16Z</time>
      </trkpt>
      <trkpt lat="47.61684" lon="3.70136">
        <ele>148</ele>
        <time>2012-04-01T12:01:22Z</time>
      </trkpt>
      <trkpt lat="47.61678" lon="3.70133">
        <ele>152</ele>
        <time>2012-04-01T12:01:28Z</time>
      </trkpt>
      <trkpt lat="47.61673" lon="3.70129">
        <ele>150</ele>
        <time>2012-04-01T12:01:32Z</time>
      </trkpt>
      <trkpt lat="47.61668" lon="3.70127">
        <ele>151</ele>
        <time>2012-04-01T12:01:35Z</time>
      </trkpt>
      <trkpt lat="47.61664" lon="3.70129">
        <ele>150</ele>
        <time>2012-04-01T12:01:37Z</time>
      </trkpt>
      <trkpt lat="47.61658" lon="3.70128">
        <ele>151</ele>
        <time>2012-04-01T12:01:41Z</time>
      </trkpt>
      <trkpt lat="47.61653" lon="3.70127">
        <ele>150</ele>
        <time>2012-04-01T12:01:46Z</time>
      </trkpt>
      <trkpt lat="47.61648" lon="3.70125">
        <ele>150</ele>
        <time>2012-04-01T12:01:49Z</time>
      </trkpt>
      <trkpt lat="47.61644" lon="3.70127">
        <ele>151</ele>
        <time>2012-04-01T12:01:52Z</time>
      </trkpt>
      <trkpt lat="47.61639" lon="3.7013">
        <ele>150</ele>
        <time>2012-04-01T12:01:55Z</time>
      </trkpt>
      <trkpt lat="47.61628" lon="3.70128">
        <ele>150</ele>
        <time>2012-04-01T12:02:03Z</time>
      </trkpt>
      <trkpt lat="47.61623" lon="3.70126">
        <ele>149</ele>
        <time>2012-04-01T12:02:06Z</time>
      </trkpt>
      <trkpt lat="47.61619" lon="3.70124">
        <ele>149</ele>
        <time>2012-04-01T12:02:10Z</time>
      </trkpt>
      <trkpt lat="47.61614" lon="3.70123">
        <ele>147</ele>
        <time>2012-04-01T12:02:14Z</time>
      </trkpt>
      <trkpt lat="47.61609" lon="3.70119">
        <ele>148</ele>
        <time>2012-04-01T12:02:18Z</time>
      </trkpt>
      <trkpt lat="47.61599" lon="3.70115">
        <ele>148</ele>
        <time>2012-04-01T12:02:26Z</time>
      </trkpt>
      <trkpt lat="47.61589" lon="3.70113">
        <ele>152</ele>
        <time>2012-04-01T12:02:34Z</time>
      </trkpt>
      <trkpt lat="47.61579" lon="3.70113">
        <ele>152</ele>
        <time>2012-04-01T12:02:43Z</time>
      </trkpt>
      <trkpt lat="47.61569" lon="3.70114">
        <ele>147</ele>
        <time>2012-04-01T12:02:50Z</time>
      </trkpt>
      <trkpt lat="47.6156" lon="3.70113">
        <ele>147</ele>
        <time>2012-04-01T12:02:57Z</time>
      </trkpt>
      <trkpt lat="47.61555" lon="3.70112">
        <ele>148</ele>
        <time>2012-04-01T12:03:01Z</time>
      </trkpt>
      <trkpt lat="47.61545" lon="3.70111">
        <ele>148</ele>
        <time>2012-04-01T12:03:07Z</time>
      </trkpt>
      <trkpt lat="47.61541" lon="3.70107">
        <ele>151</ele>
        <time>2012-04-01T12:03:11Z</time>
      </trkpt>
      <trkpt lat="47.61542" lon="3.70101">
        <ele>147</ele>
        <time>2012-04-01T12:03:14Z</time>
      </trkpt>
      <trkpt lat="47.61537" lon="3.70096">
        <ele>144</ele>
        <time>2012-04-01T12:03:19Z</time>
      </trkpt>
      <trkpt lat="47.61532" lon="3.70093">
        <ele>149</ele>
        <time>2012-04-01T12:03:22Z</time>
      </trkpt>
      <trkpt lat="47.61527" lon="3.70092">
        <ele>149</ele>
        <time>2012-04-01T12:03:25Z</time>
      </trkpt>
      <trkpt lat="47.61518" lon="3.70088">
        <ele>146</ele>
        <time>2012-04-01T12:03:32Z</time>
      </trkpt>
      <trkpt lat="47.61512" lon="3.70085">
        <ele>146</ele>
        <time>2012-04-01T12:03:37Z</time>
      </trkpt>
      <trkpt lat="47.61508" lon="3.70083">
        <ele>145</ele>
        <time>2012-04-01T12:03:41Z</time>
      </trkpt>
      <trkpt lat="47.61503" lon="3.70081">
        <ele>148</ele>
        <time>2012-04-01T12:03:45Z</time>
      </trkpt>
      <trkpt lat="47.61499" lon="3.70076">
        <ele>147</ele>
        <time>2012-04-01T12:03:50Z</time>
      </trkpt>
      <trkpt lat="47.61495" lon="3.70074">
        <ele>147</ele>
        <time>2012-04-01T12:03:54Z</time>
      </trkpt>
      <trkpt lat="47.61484" lon="3.70074">
        <ele>147</ele>
        <time>2012-04-01T12:04:01Z</time>
      </trkpt>
      <trkpt lat="47.61478" lon="3.70072">
        <ele>146</ele>
        <time>2012-04-01T12:04:06Z</time>
      </trkpt>
      <trkpt lat="47.61473" lon="3.7007">
        <ele>146</ele>
        <time>2012-04-01T12:04:10Z</time>
      </trkpt>
      <trkpt lat="47.61468" lon="3.7007">
        <ele>148</ele>
        <time>2012-04-01T12:04:14Z</time>
      </trkpt>
      <trkpt lat="47.61458" lon="3.70068">
        <ele>146</ele>
        <time>2012-04-01T12:04:21Z</time>
      </trkpt>
      <trkpt lat="47.61452" lon="3.70068">
        <ele>147</ele>
        <time>2012-04-01T12:04:26Z</time>
      </trkpt>
      <trkpt lat="47.61447" lon="3.70064">
        <ele>144</ele>
        <time>2012-04-01T12:04:31Z</time>
      </trkpt>
      <trkpt lat="47.61443" lon="3.70061">
        <ele>144</ele>
        <time>2012-04-01T12:04:34Z</time>
      </trkpt>
      <trkpt lat="47.61439" lon="3.7006">
        <ele>145</ele>
        <time>2012-04-01T12:04:37Z</time>
      </trkpt>
      <trkpt lat="47.61434" lon="3.70058">
        <ele>145</ele>
        <time>2012-04-01T12:04:41Z</time>
      </trkpt>
      <trkpt lat="47.61429" lon="3.70056">
        <ele>146</ele>
        <time>2012-04-01T12:04:45Z</time>
      </trkpt>
      <trkpt lat="47.61424" lon="3.70055">
        <ele>145</ele>
        <time>2012-04-01T12:04:48Z</time>
      </trkpt>
      <trkpt lat="47.61414" lon="3.70049">
        <ele>145</ele>
        <time>2012-04-01T12:04:57Z</time>
      </trkpt>
      <trkpt lat="47.61409" lon="3.70047">
        <ele>144</ele>
        <time>2012-04-01T12:05:02Z</time>
      </trkpt>
      <trkpt lat="47.61405" lon="3.70045">
        <ele>144</ele>
        <time>2012-04-01T12:05:06Z</time>
      </trkpt>
      <trkpt lat="47.61394" lon="3.70044">
        <ele>146</ele>
        <time>2012-04-01T12:05:14Z</time>
      </trkpt>
      <trkpt lat="47.61389" lon="3.70042">
        <ele>146</ele>
        <time>2012-04-01T12:05:17Z</time>
      </trkpt>
      <trkpt lat="47.61384" lon="3.7004">
        <ele>148</ele>
        <time>2012-04-01T12:05:21Z</time>
      </trkpt>
      <trkpt lat="47.61379" lon="3.70038">
        <ele>148</ele>
        <time>2012-04-01T12:05:24Z</time>
      </trkpt>
      <trkpt lat="47.61373" lon="3.70037">
        <ele>149</ele>
        <time>2012-04-01T12:05:28Z</time>
      </trkpt>
      <trkpt lat="47.61368" lon="3.70037">
        <ele>149</ele>
        <time>2012-04-01T12:05:33Z</time>
      </trkpt>
      <trkpt lat="47.61363" lon="3.70034">
        <ele>150</ele>
        <time>2012-04-01T12:05:37Z</time>
      </trkpt>
      <trkpt lat="47.61358" lon="3.70035">
        <ele>150</ele>
        <time>2012-04-01T12:05:41Z</time>
      </trkpt>
      <trkpt lat="47.61353" lon="3.70031">
        <ele>150</ele>
        <time>2012-04-01T12:05:46Z</time>
      </trkpt>
      <trkpt lat="47.61348" lon="3.7003">
        <ele>151</ele>
        <time>2012-04-01T12:05:49Z</time>
      </trkpt>
      <trkpt lat="47.61341" lon="3.7003">
        <ele>151</ele>
        <time>2012-04-01T12:05:52Z</time>
      </trkpt>
      <trkpt lat="47.61331" lon="3.70031">
        <ele>146</ele>
        <time>2012-04-01T12:06:00Z</time>
      </trkpt>
      <trkpt lat="47.61326" lon="3.7003">
        <ele>148</ele>
        <time>2012-04-01T12:06:03Z</time>
      </trkpt>
      <trkpt lat="47.61321" lon="3.7003">
        <ele>143</ele>
        <time>2012-04-01T12:06:07Z</time>
      </trkpt>
      <trkpt lat="47.6132" lon="3.70024">
        <ele>144</ele>
        <time>2012-04-01T12:06:12Z</time>
      </trkpt>
      <trkpt lat="47.61315" lon="3.70021">
        <ele>143</ele>
        <time>2012-04-01T12:06:16Z</time>
      </trkpt>
      <trkpt lat="47.61305" lon="3.7002">
        <ele>140</ele>
        <time>2012-04-01T12:06:22Z</time>
      </trkpt>
      <trkpt lat="47.61295" lon="3.70017">
        <ele>140</ele>
        <time>2012-04-01T12:06:29Z</time>
      </trkpt>
      <trkpt lat="47.61289" lon="3.70015">
        <ele>144</ele>
        <time>2012-04-01T12:06:32Z</time>
      </trkpt>
      <trkpt lat="47.61284" lon="3.70015">
        <ele>144</ele>
        <time>2012-04-01T12:06:36Z</time>
      </trkpt>
      <trkpt lat="47.61279" lon="3.70013">
        <ele>142</ele>
        <time>2012-04-01T12:06:40Z</time>
      </trkpt>
      <trkpt lat="47.61274" lon="3.70015">
        <ele>143</ele>
        <time>2012-04-01T12:06:44Z</time>
      </trkpt>
      <trkpt lat="47.61269" lon="3.70014">
        <ele>142</ele>
        <time>2012-04-01T12:06:48Z</time>
      </trkpt>
      <trkpt lat="47.61266" lon="3.7001">
        <ele>144</ele>
        <time>2012-04-01T12:06:52Z</time>
      </trkpt>
      <trkpt lat="47.61257" lon="3.69999">
        <ele>147</ele>
        <time>2012-04-01T12:06:58Z</time>
      </trkpt>
      <trkpt lat="47.6125" lon="3.7">
        <ele>150</ele>
        <time>2012-04-01T12:07:01Z</time>
      </trkpt>
      <trkpt lat="47.61245" lon="3.70002">
        <ele>149</ele>
        <time>2012-04-01T12:07:04Z</time>
      </trkpt>
      <trkpt lat="47.6124" lon="3.7">
        <ele>149</ele>
        <time>2012-04-01T12:07:08Z</time>
      </trkpt>
      <trkpt lat="47.61236" lon="3.69998">
        <ele>148</ele>
        <time>2012-04-01T12:07:11Z</time>
      </trkpt>
      <trkpt lat="47.61226" lon="3.69999">
        <ele>150</ele>
        <time>2012-04-01T12:07:20Z</time>
      </trkpt>
      <trkpt lat="47.61222" lon="3.70003">
        <ele>149</ele>
        <time>2012-04-01T12:07:23Z</time>
      </trkpt>
      <trkpt lat="47.61219" lon="3.70009">
        <ele>153</ele>
        <time>2012-04-01T12:07:29Z</time>
      </trkpt>
      <trkpt lat="47.61216" lon="3.70015">
        <ele>152</ele>
        <time>2012-04-01T12:07:33Z</time>
      </trkpt>
      <trkpt lat="47.61217" lon="3.70023">
        <ele>154</ele>
        <time>2012-04-01T12:07:37Z</time>
      </trkpt>
      <trkpt lat="47.61219" lon="3.70037">
        <ele>150</ele>
        <time>2012-04-01T12:07:52Z</time>
      </trkpt>
      <trkpt lat="47.61216" lon="3.70042">
        <ele>151</ele>
        <time>2012-04-01T12:07:54Z</time>
      </trkpt>
      <trkpt lat="47.61212" lon="3.70049">
        <ele>153</ele>
        <time>2012-04-01T12:07:57Z</time>
      </trkpt>
      <trkpt lat="47.61207" lon="3.70054">
        <ele>153</ele>
        <time>2012-04-01T12:08:00Z</time>
      </trkpt>
      <trkpt lat="47.61196" lon="3.70079">
        <ele>160</ele>
        <time>2012-04-01T12:08:13Z</time>
      </trkpt>
      <trkpt lat="47.61193" lon="3.70086">
        <ele>158</ele>
        <time>2012-04-01T12:08:17Z</time>
      </trkpt>
      <trkpt lat="47.6119" lon="3.70094">
        <ele>158</ele>
        <time>2012-04-01T12:08:20Z</time>
      </trkpt>
      <trkpt lat="47.61187" lon="3.701">
        <ele>161</ele>
        <time>2012-04-01T12:08:23Z</time>
      </trkpt>
      <trkpt lat="47.61183" lon="3.70106">
        <ele>160</ele>
        <time>2012-04-01T12:08:27Z</time>
      </trkpt>
      <trkpt lat="47.6118" lon="3.70112">
        <ele>160</ele>
        <time>2012-04-01T12:08:31Z</time>
      </trkpt>
      <trkpt lat="47.61174" lon="3.70124">
        <ele>153</ele>
        <time>2012-04-01T12:08:39Z</time>
      </trkpt>
      <trkpt lat="47.61172" lon="3.7013">
        <ele>153</ele>
        <time>2012-04-01T12:08:43Z</time>
      </trkpt>
      <trkpt lat="47.61169" lon="3.70137">
        <ele>155</ele>
        <time>2012-04-01T12:08:47Z</time>
      </trkpt>
      <trkpt lat="47.61167" lon="3.70145">
        <ele>155</ele>
        <time>2012-04-01T12:08:51Z</time>
      </trkpt>
      <trkpt lat="47.61163" lon="3.70152">
        <ele>158</ele>
        <time>2012-04-01T12:08:55Z</time>
      </trkpt>
      <trkpt lat="47.61159" lon="3.70156">
        <ele>157</ele>
        <time>2012-04-01T12:08:58Z</time>
      </trkpt>
      <trkpt lat="47.61152" lon="3.70166">
        <ele>157</ele>
        <time>2012-04-01T12:09:05Z</time>
      </trkpt>
      <trkpt lat="47.61147" lon="3.7017">
        <ele>155</ele>
        <time>2012-04-01T12:09:10Z</time>
      </trkpt>
      <trkpt lat="47.61143" lon="3.70176">
        <ele>156</ele>
        <time>2012-04-01T12:09:13Z</time>
      </trkpt>
      <trkpt lat="47.61139" lon="3.70182">
        <ele>156</ele>
        <time>2012-04-01T12:09:16Z</time>
      </trkpt>
      <trkpt lat="47.61133" lon="3.70196">
        <ele>162</ele>
        <time>2012-04-01T12:09:25Z</time>
      </trkpt>
      <trkpt lat="47.61129" lon="3.70199">
        <ele>162</ele>
        <time>2012-04-01T12:09:28Z</time>
      </trkpt>
      <trkpt lat="47.6112" lon="3.70214">
        <ele>158</ele>
        <time>2012-04-01T12:09:42Z</time>
      </trkpt>
      <trkpt lat="47.61115" lon="3.7022">
        <ele>159</ele>
        <time>2012-04-01T12:09:45Z</time>
      </trkpt>
      <trkpt lat="47.61112" lon="3.70227">
        <ele>158</ele>
        <time>2012-04-01T12:09:49Z</time>
      </trkpt>
      <trkpt lat="47.61108" lon="3.70232">
        <ele>158</ele>
        <time>2012-04-01T12:09:52Z</time>
      </trkpt>
      <trkpt lat="47.61105" lon="3.70238">
        <ele>159</ele>
        <time>2012-04-01T12:09:56Z</time>
      </trkpt>
      <trkpt lat="47.61102" lon="3.70245">
        <ele>158</ele>
        <time>2012-04-01T12:10:00Z</time>
      </trkpt>
      <trkpt lat="47.61096" lon="3.70256">
        <ele>161</ele>
        <time>2012-04-01T12:10:07Z</time>
      </trkpt>
      <trkpt lat="47.61089" lon="3.70269">
        <ele>159</ele>
        <time>2012-04-01T12:10:16Z</time>
      </trkpt>
      <trkpt lat="47.61082" lon="3.7028">
        <ele>161</ele>
        <time>2012-04-01T12:10:25Z</time>
      </trkpt>
      <trkpt lat="47.6108" lon="3.70286">
        <ele>161</ele>
        <time>2012-04-01T12:10:29Z</time>
      </trkpt>
      <trkpt lat="47.61077" lon="3.70291">
        <ele>162</ele>
        <time>2012-04-01T12:10:32Z</time>
      </trkpt>
      <trkpt lat="47.61073" lon="3.70299">
        <ele>161</ele>
        <time>2012-04-01T12:10:35Z</time>
      </trkpt>
      <trkpt lat="47.61069" lon="3.70304">
        <ele>163</ele>
        <time>2012-04-01T12:10:38Z</time>
      </trkpt>
      <trkpt lat="47.61061" lon="3.70311">
        <ele>158</ele>
        <time>2012-04-01T12:10:46Z</time>
      </trkpt>
      <trkpt lat="47.61052" lon="3.70328">
        <ele>162</ele>
        <time>2012-04-01T12:10:57Z</time>
      </trkpt>
      <trkpt lat="47.61049" lon="3.70334">
        <ele>162</ele>
        <time>2012-04-01T12:11:01Z</time>
      </trkpt>
      <trkpt lat="47.61045" lon="3.70339">
        <ele>160</ele>
        <time>2012-04-01T12:11:06Z</time>
      </trkpt>
      <trkpt lat="47.61042" lon="3.70346">
        <ele>160</ele>
        <time>2012-04-01T12:11:12Z</time>
      </trkpt>
      <trkpt lat="47.61023" lon="3.70384">
        <ele>166</ele>
        <time>2012-04-01T12:11:27Z</time>
      </trkpt>
      <trkpt lat="47.6102" lon="3.70389">
        <ele>166</ele>
        <time>2012-04-01T12:11:31Z</time>
      </trkpt>
      <trkpt lat="47.61017" lon="3.70395">
        <ele>167</ele>
        <time>2012-04-01T12:11:35Z</time>
      </trkpt>
      <trkpt lat="47.61015" lon="3.70402">
        <ele>167</ele>
        <time>2012-04-01T12:11:40Z</time>
      </trkpt>
      <trkpt lat="47.61012" lon="3.70407">
        <ele>164</ele>
        <time>2012-04-01T12:11:45Z</time>
      </trkpt>
      <trkpt lat="47.61008" lon="3.70412">
        <ele>164</ele>
        <time>2012-04-01T12:11:49Z</time>
      </trkpt>
      <trkpt lat="47.61005" lon="3.70417">
        <ele>165</ele>
        <time>2012-04-01T12:11:53Z</time>
      </trkpt>
      <trkpt lat="47.61001" lon="3.70423">
        <ele>164</ele>
        <time>2012-04-01T12:11:57Z</time>
      </trkpt>
      <trkpt lat="47.60995" lon="3.70434">
        <ele>168</ele>
        <time>2012-04-01T12:12:03Z</time>
      </trkpt>
      <trkpt lat="47.60989" lon="3.70447">
        <ele>164</ele>
        <time>2012-04-01T12:12:15Z</time>
      </trkpt>
      <trkpt lat="47.60986" lon="3.70453">
        <ele>166</ele>
        <time>2012-04-01T12:12:19Z</time>
      </trkpt>
      <trkpt lat="47.60983" lon="3.70459">
        <ele>165</ele>
        <time>2012-04-01T12:12:23Z</time>
      </trkpt>
      <trkpt lat="47.60979" lon="3.70464">
        <ele>167</ele>
        <time>2012-04-01T12:12:26Z</time>
      </trkpt>
      <trkpt lat="47.60976" lon="3.70469">
        <ele>166</ele>
        <time>2012-04-01T12:12:30Z</time>
      </trkpt>
      <trkpt lat="47.6097" lon="3.70482">
        <ele>168</ele>
        <time>2012-04-01T12:12:38Z</time>
      </trkpt>
      <trkpt lat="47.60966" lon="3.70487">
        <ele>168</ele>
        <time>2012-04-01T12:12:41Z</time>
      </trkpt>
      <trkpt lat="47.60961" lon="3.70493">
        <ele>169</ele>
        <time>2012-04-01T12:12:45Z</time>
      </trkpt>
      <trkpt lat="47.60958" lon="3.70498">
        <ele>169</ele>
        <time>2012-04-01T12:12:49Z</time>
      </trkpt>
      <trkpt lat="47.60955" lon="3.70505">
        <ele>168</ele>
        <time>2012-04-01T12:12:56Z</time>
      </trkpt>
      <trkpt lat="47.60942" lon="3.70522">
        <ele>168</ele>
        <time>2012-04-01T12:13:06Z</time>
      </trkpt>
      <trkpt lat="47.6094" lon="3.70528">
        <ele>171</ele>
        <time>2012-04-01T12:13:14Z</time>
      </trkpt>
      <trkpt lat="47.60938" lon="3.70535">
        <ele>171</ele>
        <time>2012-04-01T12:13:17Z</time>
      </trkpt>
      <trkpt lat="47.60935" lon="3.70541">
        <ele>168</ele>
        <time>2012-04-01T12:13:21Z</time>
      </trkpt>
      <trkpt lat="47.60928" lon="3.70552">
        <ele>168</ele>
        <time>2012-04-01T12:13:29Z</time>
      </trkpt>
      <trkpt lat="47.60926" lon="3.7056">
        <ele>167</ele>
        <time>2012-04-01T12:13:32Z</time>
      </trkpt>
      <trkpt lat="47.60924" lon="3.70575">
        <ele>170</ele>
        <time>2012-04-01T12:13:43Z</time>
      </trkpt>
      <trkpt lat="47.60917" lon="3.70588">
        <ele>172</ele>
        <time>2012-04-01T12:13:48Z</time>
      </trkpt>
      <trkpt lat="47.60914" lon="3.70593">
        <ele>172</ele>
        <time>2012-04-01T12:13:50Z</time>
      </trkpt>
      <trkpt lat="47.60911" lon="3.70598">
        <ele>171</ele>
        <time>2012-04-01T12:13:52Z</time>
      </trkpt>
      <trkpt lat="47.60907" lon="3.70604">
        <ele>171</ele>
        <time>2012-04-01T12:13:56Z</time>
      </trkpt>
      <trkpt lat="47.60904" lon="3.7061">
        <ele>173</ele>
        <time>2012-04-01T12:13:59Z</time>
      </trkpt>
      <trkpt lat="47.609" lon="3.70617">
        <ele>172</ele>
        <time>2012-04-01T12:14:02Z</time>
      </trkpt>
      <trkpt lat="47.60895" lon="3.70621">
        <ele>172</ele>
        <time>2012-04-01T12:14:05Z</time>
      </trkpt>
      <trkpt lat="47.60892" lon="3.70626">
        <ele>173</ele>
        <time>2012-04-01T12:14:08Z</time>
      </trkpt>
      <trkpt lat="47.60888" lon="3.70632">
        <ele>172</ele>
        <time>2012-04-01T12:14:13Z</time>
      </trkpt>
      <trkpt lat="47.6088" lon="3.70644">
        <ele>175</ele>
        <time>2012-04-01T12:14:19Z</time>
      </trkpt>
      <trkpt lat="47.60877" lon="3.7065">
        <ele>175</ele>
        <time>2012-04-01T12:14:22Z</time>
      </trkpt>
      <trkpt lat="47.60869" lon="3.70662">
        <ele>173</ele>
        <time>2012-04-01T12:14:32Z</time>
      </trkpt>
      <trkpt lat="47.60864" lon="3.70667">
        <ele>173</ele>
        <time>2012-04-01T12:14:35Z</time>
      </trkpt>
      <trkpt lat="47.60862" lon="3.70674">
        <ele>175</ele>
        <time>2012-04-01T12:14:39Z</time>
      </trkpt>
      <trkpt lat="47.60861" lon="3.70681">
        <ele>175</ele>
        <time>2012-04-01T12:14:43Z</time>
      </trkpt>
      <trkpt lat="47.60862" lon="3.70684">
        <ele>174</ele>
        <time>2012-04-01T12:14:49Z</time>
      </trkpt>
      <trkpt lat="47.60858" lon="3.7069">
        <ele>173</ele>
        <time>2012-04-01T12:14:54Z</time>
      </trkpt>
      <trkpt lat="47.60856" lon="3.70696">
        <ele>175</ele>
        <time>2012-04-01T12:14:57Z</time>
      </trkpt>
      <trkpt lat="47.6084" lon="3.70726">
        <ele>175</ele>
        <time>2012-04-01T12:15:10Z</time>
      </trkpt>
      <trkpt lat="47.60837" lon="3.70733">
        <ele>174</ele>
        <time>2012-04-01T12:15:14Z</time>
      </trkpt>
      <trkpt lat="47.60833" lon="3.70739">
        <ele>175</ele>
        <time>2012-04-01T12:15:18Z</time>
      </trkpt>
      <trkpt lat="47.60821" lon="3.70754">
        <ele>175</ele>
        <time>2012-04-01T12:15:30Z</time>
      </trkpt>
      <trkpt lat="47.60814" lon="3.70768">
        <ele>178</ele>
        <time>2012-04-01T12:15:37Z</time>
      </trkpt>
      <trkpt lat="47.60812" lon="3.70774">
        <ele>178</ele>
        <time>2012-04-01T12:15:40Z</time>
      </trkpt>
      <trkpt lat="47.60808" lon="3.70778">
        <ele>179</ele>
        <time>2012-04-01T12:15:43Z</time>
      </trkpt>
      <trkpt lat="47.60804" lon="3.70782">
        <ele>176</ele>
        <time>2012-04-01T12:15:47Z</time>
      </trkpt>
      <trkpt lat="47.608" lon="3.70789">
        <ele>177</ele>
        <time>2012-04-01T12:15:52Z</time>
      </trkpt>
      <trkpt lat="47.60794" lon="3.70801">
        <ele>177</ele>
        <time>2012-04-01T12:15:59Z</time>
      </trkpt>
      <trkpt lat="47.60793" lon="3.70805">
        <ele>175</ele>
        <time>2012-04-01T12:16:12Z</time>
      </trkpt>
      <trkpt lat="47.6079" lon="3.7081">
        <ele>176</ele>
        <time>2012-04-01T12:16:17Z</time>
      </trkpt>
      <trkpt lat="47.60786" lon="3.70816">
        <ele>176</ele>
        <time>2012-04-01T12:16:20Z</time>
      </trkpt>
      <trkpt lat="47.60776" lon="3.70828">
        <ele>174</ele>
        <time>2012-04-01T12:16:25Z</time>
      </trkpt>
      <trkpt lat="47.60769" lon="3.70841">
        <ele>174</ele>
        <time>2012-04-01T12:16:32Z</time>
      </trkpt>
      <trkpt lat="47.60767" lon="3.70847">
        <ele>175</ele>
        <time>2012-04-01T12:16:35Z</time>
      </trkpt>
      <trkpt lat="47.60761" lon="3.70859">
        <ele>170</ele>
        <time>2012-04-01T12:16:41Z</time>
      </trkpt>
      <trkpt lat="47.60754" lon="3.70871">
        <ele>172</ele>
        <time>2012-04-01T12:16:48Z</time>
      </trkpt>
      <trkpt lat="47.60751" lon="3.70876">
        <ele>172</ele>
        <time>2012-04-01T12:16:52Z</time>
      </trkpt>
      <trkpt lat="47.60748" lon="3.70882">
        <ele>171</ele>
        <time>2012-04-01T12:16:56Z</time>
      </trkpt>
      <trkpt lat="47.60741" lon="3.70894">
        <ele>173</ele>
        <time>2012-04-01T12:17:03Z</time>
      </trkpt>
      <trkpt lat="47.60737" lon="3.70898">
        <ele>173</ele>
        <time>2012-04-01T12:17:07Z</time>
      </trkpt>
      <trkpt lat="47.60726" lon="3.70913">
        <ele>170</ele>
        <time>2012-04-01T12:17:18Z</time>
      </trkpt>
      <trkpt lat="47.60723" lon="3.70917">
        <ele>171</ele>
        <time>2012-04-01T12:17:22Z</time>
      </trkpt>
      <trkpt lat="47.60721" lon="3.70925">
        <ele>170</ele>
        <time>2012-04-01T12:17:28Z</time>
      </trkpt>
      <trkpt lat="47.60718" lon="3.70939">
        <ele>170</ele>
        <time>2012-04-01T12:17:37Z</time>
      </trkpt>
      <trkpt lat="47.6071" lon="3.70949">
        <ele>168</ele>
        <time>2012-04-01T12:17:44Z</time>
      </trkpt>
      <trkpt lat="47.60703" lon="3.70959">
        <ele>171</ele>
        <time>2012-04-01T12:17:52Z</time>
      </trkpt>
      <trkpt lat="47.60702" lon="3.70966">
        <ele>169</ele>
        <time>2012-04-01T12:17:55Z</time>
      </trkpt>
      <trkpt lat="47.60701" lon="3.70973">
        <ele>170</ele>
        <time>2012-04-01T12:17:58Z</time>
      </trkpt>
      <trkpt lat="47.60699" lon="3.70979">
        <ele>168</ele>
        <time>2012-04-01T12:18:01Z</time>
      </trkpt>
      <trkpt lat="47.60696" lon="3.70985">
        <ele>168</ele>
        <time>2012-04-01T12:18:04Z</time>
      </trkpt>
      <trkpt lat="47.60693" lon="3.70992">
        <ele>169</ele>
        <time>2012-04-01T12:18:06Z</time>
      </trkpt>
      <trkpt lat="47.60691" lon="3.71">
        <ele>168</ele>
        <time>2012-04-01T12:18:09Z</time>
      </trkpt>
      <trkpt lat="47.60687" lon="3.71005">
        <ele>169</ele>
        <time>2012-04-01T12:18:13Z</time>
      </trkpt>
      <trkpt lat="47.60682" lon="3.71007">
        <ele>171</ele>
        <time>2012-04-01T12:18:17Z</time>
      </trkpt>
      <trkpt lat="47.60678" lon="3.71012">
        <ele>169</ele>
        <time>2012-04-01T12:18:23Z</time>
      </trkpt>
      <trkpt lat="47.60677" lon="3.7102">
        <ele>164</ele>
        <time>2012-04-01T12:18:33Z</time>
      </trkpt>
      <trkpt lat="47.60677" lon="3.71026">
        <ele>165</ele>
        <time>2012-04-01T12:18:36Z</time>
      </trkpt>
      <trkpt lat="47.60674" lon="3.71032">
        <ele>166</ele>
        <time>2012-04-01T12:18:40Z</time>
      </trkpt>
      <trkpt lat="47.60669" lon="3.71034">
        <ele>166</ele>
        <time>2012-04-01T12:18:44Z</time>
      </trkpt>
      <trkpt lat="47.60672" lon="3.71034">
        <ele>166</ele>
        <time>2012-04-01T12:18:57Z</time>
      </trkpt>
      <trkpt lat="47.60675" lon="3.71037">
        <ele>166</ele>
        <time>2012-04-01T12:19:10Z</time>
      </trkpt>
      <trkpt lat="47.6068" lon="3.71035">
        <ele>167</ele>
        <time>2012-04-01T12:19:14Z</time>
      </trkpt>
      <trkpt lat="47.60677" lon="3.7103">
        <ele>164</ele>
        <time>2012-04-01T12:19:47Z</time>
      </trkpt>
      <trkpt lat="47.6067" lon="3.71037">
        <ele>165</ele>
        <time>2012-04-01T12:20:01Z</time>
      </trkpt>
      <trkpt lat="47.60669" lon="3.71039">
        <ele>164</ele>
        <time>2012-04-01T12:20:30Z</time>
      </trkpt>
      <trkpt lat="47.60662" lon="3.71038">
        <ele>164</ele>
        <time>2012-04-01T12:20:56Z</time>
      </trkpt>
      <trkpt lat="47.60664" lon="3.71042">
        <ele>164</ele>
        <time>2012-04-01T12:21:49Z</time>
      </trkpt>
      <trkpt lat="47.60669" lon="3.71041">
        <ele>164</ele>
        <time>2012-04-01T12:21:56Z</time>
      </trkpt>
      <trkpt lat="47.60658" lon="3.71045">
        <ele>165</ele>
        <time>2012-04-01T12:22:04Z</time>
      </trkpt>
      <trkpt lat="47.60663" lon="3.71054">
        <ele>165</ele>
        <time>2012-04-01T12:22:21Z</time>
      </trkpt>
      <trkpt lat="47.60666" lon="3.71059">
        <ele>163</ele>
        <time>2012-04-01T12:22:36Z</time>
      </trkpt>
      <trkpt lat="47.60669" lon="3.71068">
        <ele>164</ele>
        <time>2012-04-01T12:22:42Z</time>
      </trkpt>
      <trkpt lat="47.60673" lon="3.71079">
        <ele>163</ele>
        <time>2012-04-01T12:22:49Z</time>
      </trkpt>
      <trkpt lat="47.60676" lon="3.71086">
        <ele>166</ele>
        <time>2012-04-01T12:22:55Z</time>
      </trkpt>
      <trkpt lat="47.60677" lon="3.71095">
        <ele>166</ele>
        <time>2012-04-01T12:22:58Z</time>
      </trkpt>
      <trkpt lat="47.6068" lon="3.71102">
        <ele>165</ele>
        <time>2012-04-01T12:23:01Z</time>
      </trkpt>
      <trkpt lat="47.60684" lon="3.71107">
        <ele>165</ele>
        <time>2012-04-01T12:23:05Z</time>
      </trkpt>
      <trkpt lat="47.60692" lon="3.7112">
        <ele>167</ele>
        <time>2012-04-01T12:23:13Z</time>
      </trkpt>
      <trkpt lat="47.60695" lon="3.71127">
        <ele>167</ele>
        <time>2012-04-01T12:23:18Z</time>
      </trkpt>
      <trkpt lat="47.60695" lon="3.71134">
        <ele>167</ele>
        <time>2012-04-01T12:23:23Z</time>
      </trkpt>
      <trkpt lat="47.60695" lon="3.71141">
        <ele>167</ele>
        <time>2012-04-01T12:23:32Z</time>
      </trkpt>
      <trkpt lat="47.60699" lon="3.71144">
        <ele>164</ele>
        <time>2012-04-01T12:23:36Z</time>
      </trkpt>
      <trkpt lat="47.60704" lon="3.71149">
        <ele>159</ele>
        <time>2012-04-01T12:23:40Z</time>
      </trkpt>
      <trkpt lat="47.60708" lon="3.71151">
        <ele>159</ele>
        <time>2012-04-01T12:23:43Z</time>
      </trkpt>
      <trkpt lat="47.60711" lon="3.71158">
        <ele>159</ele>
        <time>2012-04-01T12:23:48Z</time>
      </trkpt>
      <trkpt lat="47.60715" lon="3.71171">
        <ele>159</ele>
        <time>2012-04-01T12:23:56Z</time>
      </trkpt>
      <trkpt lat="47.60716" lon="3.71178">
        <ele>161</ele>
        <time>2012-04-01T12:24:01Z</time>
      </trkpt>
      <trkpt lat="47.60719" lon="3.71184">
        <ele>161</ele>
        <time>2012-04-01T12:24:06Z</time>
      </trkpt>
      <trkpt lat="47.60722" lon="3.7119">
        <ele>158</ele>
        <time>2012-04-01T12:24:11Z</time>
      </trkpt>
      <trkpt lat="47.6072" lon="3.71203">
        <ele>157</ele>
        <time>2012-04-01T12:24:18Z</time>
      </trkpt>
      <trkpt lat="47.60722" lon="3.7121">
        <ele>157</ele>
        <time>2012-04-01T12:24:23Z</time>
      </trkpt>
      <trkpt lat="47.60728" lon="3.71222">
        <ele>159</ele>
        <time>2012-04-01T12:24:30Z</time>
      </trkpt>
      <trkpt lat="47.60731" lon="3.71227">
        <ele>158</ele>
        <time>2012-04-01T12:24:33Z</time>
      </trkpt>
      <trkpt lat="47.60735" lon="3.71233">
        <ele>160</ele>
        <time>2012-04-01T12:24:36Z</time>
      </trkpt>
      <trkpt lat="47.60738" lon="3.7124">
        <ele>160</ele>
        <time>2012-04-01T12:24:39Z</time>
      </trkpt>
      <trkpt lat="47.60745" lon="3.71252">
        <ele>163</ele>
        <time>2012-04-01T12:24:47Z</time>
      </trkpt>
      <trkpt lat="47.60749" lon="3.71258">
        <ele>160</ele>
        <time>2012-04-01T12:24:51Z</time>
      </trkpt>
      <trkpt lat="47.60751" lon="3.71266">
        <ele>160</ele>
        <time>2012-04-01T12:24:55Z</time>
      </trkpt>
      <trkpt lat="47.60752" lon="3.71274">
        <ele>164</ele>
        <time>2012-04-01T12:24:59Z</time>
      </trkpt>
      <trkpt lat="47.60755" lon="3.71302">
        <ele>159</ele>
        <time>2012-04-01T12:25:15Z</time>
      </trkpt>
      <trkpt lat="47.60755" lon="3.71318">
        <ele>162</ele>
        <time>2012-04-01T12:25:22Z</time>
      </trkpt>
      <trkpt lat="47.60756" lon="3.7134">
        <ele>162</ele>
        <time>2012-04-01T12:25:32Z</time>
      </trkpt>
      <trkpt lat="47.60756" lon="3.71347">
        <ele>163</ele>
        <time>2012-04-01T12:25:36Z</time>
      </trkpt>
      <trkpt lat="47.60757" lon="3.71361">
        <ele>163</ele>
        <time>2012-04-01T12:25:45Z</time>
      </trkpt>
      <trkpt lat="47.60759" lon="3.71377">
        <ele>161</ele>
        <time>2012-04-01T12:25:52Z</time>
      </trkpt>
      <trkpt lat="47.6076" lon="3.71385">
        <ele>161</ele>
        <time>2012-04-01T12:25:55Z</time>
      </trkpt>
      <trkpt lat="47.60762" lon="3.71392">
        <ele>167</ele>
        <time>2012-04-01T12:26:00Z</time>
      </trkpt>
      <trkpt lat="47.60765" lon="3.71415">
        <ele>161</ele>
        <time>2012-04-01T12:26:14Z</time>
      </trkpt>
      <trkpt lat="47.60765" lon="3.71423">
        <ele>161</ele>
        <time>2012-04-01T12:26:20Z</time>
      </trkpt>
      <trkpt lat="47.60767" lon="3.71429">
        <ele>163</ele>
        <time>2012-04-01T12:26:23Z</time>
      </trkpt>
      <trkpt lat="47.6077" lon="3.71435">
        <ele>161</ele>
        <time>2012-04-01T12:26:26Z</time>
      </trkpt>
      <trkpt lat="47.60774" lon="3.7144">
        <ele>161</ele>
        <time>2012-04-01T12:26:31Z</time>
      </trkpt>
      <trkpt lat="47.60773" lon="3.71448">
        <ele>162</ele>
        <time>2012-04-01T12:26:34Z</time>
      </trkpt>
      <trkpt lat="47.60773" lon="3.71456">
        <ele>160</ele>
        <time>2012-04-01T12:26:39Z</time>
      </trkpt>
      <trkpt lat="47.60775" lon="3.71463">
        <ele>163</ele>
        <time>2012-04-01T12:26:43Z</time>
      </trkpt>
      <trkpt lat="47.60777" lon="3.7147">
        <ele>161</ele>
        <time>2012-04-01T12:26:46Z</time>
      </trkpt>
      <trkpt lat="47.60775" lon="3.71476">
        <ele>159</ele>
        <time>2012-04-01T12:26:53Z</time>
      </trkpt>
      <trkpt lat="47.60776" lon="3.71484">
        <ele>160</ele>
        <time>2012-04-01T12:26:57Z</time>
      </trkpt>
      <trkpt lat="47.60777" lon="3.7149">
        <ele>159</ele>
        <time>2012-04-01T12:27:01Z</time>
      </trkpt>
      <trkpt lat="47.60779" lon="3.71497">
        <ele>161</ele>
        <time>2012-04-01T12:27:04Z</time>
      </trkpt>
      <trkpt lat="47.60781" lon="3.71503">
        <ele>161</ele>
        <time>2012-04-01T12:27:07Z</time>
      </trkpt>
      <trkpt lat="47.60782" lon="3.7151">
        <ele>162</ele>
        <time>2012-04-01T12:27:10Z</time>
      </trkpt>
      <trkpt lat="47.60784" lon="3.71516">
        <ele>161</ele>
        <time>2012-04-01T12:27:14Z</time>
      </trkpt>
      <trkpt lat="47.60786" lon="3.71524">
        <ele>163</ele>
        <time>2012-04-01T12:27:18Z</time>
      </trkpt>
      <trkpt lat="47.6079" lon="3.71538">
        <ele>163</ele>
        <time>2012-04-01T12:27:25Z</time>
      </trkpt>
      <trkpt lat="47.60793" lon="3.71552">
        <ele>168</ele>
        <time>2012-04-01T12:27:33Z</time>
      </trkpt>
      <trkpt lat="47.60793" lon="3.71559">
        <ele>167</ele>
        <time>2012-04-01T12:27:38Z</time>
      </trkpt>
      <trkpt lat="47.60796" lon="3.71567">
        <ele>170</ele>
        <time>2012-04-01T12:27:43Z</time>
      </trkpt>
      <trkpt lat="47.60798" lon="3.71574">
        <ele>168</ele>
        <time>2012-04-01T12:27:46Z</time>
      </trkpt>
      <trkpt lat="47.60799" lon="3.71582">
        <ele>168</ele>
        <time>2012-04-01T12:27:50Z</time>
      </trkpt>
      <trkpt lat="47.60801" lon="3.7159">
        <ele>167</ele>
        <time>2012-04-01T12:27:54Z</time>
      </trkpt>
      <trkpt lat="47.60802" lon="3.71597">
        <ele>167</ele>
        <time>2012-04-01T12:27:58Z</time>
      </trkpt>
      <trkpt lat="47.60801" lon="3.7161">
        <ele>160</ele>
        <time>2012-04-01T12:28:08Z</time>
      </trkpt>
      <trkpt lat="47.60802" lon="3.7162">
        <ele>162</ele>
        <time>2012-04-01T12:28:12Z</time>
      </trkpt>
      <trkpt lat="47.60804" lon="3.71644">
        <ele>162</ele>
        <time>2012-04-01T12:28:23Z</time>
      </trkpt>
      <trkpt lat="47.60805" lon="3.71651">
        <ele>163</ele>
        <time>2012-04-01T12:28:27Z</time>
      </trkpt>
      <trkpt lat="47.60808" lon="3.71657">
        <ele>161</ele>
        <time>2012-04-01T12:28:30Z</time>
      </trkpt>
      <trkpt lat="47.6081" lon="3.71671">
        <ele>161</ele>
        <time>2012-04-01T12:28:38Z</time>
      </trkpt>
      <trkpt lat="47.60813" lon="3.71677">
        <ele>167</ele>
        <time>2012-04-01T12:28:41Z</time>
      </trkpt>
      <trkpt lat="47.60816" lon="3.71682">
        <ele>166</ele>
        <time>2012-04-01T12:28:44Z</time>
      </trkpt>
      <trkpt lat="47.60818" lon="3.71689">
        <ele>166</ele>
        <time>2012-04-01T12:28:47Z</time>
      </trkpt>
      <trkpt lat="47.6082" lon="3.71697">
        <ele>165</ele>
        <time>2012-04-01T12:28:50Z</time>
      </trkpt>
      <trkpt lat="47.60819" lon="3.71704">
        <ele>166</ele>
        <time>2012-04-01T12:28:56Z</time>
      </trkpt>
      <trkpt lat="47.6082" lon="3.71711">
        <ele>166</ele>
        <time>2012-04-01T12:29:02Z</time>
      </trkpt>
      <trkpt lat="47.60823" lon="3.71717">
        <ele>165</ele>
        <time>2012-04-01T12:29:05Z</time>
      </trkpt>
      <trkpt lat="47.60831" lon="3.71744">
        <ele>172</ele>
        <time>2012-04-01T12:29:19Z</time>
      </trkpt>
      <trkpt lat="47.60832" lon="3.71759">
        <ele>172</ele>
        <time>2012-04-01T12:29:26Z</time>
      </trkpt>
      <trkpt lat="47.60833" lon="3.71772">
        <ele>168</ele>
        <time>2012-04-01T12:29:33Z</time>
      </trkpt>
      <trkpt lat="47.60833" lon="3.7178">
        <ele>169</ele>
        <time>2012-04-01T12:29:39Z</time>
      </trkpt>
      <trkpt lat="47.60833" lon="3.71787">
        <ele>168</ele>
        <time>2012-04-01T12:29:43Z</time>
      </trkpt>
      <trkpt lat="47.60833" lon="3.71794">
        <ele>169</ele>
        <time>2012-04-01T12:29:46Z</time>
      </trkpt>
      <trkpt lat="47.60832" lon="3.71801">
        <ele>168</ele>
        <time>2012-04-01T12:29:49Z</time>
      </trkpt>
      <trkpt lat="47.60834" lon="3.71808">
        <ele>171</ele>
        <time>2012-04-01T12:29:56Z</time>
      </trkpt>
      <trkpt lat="47.60842" lon="3.71833">
        <ele>167</ele>
        <time>2012-04-01T12:30:10Z</time>
      </trkpt>
      <trkpt lat="47.60852" lon="3.71858">
        <ele>167</ele>
        <time>2012-04-01T12:30:20Z</time>
      </trkpt>
      <trkpt lat="47.60854" lon="3.71864">
        <ele>165</ele>
        <time>2012-04-01T12:30:25Z</time>
      </trkpt>
      <trkpt lat="47.60854" lon="3.71871">
        <ele>165</ele>
        <time>2012-04-01T12:30:28Z</time>
      </trkpt>
      <trkpt lat="47.60853" lon="3.7188">
        <ele>164</ele>
        <time>2012-04-01T12:30:31Z</time>
      </trkpt>
      <trkpt lat="47.60856" lon="3.71888">
        <ele>163</ele>
        <time>2012-04-01T12:30:37Z</time>
      </trkpt>
      <trkpt lat="47.6086" lon="3.719">
        <ele>164</ele>
        <time>2012-04-01T12:30:45Z</time>
      </trkpt>
      <trkpt lat="47.60866" lon="3.71911">
        <ele>167</ele>
        <time>2012-04-01T12:30:52Z</time>
      </trkpt>
      <trkpt lat="47.60874" lon="3.71924">
        <ele>167</ele>
        <time>2012-04-01T12:30:59Z</time>
      </trkpt>
      <trkpt lat="47.6088" lon="3.71928">
        <ele>171</ele>
        <time>2012-04-01T12:31:02Z</time>
      </trkpt>
      <trkpt lat="47.60882" lon="3.71935">
        <ele>167</ele>
        <time>2012-04-01T12:31:06Z</time>
      </trkpt>
      <trkpt lat="47.60883" lon="3.71942">
        <ele>169</ele>
        <time>2012-04-01T12:31:10Z</time>
      </trkpt>
      <trkpt lat="47.60883" lon="3.7195">
        <ele>166</ele>
        <time>2012-04-01T12:31:14Z</time>
      </trkpt>
      <trkpt lat="47.60883" lon="3.71958">
        <ele>166</ele>
        <time>2012-04-01T12:31:19Z</time>
      </trkpt>
      <trkpt lat="47.60884" lon="3.71966">
        <ele>168</ele>
        <time>2012-04-01T12:31:23Z</time>
      </trkpt>
      <trkpt lat="47.60885" lon="3.71973">
        <ele>168</ele>
        <time>2012-04-01T12:31:26Z</time>
      </trkpt>
      <trkpt lat="47.60886" lon="3.71981">
        <ele>167</ele>
        <time>2012-04-01T12:31:30Z</time>
      </trkpt>
      <trkpt lat="47.60887" lon="3.71988">
        <ele>169</ele>
        <time>2012-04-01T12:31:35Z</time>
      </trkpt>
      <trkpt lat="47.60884" lon="3.71996">
        <ele>169</ele>
        <time>2012-04-01T12:31:41Z</time>
      </trkpt>
      <trkpt lat="47.60883" lon="3.72003">
        <ele>170</ele>
        <time>2012-04-01T12:31:44Z</time>
      </trkpt>
      <trkpt lat="47.60884" lon="3.7201">
        <ele>170</ele>
        <time>2012-04-01T12:31:47Z</time>
      </trkpt>
      <trkpt lat="47.60886" lon="3.72017">
        <ele>169</ele>
        <time>2012-04-01T12:31:51Z</time>
      </trkpt>
      <trkpt lat="47.60888" lon="3.72023">
        <ele>169</ele>
        <time>2012-04-01T12:31:54Z</time>
      </trkpt>
      <trkpt lat="47.60889" lon="3.72031">
        <ele>170</ele>
        <time>2012-04-01T12:31:57Z</time>
      </trkpt>
      <trkpt lat="47.6089" lon="3.72038">
        <ele>167</ele>
        <time>2012-04-01T12:32:00Z</time>
      </trkpt>
      <trkpt lat="47.60892" lon="3.72046">
        <ele>168</ele>
        <time>2012-04-01T12:32:04Z</time>
      </trkpt>
      <trkpt lat="47.60897" lon="3.72051">
        <ele>169</ele>
        <time>2012-04-01T12:32:07Z</time>
      </trkpt>
      <trkpt lat="47.60902" lon="3.72053">
        <ele>169</ele>
        <time>2012-04-01T12:32:09Z</time>
      </trkpt>
      <trkpt lat="47.60905" lon="3.72058">
        <ele>170</ele>
        <time>2012-04-01T12:32:12Z</time>
      </trkpt>
      <trkpt lat="47.60905" lon="3.72065">
        <ele>171</ele>
        <time>2012-04-01T12:32:17Z</time>
      </trkpt>
      <trkpt lat="47.60904" lon="3.72072">
        <ele>171</ele>
        <time>2012-04-01T12:32:20Z</time>
      </trkpt>
      <trkpt lat="47.60907" lon="3.72088">
        <ele>168</ele>
        <time>2012-04-01T12:32:28Z</time>
      </trkpt>
      <trkpt lat="47.60911" lon="3.72109">
        <ele>172</ele>
        <time>2012-04-01T12:32:44Z</time>
      </trkpt>
      <trkpt lat="47.60914" lon="3.72118">
        <ele>172</ele>
        <time>2012-04-01T12:32:48Z</time>
      </trkpt>
      <trkpt lat="47.60918" lon="3.72133">
        <ele>174</ele>
        <time>2012-04-01T12:32:54Z</time>
      </trkpt>
      <trkpt lat="47.6092" lon="3.72139">
        <ele>172</ele>
        <time>2012-04-01T12:32:57Z</time>
      </trkpt>
      <trkpt lat="47.60923" lon="3.72146">
        <ele>172</ele>
        <time>2012-04-01T12:33:01Z</time>
      </trkpt>
      <trkpt lat="47.6092" lon="3.72152">
        <ele>172</ele>
        <time>2012-04-01T12:33:07Z</time>
      </trkpt>
      <trkpt lat="47.60921" lon="3.7216">
        <ele>172</ele>
        <time>2012-04-01T12:33:12Z</time>
      </trkpt>
      <trkpt lat="47.60924" lon="3.72166">
        <ele>171</ele>
        <time>2012-04-01T12:33:16Z</time>
      </trkpt>
      <trkpt lat="47.60926" lon="3.72173">
        <ele>171</ele>
        <time>2012-04-01T12:33:20Z</time>
      </trkpt>
      <trkpt lat="47.60926" lon="3.7218">
        <ele>170</ele>
        <time>2012-04-01T12:33:23Z</time>
      </trkpt>
      <trkpt lat="47.60926" lon="3.72188">
        <ele>171</ele>
        <time>2012-04-01T12:33:27Z</time>
      </trkpt>
      <trkpt lat="47.60929" lon="3.72203">
        <ele>169</ele>
        <time>2012-04-01T12:33:34Z</time>
      </trkpt>
      <trkpt lat="47.60929" lon="3.7221">
        <ele>169</ele>
        <time>2012-04-01T12:33:38Z</time>
      </trkpt>
      <trkpt lat="47.60932" lon="3.72217">
        <ele>167</ele>
        <time>2012-04-01T12:33:42Z</time>
      </trkpt>
      <trkpt lat="47.6094" lon="3.72226">
        <ele>170</ele>
        <time>2012-04-01T12:33:48Z</time>
      </trkpt>
      <trkpt lat="47.60951" lon="3.72251">
        <ele>168</ele>
        <time>2012-04-01T12:33:59Z</time>
      </trkpt>
      <trkpt lat="47.60952" lon="3.72258">
        <ele>170</ele>
        <time>2012-04-01T12:34:04Z</time>
      </trkpt>
      <trkpt lat="47.60955" lon="3.72265">
        <ele>170</ele>
        <time>2012-04-01T12:34:10Z</time>
      </trkpt>
      <trkpt lat="47.60954" lon="3.72272">
        <ele>170</ele>
        <time>2012-04-01T12:34:14Z</time>
      </trkpt>
      <trkpt lat="47.60956" lon="3.72279">
        <ele>169</ele>
        <time>2012-04-01T12:34:18Z</time>
      </trkpt>
      <trkpt lat="47.60958" lon="3.72289">
        <ele>170</ele>
        <time>2012-04-01T12:34:23Z</time>
      </trkpt>
      <trkpt lat="47.6096" lon="3.72296">
        <ele>167</ele>
        <time>2012-04-01T12:34:27Z</time>
      </trkpt>
      <trkpt lat="47.6096" lon="3.72303">
        <ele>171</ele>
        <time>2012-04-01T12:34:34Z</time>
      </trkpt>
      <trkpt lat="47.60963" lon="3.72311">
        <ele>174</ele>
        <time>2012-04-01T12:35:56Z</time>
      </trkpt>
      <trkpt lat="47.6096" lon="3.72315">
        <ele>177</ele>
        <time>2012-04-01T12:36:49Z</time>
      </trkpt>
      <trkpt lat="47.60965" lon="3.72318">
        <ele>173</ele>
        <time>2012-04-01T12:36:55Z</time>
      </trkpt>
      <trkpt lat="47.60966" lon="3.72324">
        <ele>173</ele>
        <time>2012-04-01T12:36:59Z</time>
      </trkpt>
      <trkpt lat="47.60963" lon="3.72331">
        <ele>176</ele>
        <time>2012-04-01T12:37:02Z</time>
      </trkpt>
      <trkpt lat="47.60961" lon="3.72336">
        <ele>176</ele>
        <time>2012-04-01T12:37:05Z</time>
      </trkpt>
      <trkpt lat="47.60959" lon="3.72343">
        <ele>175</ele>
        <time>2012-04-01T12:37:08Z</time>
      </trkpt>
      <trkpt lat="47.60963" lon="3.7235">
        <ele>175</ele>
        <time>2012-04-01T12:37:11Z</time>
      </trkpt>
      <trkpt lat="47.60968" lon="3.72352">
        <ele>174</ele>
        <time>2012-04-01T12:37:13Z</time>
      </trkpt>
      <trkpt lat="47.60973" lon="3.72356">
        <ele>174</ele>
        <time>2012-04-01T12:37:17Z</time>
      </trkpt>
      <trkpt lat="47.60981" lon="3.72366">
        <ele>171</ele>
        <time>2012-04-01T12:37:23Z</time>
      </trkpt>
      <trkpt lat="47.60983" lon="3.72373">
        <ele>171</ele>
        <time>2012-04-01T12:37:26Z</time>
      </trkpt>
      <trkpt lat="47.60988" lon="3.72394">
        <ele>176</ele>
        <time>2012-04-01T12:37:35Z</time>
      </trkpt>
      <trkpt lat="47.60989" lon="3.724">
        <ele>176</ele>
        <time>2012-04-01T12:37:39Z</time>
      </trkpt>
      <trkpt lat="47.60988" lon="3.72407">
        <ele>173</ele>
        <time>2012-04-01T12:37:46Z</time>
      </trkpt>
      <trkpt lat="47.60991" lon="3.72412">
        <ele>173</ele>
        <time>2012-04-01T12:37:51Z</time>
      </trkpt>
      <trkpt lat="47.61001" lon="3.72423">
        <ele>169</ele>
        <time>2012-04-01T12:38:00Z</time>
      </trkpt>
      <trkpt lat="47.61003" lon="3.72431">
        <ele>169</ele>
        <time>2012-04-01T12:38:05Z</time>
      </trkpt>
      <trkpt lat="47.61006" lon="3.72438">
        <ele>170</ele>
        <time>2012-04-01T12:38:09Z</time>
      </trkpt>
      <trkpt lat="47.6101" lon="3.72442">
        <ele>169</ele>
        <time>2012-04-01T12:38:11Z</time>
      </trkpt>
      <trkpt lat="47.6102" lon="3.72452">
        <ele>172</ele>
        <time>2012-04-01T12:38:17Z</time>
      </trkpt>
      <trkpt lat="47.61028" lon="3.72471">
        <ele>175</ele>
        <time>2012-04-01T12:38:31Z</time>
      </trkpt>
      <trkpt lat="47.61033" lon="3.72474">
        <ele>175</ele>
        <time>2012-04-01T12:38:36Z</time>
      </trkpt>
      <trkpt lat="47.61037" lon="3.72479">
        <ele>174</ele>
        <time>2012-04-01T12:38:41Z</time>
      </trkpt>
      <trkpt lat="47.61041" lon="3.72484">
        <ele>174</ele>
        <time>2012-04-01T12:38:44Z</time>
      </trkpt>
      <trkpt lat="47.61042" lon="3.72493">
        <ele>175</ele>
        <time>2012-04-01T12:38:50Z</time>
      </trkpt>
      <trkpt lat="47.61046" lon="3.72499">
        <ele>174</ele>
        <time>2012-04-01T12:38:54Z</time>
      </trkpt>
      <trkpt lat="47.6105" lon="3.72513">
        <ele>179</ele>
        <time>2012-04-01T12:39:01Z</time>
      </trkpt>
      <trkpt lat="47.61053" lon="3.7252">
        <ele>176</ele>
        <time>2012-04-01T12:39:05Z</time>
      </trkpt>
      <trkpt lat="47.61058" lon="3.72524">
        <ele>178</ele>
        <time>2012-04-01T12:39:08Z</time>
      </trkpt>
      <trkpt lat="47.6106" lon="3.72529">
        <ele>179</ele>
        <time>2012-04-01T12:39:15Z</time>
      </trkpt>
      <trkpt lat="47.61064" lon="3.72536">
        <ele>178</ele>
        <time>2012-04-01T12:39:20Z</time>
      </trkpt>
      <trkpt lat="47.61068" lon="3.72538">
        <ele>178</ele>
        <time>2012-04-01T12:39:24Z</time>
      </trkpt>
      <trkpt lat="47.61072" lon="3.72544">
        <ele>179</ele>
        <time>2012-04-01T12:39:28Z</time>
      </trkpt>
      <trkpt lat="47.61075" lon="3.72548">
        <ele>177</ele>
        <time>2012-04-01T12:39:31Z</time>
      </trkpt>
      <trkpt lat="47.61078" lon="3.72552">
        <ele>179</ele>
        <time>2012-04-01T12:39:35Z</time>
      </trkpt>
      <trkpt lat="47.61083" lon="3.72556">
        <ele>178</ele>
        <time>2012-04-01T12:39:38Z</time>
      </trkpt>
      <trkpt lat="47.61086" lon="3.72561">
        <ele>180</ele>
        <time>2012-04-01T12:39:42Z</time>
      </trkpt>
      <trkpt lat="47.61089" lon="3.72568">
        <ele>178</ele>
        <time>2012-04-01T12:39:47Z</time>
      </trkpt>
      <trkpt lat="47.61093" lon="3.72572">
        <ele>180</ele>
        <time>2012-04-01T12:39:50Z</time>
      </trkpt>
      <trkpt lat="47.61097" lon="3.72577">
        <ele>176</ele>
        <time>2012-04-01T12:39:55Z</time>
      </trkpt>
      <trkpt lat="47.61097" lon="3.72584">
        <ele>177</ele>
        <time>2012-04-01T12:39:58Z</time>
      </trkpt>
      <trkpt lat="47.611" lon="3.72589">
        <ele>178</ele>
        <time>2012-04-01T12:40:02Z</time>
      </trkpt>
      <trkpt lat="47.61105" lon="3.7259">
        <ele>179</ele>
        <time>2012-04-01T12:40:07Z</time>
      </trkpt>
      <trkpt lat="47.6111" lon="3.72592">
        <ele>179</ele>
        <time>2012-04-01T12:40:10Z</time>
      </trkpt>
      <trkpt lat="47.61115" lon="3.72594">
        <ele>178</ele>
        <time>2012-04-01T12:40:13Z</time>
      </trkpt>
      <trkpt lat="47.61121" lon="3.72597">
        <ele>178</ele>
        <time>2012-04-01T12:40:17Z</time>
      </trkpt>
      <trkpt lat="47.61126" lon="3.726">
        <ele>176</ele>
        <time>2012-04-01T12:40:21Z</time>
      </trkpt>
      <trkpt lat="47.61134" lon="3.72608">
        <ele>179</ele>
        <time>2012-04-01T12:40:29Z</time>
      </trkpt>
      <trkpt lat="47.6114" lon="3.72609">
        <ele>178</ele>
        <time>2012-04-01T12:40:33Z</time>
      </trkpt>
      <trkpt lat="47.61146" lon="3.72607">
        <ele>178</ele>
        <time>2012-04-01T12:40:36Z</time>
      </trkpt>
      <trkpt lat="47.6115" lon="3.72608">
        <ele>176</ele>
        <time>2012-04-01T12:40:39Z</time>
      </trkpt>
      <trkpt lat="47.61155" lon="3.72611">
        <ele>176</ele>
        <time>2012-04-01T12:40:43Z</time>
      </trkpt>
      <trkpt lat="47.61159" lon="3.72616">
        <ele>176</ele>
        <time>2012-04-01T12:40:46Z</time>
      </trkpt>
      <trkpt lat="47.61162" lon="3.72622">
        <ele>175</ele>
        <time>2012-04-01T12:40:50Z</time>
      </trkpt>
      <trkpt lat="47.61166" lon="3.72626">
        <ele>175</ele>
        <time>2012-04-01T12:40:53Z</time>
      </trkpt>
      <trkpt lat="47.61169" lon="3.72631">
        <ele>177</ele>
        <time>2012-04-01T12:40:57Z</time>
      </trkpt>
      <trkpt lat="47.61174" lon="3.72634">
        <ele>178</ele>
        <time>2012-04-01T12:41:01Z</time>
      </trkpt>
      <trkpt lat="47.61185" lon="3.7264">
        <ele>172</ele>
        <time>2012-04-01T12:41:09Z</time>
      </trkpt>
      <trkpt lat="47.6119" lon="3.72643">
        <ele>174</ele>
        <time>2012-04-01T12:41:13Z</time>
      </trkpt>
      <trkpt lat="47.61207" lon="3.7266">
        <ele>167</ele>
        <time>2012-04-01T12:41:29Z</time>
      </trkpt>
      <trkpt lat="47.61213" lon="3.72663">
        <ele>168</ele>
        <time>2012-04-01T12:41:34Z</time>
      </trkpt>
      <trkpt lat="47.61217" lon="3.72665">
        <ele>166</ele>
        <time>2012-04-01T12:41:38Z</time>
      </trkpt>
      <trkpt lat="47.61222" lon="3.72668">
        <ele>166</ele>
        <time>2012-04-01T12:41:41Z</time>
      </trkpt>
      <trkpt lat="47.61226" lon="3.72671">
        <ele>167</ele>
        <time>2012-04-01T12:41:43Z</time>
      </trkpt>
      <trkpt lat="47.61236" lon="3.72679">
        <ele>167</ele>
        <time>2012-04-01T12:41:50Z</time>
      </trkpt>
      <trkpt lat="47.61241" lon="3.72682">
        <ele>165</ele>
        <time>2012-04-01T12:41:53Z</time>
      </trkpt>
      <trkpt lat="47.61249" lon="3.72693">
        <ele>165</ele>
        <time>2012-04-01T12:42:02Z</time>
      </trkpt>
      <trkpt lat="47.61256" lon="3.72711">
        <ele>168</ele>
        <time>2012-04-01T12:42:15Z</time>
      </trkpt>
      <trkpt lat="47.61259" lon="3.72717">
        <ele>168</ele>
        <time>2012-04-01T12:42:19Z</time>
      </trkpt>
      <trkpt lat="47.61262" lon="3.72723">
        <ele>166</ele>
        <time>2012-04-01T12:42:24Z</time>
      </trkpt>
      <trkpt lat="47.61274" lon="3.72737">
        <ele>161</ele>
        <time>2012-04-01T12:42:38Z</time>
      </trkpt>
      <trkpt lat="47.61279" lon="3.72751">
        <ele>163</ele>
        <time>2012-04-01T12:42:46Z</time>
      </trkpt>
      <trkpt lat="47.6128" lon="3.72758">
        <ele>163</ele>
        <time>2012-04-01T12:42:49Z</time>
      </trkpt>
      <trkpt lat="47.61284" lon="3.72763">
        <ele>164</ele>
        <time>2012-04-01T12:42:53Z</time>
      </trkpt>
      <trkpt lat="47.61286" lon="3.72769">
        <ele>164</ele>
        <time>2012-04-01T12:42:56Z</time>
      </trkpt>
      <trkpt lat="47.61289" lon="3.72775">
        <ele>165</ele>
        <time>2012-04-01T12:42:59Z</time>
      </trkpt>
      <trkpt lat="47.61292" lon="3.72781">
        <ele>165</ele>
        <time>2012-04-01T12:43:02Z</time>
      </trkpt>
      <trkpt lat="47.61293" lon="3.72787">
        <ele>164</ele>
        <time>2012-04-01T12:43:05Z</time>
      </trkpt>
      <trkpt lat="47.61294" lon="3.72794">
        <ele>165</ele>
        <time>2012-04-01T12:43:08Z</time>
      </trkpt>
      <trkpt lat="47.61296" lon="3.72801">
        <ele>164</ele>
        <time>2012-04-01T12:43:12Z</time>
      </trkpt>
      <trkpt lat="47.61301" lon="3.72805">
        <ele>163</ele>
        <time>2012-04-01T12:43:16Z</time>
      </trkpt>
      <trkpt lat="47.61307" lon="3.72818">
        <ele>165</ele>
        <time>2012-04-01T12:43:23Z</time>
      </trkpt>
      <trkpt lat="47.61312" lon="3.72822">
        <ele>162</ele>
        <time>2012-04-01T12:43:26Z</time>
      </trkpt>
      <trkpt lat="47.61323" lon="3.72838">
        <ele>165</ele>
        <time>2012-04-01T12:43:37Z</time>
      </trkpt>
      <trkpt lat="47.61326" lon="3.72844">
        <ele>164</ele>
        <time>2012-04-01T12:43:41Z</time>
      </trkpt>
      <trkpt lat="47.61331" lon="3.72847">
        <ele>155</ele>
        <time>2012-04-01T12:43:43Z</time>
      </trkpt>
      <trkpt lat="47.61337" lon="3.7285">
        <ele>155</ele>
        <time>2012-04-01T12:43:48Z</time>
      </trkpt>
      <trkpt lat="47.6134" lon="3.72855">
        <ele>153</ele>
        <time>2012-04-01T12:43:51Z</time>
      </trkpt>
      <trkpt lat="47.61347" lon="3.72867">
        <ele>153</ele>
        <time>2012-04-01T12:43:58Z</time>
      </trkpt>
      <trkpt lat="47.6136" lon="3.7288">
        <ele>160</ele>
        <time>2012-04-01T12:44:11Z</time>
      </trkpt>
      <trkpt lat="47.61365" lon="3.72884">
        <ele>159</ele>
        <time>2012-04-01T12:44:14Z</time>
      </trkpt>
      <trkpt lat="47.61368" lon="3.72888">
        <ele>159</ele>
        <time>2012-04-01T12:44:19Z</time>
      </trkpt>
      <trkpt lat="47.61371" lon="3.72893">
        <ele>160</ele>
        <time>2012-04-01T12:44:23Z</time>
      </trkpt>
      <trkpt lat="47.61372" lon="3.729">
        <ele>160</ele>
        <time>2012-04-01T12:44:30Z</time>
      </trkpt>
      <trkpt lat="47.61374" lon="3.72902">
        <ele>154</ele>
        <time>2012-04-01T12:44:41Z</time>
      </trkpt>
      <trkpt lat="47.6138" lon="3.72902">
        <ele>157</ele>
        <time>2012-04-01T12:45:00Z</time>
      </trkpt>
      <trkpt lat="47.61378" lon="3.72907">
        <ele>157</ele>
        <time>2012-04-01T12:45:16Z</time>
      </trkpt>
      <trkpt lat="47.61363" lon="3.72913">
        <ele>165</ele>
        <time>2012-04-01T12:45:22Z</time>
      </trkpt>
      <trkpt lat="47.61356" lon="3.72921">
        <ele>163</ele>
        <time>2012-04-01T12:45:27Z</time>
      </trkpt>
      <trkpt lat="47.61352" lon="3.72928">
        <ele>164</ele>
        <time>2012-04-01T12:45:31Z</time>
      </trkpt>
      <trkpt lat="47.61349" lon="3.72934">
        <ele>162</ele>
        <time>2012-04-01T12:45:35Z</time>
      </trkpt>
      <trkpt lat="47.61345" lon="3.72939">
        <ele>162</ele>
        <time>2012-04-01T12:45:39Z</time>
      </trkpt>
      <trkpt lat="47.61342" lon="3.72943">
        <ele>160</ele>
        <time>2012-04-01T12:45:45Z</time>
      </trkpt>
      <trkpt lat="47.61338" lon="3.72948">
        <ele>162</ele>
        <time>2012-04-01T12:45:51Z</time>
      </trkpt>
      <trkpt lat="47.61333" lon="3.72952">
        <ele>159</ele>
        <time>2012-04-01T12:45:55Z</time>
      </trkpt>
      <trkpt lat="47.61329" lon="3.72957">
        <ele>159</ele>
        <time>2012-04-01T12:45:59Z</time>
      </trkpt>
      <trkpt lat="47.61325" lon="3.72961">
        <ele>160</ele>
        <time>2012-04-01T12:46:03Z</time>
      </trkpt>
      <trkpt lat="47.61311" lon="3.72973">
        <ele>155</ele>
        <time>2012-04-01T12:46:22Z</time>
      </trkpt>
      <trkpt lat="47.61306" lon="3.72977">
        <ele>156</ele>
        <time>2012-04-01T12:46:26Z</time>
      </trkpt>
      <trkpt lat="47.61282" lon="3.72996">
        <ele>156</ele>
        <time>2012-04-01T12:46:48Z</time>
      </trkpt>
      <trkpt lat="47.61278" lon="3.73">
        <ele>157</ele>
        <time>2012-04-01T12:46:52Z</time>
      </trkpt>
      <trkpt lat="47.61269" lon="3.73008">
        <ele>154</ele>
        <time>2012-04-01T12:47:00Z</time>
      </trkpt>
      <trkpt lat="47.61264" lon="3.73013">
        <ele>155</ele>
        <time>2012-04-01T12:47:04Z</time>
      </trkpt>
      <trkpt lat="47.6126" lon="3.73018">
        <ele>152</ele>
        <time>2012-04-01T12:47:08Z</time>
      </trkpt>
      <trkpt lat="47.61257" lon="3.73023">
        <ele>152</ele>
        <time>2012-04-01T12:47:12Z</time>
      </trkpt>
      <trkpt lat="47.61258" lon="3.73031">
        <ele>153</ele>
        <time>2012-04-01T12:47:20Z</time>
      </trkpt>
      <trkpt lat="47.6126" lon="3.73047">
        <ele>153</ele>
        <time>2012-04-01T12:47:28Z</time>
      </trkpt>
      <trkpt lat="47.61263" lon="3.73055">
        <ele>154</ele>
        <time>2012-04-01T12:47:32Z</time>
      </trkpt>
      <trkpt lat="47.61261" lon="3.73062">
        <ele>154</ele>
        <time>2012-04-01T12:47:40Z</time>
      </trkpt>
      <trkpt lat="47.61265" lon="3.73068">
        <ele>153</ele>
        <time>2012-04-01T12:47:45Z</time>
      </trkpt>
      <trkpt lat="47.61269" lon="3.73072">
        <ele>153</ele>
        <time>2012-04-01T12:47:48Z</time>
      </trkpt>
      <trkpt lat="47.61274" lon="3.73079">
        <ele>155</ele>
        <time>2012-04-01T12:47:51Z</time>
      </trkpt>
      <trkpt lat="47.61277" lon="3.73084">
        <ele>154</ele>
        <time>2012-04-01T12:47:57Z</time>
      </trkpt>
      <trkpt lat="47.61284" lon="3.73083">
        <ele>155</ele>
        <time>2012-04-01T12:48:00Z</time>
      </trkpt>
      <trkpt lat="47.6129" lon="3.73083">
        <ele>153</ele>
        <time>2012-04-01T12:48:02Z</time>
      </trkpt>
      <trkpt lat="47.61295" lon="3.73085">
        <ele>155</ele>
        <time>2012-04-01T12:48:05Z</time>
      </trkpt>
      <trkpt lat="47.61299" lon="3.73088">
        <ele>155</ele>
        <time>2012-04-01T12:48:08Z</time>
      </trkpt>
      <trkpt lat="47.61309" lon="3.73085">
        <ele>155</ele>
        <time>2012-04-01T12:48:17Z</time>
      </trkpt>
      <trkpt lat="47.61314" lon="3.73085">
        <ele>154</ele>
        <time>2012-04-01T12:48:21Z</time>
      </trkpt>
      <trkpt lat="47.61319" lon="3.73084">
        <ele>155</ele>
        <time>2012-04-01T12:48:25Z</time>
      </trkpt>
      <trkpt lat="47.61328" lon="3.73088">
        <ele>152</ele>
        <time>2012-04-01T12:48:34Z</time>
      </trkpt>
      <trkpt lat="47.61333" lon="3.7309">
        <ele>152</ele>
        <time>2012-04-01T12:48:41Z</time>
      </trkpt>
      <trkpt lat="47.61338" lon="3.73088">
        <ele>145</ele>
        <time>2012-04-01T12:48:45Z</time>
      </trkpt>
      <trkpt lat="47.61343" lon="3.73087">
        <ele>145</ele>
        <time>2012-04-01T12:48:48Z</time>
      </trkpt>
      <trkpt lat="47.61354" lon="3.7309">
        <ele>148</ele>
        <time>2012-04-01T12:48:56Z</time>
      </trkpt>
      <trkpt lat="47.61366" lon="3.73101">
        <ele>148</ele>
        <time>2012-04-01T12:49:05Z</time>
      </trkpt>
      <trkpt lat="47.61371" lon="3.73105">
        <ele>146</ele>
        <time>2012-04-01T12:49:08Z</time>
      </trkpt>
      <trkpt lat="47.61376" lon="3.73109">
        <ele>147</ele>
        <time>2012-04-01T12:49:11Z</time>
      </trkpt>
      <trkpt lat="47.61379" lon="3.73114">
        <ele>147</ele>
        <time>2012-04-01T12:49:14Z</time>
      </trkpt>
      <trkpt lat="47.61383" lon="3.7312">
        <ele>146</ele>
        <time>2012-04-01T12:49:18Z</time>
      </trkpt>
      <trkpt lat="47.61387" lon="3.73126">
        <ele>146</ele>
        <time>2012-04-01T12:49:21Z</time>
      </trkpt>
      <trkpt lat="47.6139" lon="3.73133">
        <ele>145</ele>
        <time>2012-04-01T12:49:24Z</time>
      </trkpt>
      <trkpt lat="47.61392" lon="3.73139">
        <ele>146</ele>
        <time>2012-04-01T12:49:27Z</time>
      </trkpt>
      <trkpt lat="47.61391" lon="3.73146">
        <ele>143</ele>
        <time>2012-04-01T12:49:32Z</time>
      </trkpt>
      <trkpt lat="47.61389" lon="3.73153">
        <ele>142</ele>
        <time>2012-04-01T12:49:35Z</time>
      </trkpt>
      <trkpt lat="47.6139" lon="3.7316">
        <ele>140</ele>
        <time>2012-04-01T12:49:39Z</time>
      </trkpt>
      <trkpt lat="47.61393" lon="3.73166">
        <ele>142</ele>
        <time>2012-04-01T12:49:44Z</time>
      </trkpt>
      <trkpt lat="47.61392" lon="3.73175">
        <ele>142</ele>
        <time>2012-04-01T12:49:49Z</time>
      </trkpt>
      <trkpt lat="47.61395" lon="3.73204">
        <ele>134</ele>
        <time>2012-04-01T12:50:04Z</time>
      </trkpt>
      <trkpt lat="47.61402" lon="3.73233">
        <ele>138</ele>
        <time>2012-04-01T12:50:18Z</time>
      </trkpt>
      <trkpt lat="47.61405" lon="3.73246">
        <ele>135</ele>
        <time>2012-04-01T12:50:24Z</time>
      </trkpt>
      <trkpt lat="47.61407" lon="3.73252">
        <ele>136</ele>
        <time>2012-04-01T12:50:28Z</time>
      </trkpt>
      <trkpt lat="47.61408" lon="3.7326">
        <ele>134</ele>
        <time>2012-04-01T12:50:33Z</time>
      </trkpt>
      <trkpt lat="47.61409" lon="3.73267">
        <ele>135</ele>
        <time>2012-04-01T12:50:36Z</time>
      </trkpt>
      <trkpt lat="47.6141" lon="3.73275">
        <ele>134</ele>
        <time>2012-04-01T12:50:39Z</time>
      </trkpt>
      <trkpt lat="47.61414" lon="3.7328">
        <ele>132</ele>
        <time>2012-04-01T12:50:43Z</time>
      </trkpt>
      <trkpt lat="47.61419" lon="3.73282">
        <ele>131</ele>
        <time>2012-04-01T12:50:46Z</time>
      </trkpt>
      <trkpt lat="47.61423" lon="3.73289">
        <ele>130</ele>
        <time>2012-04-01T12:50:49Z</time>
      </trkpt>
      <trkpt lat="47.61427" lon="3.73293">
        <ele>130</ele>
        <time>2012-04-01T12:50:52Z</time>
      </trkpt>
      <trkpt lat="47.61428" lon="3.73301">
        <ele>130</ele>
        <time>2012-04-01T12:50:55Z</time>
      </trkpt>
      <trkpt lat="47.61427" lon="3.73308">
        <ele>130</ele>
        <time>2012-04-01T12:50:58Z</time>
      </trkpt>
      <trkpt lat="47.61431" lon="3.73323">
        <ele>130</ele>
        <time>2012-04-01T12:51:07Z</time>
      </trkpt>
      <trkpt lat="47.61433" lon="3.73331">
        <ele>129</ele>
        <time>2012-04-01T12:51:11Z</time>
      </trkpt>
      <trkpt lat="47.61434" lon="3.73339">
        <ele>131</ele>
        <time>2012-04-01T12:51:15Z</time>
      </trkpt>
      <trkpt lat="47.61431" lon="3.73346">
        <ele>129</ele>
        <time>2012-04-01T12:51:18Z</time>
      </trkpt>
      <trkpt lat="47.61432" lon="3.73353">
        <ele>129</ele>
        <time>2012-04-01T12:51:22Z</time>
      </trkpt>
      <trkpt lat="47.61439" lon="3.73373">
        <ele>123</ele>
        <time>2012-04-01T12:51:31Z</time>
      </trkpt>
      <trkpt lat="47.61441" lon="3.73379">
        <ele>123</ele>
        <time>2012-04-01T12:51:34Z</time>
      </trkpt>
      <trkpt lat="47.6144" lon="3.73387">
        <ele>124</ele>
        <time>2012-04-01T12:51:38Z</time>
      </trkpt>
      <trkpt lat="47.6144" lon="3.73395">
        <ele>123</ele>
        <time>2012-04-01T12:51:42Z</time>
      </trkpt>
      <trkpt lat="47.61437" lon="3.73401">
        <ele>123</ele>
        <time>2012-04-01T12:51:46Z</time>
      </trkpt>
      <trkpt lat="47.6144" lon="3.73418">
        <ele>121</ele>
        <time>2012-04-01T12:51:53Z</time>
      </trkpt>
      <trkpt lat="47.6144" lon="3.73426">
        <ele>121</ele>
        <time>2012-04-01T12:51:57Z</time>
      </trkpt>
      <trkpt lat="47.61441" lon="3.73447">
        <ele>116</ele>
        <time>2012-04-01T12:52:13Z</time>
      </trkpt>
      <trkpt lat="47.6144" lon="3.73456">
        <ele>116</ele>
        <time>2012-04-01T12:52:16Z</time>
      </trkpt>
      <trkpt lat="47.61443" lon="3.73464">
        <ele>116</ele>
        <time>2012-04-01T12:52:19Z</time>
      </trkpt>
      <trkpt lat="47.61443" lon="3.73471">
        <ele>115</ele>
        <time>2012-04-01T12:52:22Z</time>
      </trkpt>
      <trkpt lat="47.61442" lon="3.73486">
        <ele>115</ele>
        <time>2012-04-01T12:52:30Z</time>
      </trkpt>
      <trkpt lat="47.61444" lon="3.73502">
        <ele>112</ele>
        <time>2012-04-01T12:52:40Z</time>
      </trkpt>
      <trkpt lat="47.61445" lon="3.73509">
        <ele>112</ele>
        <time>2012-04-01T12:52:44Z</time>
      </trkpt>
      <trkpt lat="47.61445" lon="3.73516">
        <ele>111</ele>
        <time>2012-04-01T12:52:47Z</time>
      </trkpt>
      <trkpt lat="47.61445" lon="3.73524">
        <ele>111</ele>
        <time>2012-04-01T12:52:51Z</time>
      </trkpt>
      <trkpt lat="47.61443" lon="3.73531">
        <ele>107</ele>
        <time>2012-04-01T12:52:55Z</time>
      </trkpt>
      <trkpt lat="47.61442" lon="3.73538">
        <ele>107</ele>
        <time>2012-04-01T12:52:59Z</time>
      </trkpt>
      <trkpt lat="47.61442" lon="3.73545">
        <ele>106</ele>
        <time>2012-04-01T12:53:02Z</time>
      </trkpt>
      <trkpt lat="47.61442" lon="3.73553">
        <ele>106</ele>
        <time>2012-04-01T12:53:07Z</time>
      </trkpt>
      <trkpt lat="47.6144" lon="3.73559">
        <ele>107</ele>
        <time>2012-04-01T12:53:09Z</time>
      </trkpt>
      <trkpt lat="47.6144" lon="3.73567">
        <ele>107</ele>
        <time>2012-04-01T12:53:12Z</time>
      </trkpt>
      <trkpt lat="47.6144" lon="3.73582">
        <ele>110</ele>
        <time>2012-04-01T12:53:21Z</time>
      </trkpt>
      <trkpt lat="47.61442" lon="3.7359">
        <ele>110</ele>
        <time>2012-04-01T12:53:25Z</time>
      </trkpt>
      <trkpt lat="47.61442" lon="3.73596">
        <ele>109</ele>
        <time>2012-04-01T12:53:28Z</time>
      </trkpt>
      <trkpt lat="47.61444" lon="3.73603">
        <ele>109</ele>
        <time>2012-04-01T12:53:31Z</time>
      </trkpt>
      <trkpt lat="47.61443" lon="3.7361">
        <ele>111</ele>
        <time>2012-04-01T12:53:35Z</time>
      </trkpt>
      <trkpt lat="47.61434" lon="3.7363">
        <ele>111</ele>
        <time>2012-04-01T12:53:45Z</time>
      </trkpt>
      <trkpt lat="47.61431" lon="3.73638">
        <ele>107</ele>
        <time>2012-04-01T12:53:48Z</time>
      </trkpt>
      <trkpt lat="47.61429" lon="3.73647">
        <ele>107</ele>
        <time>2012-04-01T12:53:51Z</time>
      </trkpt>
      <trkpt lat="47.61427" lon="3.73654">
        <ele>109</ele>
        <time>2012-04-01T12:53:54Z</time>
      </trkpt>
      <trkpt lat="47.61425" lon="3.73661">
        <ele>109</ele>
        <time>2012-04-01T12:53:58Z</time>
      </trkpt>
      <trkpt lat="47.61428" lon="3.73667">
        <ele>104</ele>
        <time>2012-04-01T12:54:04Z</time>
      </trkpt>
      <trkpt lat="47.61424" lon="3.73682">
        <ele>104</ele>
        <time>2012-04-01T12:54:11Z</time>
      </trkpt>
      <trkpt lat="47.61423" lon="3.73689">
        <ele>102</ele>
        <time>2012-04-01T12:54:14Z</time>
      </trkpt>
      <trkpt lat="47.61415" lon="3.73718">
        <ele>106</ele>
        <time>2012-04-01T12:54:26Z</time>
      </trkpt>
      <trkpt lat="47.61414" lon="3.73725">
        <ele>106</ele>
        <time>2012-04-01T12:54:29Z</time>
      </trkpt>
      <trkpt lat="47.61413" lon="3.73732">
        <ele>105</ele>
        <time>2012-04-01T12:54:32Z</time>
      </trkpt>
      <trkpt lat="47.61409" lon="3.73746">
        <ele>105</ele>
        <time>2012-04-01T12:54:40Z</time>
      </trkpt>
      <trkpt lat="47.61405" lon="3.73767">
        <ele>100</ele>
        <time>2012-04-01T12:54:50Z</time>
      </trkpt>
      <trkpt lat="47.61405" lon="3.73774">
        <ele>100</ele>
        <time>2012-04-01T12:54:56Z</time>
      </trkpt>
      <trkpt lat="47.61404" lon="3.73781">
        <ele>99</ele>
        <time>2012-04-01T12:55:00Z</time>
      </trkpt>
      <trkpt lat="47.61404" lon="3.7379">
        <ele>102</ele>
        <time>2012-04-01T12:55:04Z</time>
      </trkpt>
      <trkpt lat="47.61401" lon="3.73805">
        <ele>102</ele>
        <time>2012-04-01T12:55:11Z</time>
      </trkpt>
      <trkpt lat="47.61398" lon="3.73812">
        <ele>104</ele>
        <time>2012-04-01T12:55:14Z</time>
      </trkpt>
      <trkpt lat="47.61396" lon="3.73818">
        <ele>104</ele>
        <time>2012-04-01T12:55:18Z</time>
      </trkpt>
      <trkpt lat="47.61389" lon="3.73848">
        <ele>96</ele>
        <time>2012-04-01T12:55:34Z</time>
      </trkpt>
      <trkpt lat="47.61389" lon="3.73855">
        <ele>97</ele>
        <time>2012-04-01T12:55:39Z</time>
      </trkpt>
      <trkpt lat="47.61392" lon="3.73868">
        <ele>97</ele>
        <time>2012-04-01T12:55:47Z</time>
      </trkpt>
      <trkpt lat="47.61393" lon="3.73875">
        <ele>94</ele>
        <time>2012-04-01T12:55:50Z</time>
      </trkpt>
      <trkpt lat="47.61404" lon="3.73891">
        <ele>98</ele>
        <time>2012-04-01T12:56:00Z</time>
      </trkpt>
      <trkpt lat="47.6142" lon="3.73921">
        <ele>90</ele>
        <time>2012-04-01T12:56:19Z</time>
      </trkpt>
      <trkpt lat="47.61422" lon="3.73927">
        <ele>91</ele>
        <time>2012-04-01T12:56:23Z</time>
      </trkpt>
      <trkpt lat="47.61437" lon="3.73952">
        <ele>83</ele>
        <time>2012-04-01T12:56:42Z</time>
      </trkpt>
      <trkpt lat="47.61441" lon="3.73955">
        <ele>83</ele>
        <time>2012-04-01T12:56:45Z</time>
      </trkpt>
      <trkpt lat="47.61443" lon="3.73959">
        <ele>85</ele>
        <time>2012-04-01T12:56:52Z</time>
      </trkpt>
      <trkpt lat="47.6144" lon="3.73962">
        <ele>87</ele>
        <time>2012-04-01T12:57:04Z</time>
      </trkpt>
      <trkpt lat="47.61441" lon="3.73964">
        <ele>91</ele>
        <time>2012-04-01T12:57:31Z</time>
      </trkpt>
      <trkpt lat="47.61444" lon="3.73959">
        <ele>88</ele>
        <time>2012-04-01T12:58:16Z</time>
      </trkpt>
      <trkpt lat="47.61448" lon="3.7396">
        <ele>87</ele>
        <time>2012-04-01T12:58:19Z</time>
      </trkpt>
      <trkpt lat="47.6145" lon="3.73964">
        <ele>86</ele>
        <time>2012-04-01T12:59:53Z</time>
      </trkpt>
      <trkpt lat="47.61454" lon="3.73967">
        <ele>85</ele>
        <time>2012-04-01T12:59:59Z</time>
      </trkpt>
      <trkpt lat="47.61459" lon="3.7397">
        <ele>86</ele>
        <time>2012-04-01T13:00:03Z</time>
      </trkpt>
      <trkpt lat="47.61469" lon="3.73975">
        <ele>86</ele>
        <time>2012-04-01T13:00:08Z</time>
      </trkpt>
      <trkpt lat="47.61474" lon="3.73977">
        <ele>87</ele>
        <time>2012-04-01T13:00:11Z</time>
      </trkpt>
      <trkpt lat="47.61478" lon="3.73984">
        <ele>88</ele>
        <time>2012-04-01T13:00:15Z</time>
      </trkpt>
      <trkpt lat="47.61481" lon="3.73989">
        <ele>87</ele>
        <time>2012-04-01T13:00:18Z</time>
      </trkpt>
      <trkpt lat="47.61483" lon="3.73996">
        <ele>87</ele>
        <time>2012-04-01T13:00:26Z</time>
      </trkpt>
      <trkpt lat="47.61494" lon="3.74011">
        <ele>87</ele>
        <time>2012-04-01T13:00:39Z</time>
      </trkpt>
      <trkpt lat="47.61508" lon="3.7402">
        <ele>83</ele>
        <time>2012-04-01T13:00:52Z</time>
      </trkpt>
      <trkpt lat="47.61509" lon="3.74027">
        <ele>82</ele>
        <time>2012-04-01T13:00:58Z</time>
      </trkpt>
      <trkpt lat="47.61518" lon="3.74043">
        <ele>85</ele>
        <time>2012-04-01T13:01:10Z</time>
      </trkpt>
      <trkpt lat="47.61523" lon="3.74044">
        <ele>83</ele>
        <time>2012-04-01T13:01:18Z</time>
      </trkpt>
      <trkpt lat="47.61533" lon="3.74054">
        <ele>81</ele>
        <time>2012-04-01T13:01:26Z</time>
      </trkpt>
      <trkpt lat="47.61538" lon="3.74056">
        <ele>82</ele>
        <time>2012-04-01T13:01:31Z</time>
      </trkpt>
      <trkpt lat="47.61543" lon="3.74059">
        <ele>82</ele>
        <time>2012-04-01T13:01:35Z</time>
      </trkpt>
      <trkpt lat="47.61547" lon="3.7406">
        <ele>83</ele>
        <time>2012-04-01T13:01:38Z</time>
      </trkpt>
      <trkpt lat="47.61561" lon="3.74071">
        <ele>83</ele>
        <time>2012-04-01T13:01:52Z</time>
      </trkpt>
      <trkpt lat="47.61565" lon="3.74073">
        <ele>82</ele>
        <time>2012-04-01T13:01:57Z</time>
      </trkpt>
      <trkpt lat="47.6157" lon="3.74074">
        <ele>82</ele>
        <time>2012-04-01T13:02:00Z</time>
      </trkpt>
      <trkpt lat="47.61574" lon="3.74077">
        <ele>81</ele>
        <time>2012-04-01T13:02:03Z</time>
      </trkpt>
      <trkpt lat="47.61578" lon="3.74081">
        <ele>83</ele>
        <time>2012-04-01T13:02:08Z</time>
      </trkpt>
      <trkpt lat="47.61583" lon="3.74085">
        <ele>83</ele>
        <time>2012-04-01T13:02:12Z</time>
      </trkpt>
      <trkpt lat="47.61602" lon="3.74099">
        <ele>78</ele>
        <time>2012-04-01T13:02:27Z</time>
      </trkpt>
      <trkpt lat="47.61611" lon="3.74107">
        <ele>80</ele>
        <time>2012-04-01T13:02:37Z</time>
      </trkpt>
      <trkpt lat="47.61616" lon="3.7411">
        <ele>79</ele>
        <time>2012-04-01T13:02:40Z</time>
      </trkpt>
      <trkpt lat="47.61617" lon="3.74117">
        <ele>79</ele>
        <time>2012-04-01T13:02:46Z</time>
      </trkpt>
      <trkpt lat="47.61621" lon="3.7412">
        <ele>78</ele>
        <time>2012-04-01T13:02:49Z</time>
      </trkpt>
      <trkpt lat="47.61626" lon="3.74125">
        <ele>79</ele>
        <time>2012-04-01T13:02:53Z</time>
      </trkpt>
      <trkpt lat="47.61629" lon="3.74131">
        <ele>78</ele>
        <time>2012-04-01T13:02:56Z</time>
      </trkpt>
      <trkpt lat="47.61637" lon="3.74143">
        <ele>82</ele>
        <time>2012-04-01T13:03:03Z</time>
      </trkpt>
      <trkpt lat="47.61646" lon="3.74149">
        <ele>79</ele>
        <time>2012-04-01T13:03:11Z</time>
      </trkpt>
      <trkpt lat="47.61656" lon="3.74153">
        <ele>76</ele>
        <time>2012-04-01T13:03:18Z</time>
      </trkpt>
      <trkpt lat="47.61667" lon="3.74159">
        <ele>76</ele>
        <time>2012-04-01T13:03:25Z</time>
      </trkpt>
      <trkpt lat="47.61676" lon="3.74165">
        <ele>73</ele>
        <time>2012-04-01T13:03:35Z</time>
      </trkpt>
      <trkpt lat="47.61683" lon="3.74175">
        <ele>76</ele>
        <time>2012-04-01T13:03:46Z</time>
      </trkpt>
      <trkpt lat="47.61687" lon="3.74174">
        <ele>77</ele>
        <time>2012-04-01T13:03:51Z</time>
      </trkpt>
      <trkpt lat="47.61692" lon="3.74175">
        <ele>77</ele>
        <time>2012-04-01T13:03:55Z</time>
      </trkpt>
      <trkpt lat="47.61697" lon="3.74178">
        <ele>78</ele>
        <time>2012-04-01T13:04:00Z</time>
      </trkpt>
      <trkpt lat="47.61703" lon="3.74178">
        <ele>78</ele>
        <time>2012-04-01T13:04:04Z</time>
      </trkpt>
      <trkpt lat="47.61719" lon="3.74176">
        <ele>81</ele>
        <time>2012-04-01T13:04:13Z</time>
      </trkpt>
      <trkpt lat="47.61724" lon="3.74178">
        <ele>80</ele>
        <time>2012-04-01T13:04:19Z</time>
      </trkpt>
      <trkpt lat="47.61729" lon="3.74179">
        <ele>80</ele>
        <time>2012-04-01T13:04:27Z</time>
      </trkpt>
      <trkpt lat="47.61733" lon="3.74177">
        <ele>80</ele>
        <time>2012-04-01T13:04:32Z</time>
      </trkpt>
      <trkpt lat="47.61734" lon="3.7417">
        <ele>78</ele>
        <time>2012-04-01T13:04:35Z</time>
      </trkpt>
      <trkpt lat="47.61738" lon="3.74165">
        <ele>76</ele>
        <time>2012-04-01T13:04:38Z</time>
      </trkpt>
      <trkpt lat="47.61742" lon="3.7416">
        <ele>77</ele>
        <time>2012-04-01T13:04:42Z</time>
      </trkpt>
      <trkpt lat="47.61747" lon="3.74157">
        <ele>71</ele>
        <time>2012-04-01T13:04:47Z</time>
      </trkpt>
      <trkpt lat="47.61756" lon="3.74149">
        <ele>73</ele>
        <time>2012-04-01T13:04:56Z</time>
      </trkpt>
      <trkpt lat="47.6176" lon="3.74144">
        <ele>72</ele>
        <time>2012-04-01T13:05:01Z</time>
      </trkpt>
      <trkpt lat="47.61768" lon="3.74136">
        <ele>78</ele>
        <time>2012-04-01T13:05:12Z</time>
      </trkpt>
      <trkpt lat="47.61772" lon="3.74133">
        <ele>76</ele>
        <time>2012-04-01T13:05:15Z</time>
      </trkpt>
      <trkpt lat="47.61785" lon="3.74123">
        <ele>84</ele>
        <time>2012-04-01T13:05:29Z</time>
      </trkpt>
      <trkpt lat="47.61796" lon="3.7412">
        <ele>80</ele>
        <time>2012-04-01T13:05:37Z</time>
      </trkpt>
      <trkpt lat="47.61801" lon="3.74118">
        <ele>81</ele>
        <time>2012-04-01T13:05:41Z</time>
      </trkpt>
      <trkpt lat="47.61812" lon="3.74115">
        <ele>81</ele>
        <time>2012-04-01T13:05:48Z</time>
      </trkpt>
      <trkpt lat="47.61817" lon="3.74113">
        <ele>79</ele>
        <time>2012-04-01T13:05:53Z</time>
      </trkpt>
      <trkpt lat="47.61821" lon="3.74114">
        <ele>85</ele>
        <time>2012-04-01T13:05:57Z</time>
      </trkpt>
      <trkpt lat="47.6184" lon="3.74121">
        <ele>74</ele>
        <time>2012-04-01T13:06:10Z</time>
      </trkpt>
      <trkpt lat="47.61845" lon="3.74122">
        <ele>74</ele>
        <time>2012-04-01T13:06:13Z</time>
      </trkpt>
    </trkseg>
  </trk>
</gpx>